ECMWFNIL_prec_cthk_000.txt.gz
RH
36 38 39 38 36 36 35 37 39 41 44 47 50 52 52 53 54 55 57 57 57 55 52 49 45 44 45 44 38 34 34 34 32 32 31 28 28 30 32 35 36 38
41 43 43 41 38 38 39 41 44 45 46 47 51 56 57 58 56 54 54 56 57 58 58 56 54 51 50 49 43 38 36 35 34 33 32 29 29 31 34 36 38 41
43 45 46 44 42 41 42 44 46 47 48 48 50 54 57 59 57 51 46 47 52 57 60 61 60 58 56 54 50 43 37 35 34 34 34 32 32 33 35 38 40 42
42 46 47 46 46 46 47 48 50 50 52 52 51 55 59 60 57 52 45 43 48 55 60 63 64 64 62 60 57 49 40 37 35 34 35 35 35 35 37 40 42 42
42 46 48 48 49 51 51 53 54 56 57 57 57 60 61 60 58 56 52 49 50 55 60 62 65 66 65 64 63 56 47 41 38 36 35 36 36 36 38 41 42 41
41 46 49 51 52 53 54 55 56 57 59 62 65 68 66 64 64 64 61 58 59 63 64 64 66 68 68 66 65 63 56 47 42 41 40 40 39 37 39 42 41 41
42 47 51 53 54 55 57 59 57 56 61 68 73 75 73 68 67 68 66 65 68 70 69 67 65 65 68 66 62 62 61 56 50 47 46 46 44 41 42 43 42 41
42 45 49 53 55 57 59 60 58 58 65 74 77 77 74 69 67 68 69 71 73 72 70 67 64 62 65 68 66 63 63 62 60 55 51 50 49 48 47 46 45 43
42 42 45 49 52 55 58 58 57 59 66 73 76 78 75 69 67 69 71 73 74 73 71 69 67 64 64 67 69 68 64 60 61 62 60 57 55 54 53 50 45 44
45 47 49 51 53 56 58 58 58 60 66 71 74 79 78 70 68 71 71 69 70 71 71 70 69 68 68 67 67 66 61 55 58 63 64 62 56 52 52 50 45 47
52 57 59 59 60 58 55 57 59 60 66 70 71 75 77 72 69 69 67 68 69 72 73 72 69 67 68 68 67 65 60 56 59 63 62 60 55 49 49 49 46 48
60 63 67 68 68 63 54 52 58 61 64 66 65 67 71 70 67 64 64 68 69 70 71 69 66 64 65 66 66 64 61 59 62 66 64 61 56 49 52 55 51 49
54 56 61 66 70 68 56 48 53 59 60 60 59 59 60 61 61 60 60 62 61 61 63 62 62 63 64 67 66 64 63 64 67 71 69 65 60 56 59 63 59 54
48 51 56 58 62 69 63 52 53 54 52 54 54 53 53 51 50 50 52 55 55 54 57 60 64 66 64 67 69 67 67 68 71 74 74 70 67 65 64 66 67 64
52 54 58 56 60 70 68 58 53 47 42 46 46 42 42 42 40 40 41 45 48 50 54 58 62 64 62 63 68 69 69 71 72 75 77 76 74 73 72 72 71 69
57 58 61 59 60 66 65 58 54 46 41 41 39 37 37 38 39 40 39 39 44 49 52 54 57 61 62 64 68 70 70 72 73 75 77 78 76 75 75 75 73 71
56 56 58 59 59 62 63 62 58 53 48 44 40 40 42 40 41 42 40 39 43 48 49 50 54 61 65 67 69 71 72 75 78 78 78 78 76 74 74 76 76 73
52 51 52 57 62 65 66 63 59 56 55 52 48 48 50 47 42 42 42 40 39 45 49 49 51 59 66 69 71 73 76 79 82 82 82 81 78 75 76 78 78 74
52 52 54 58 60 61 62 59 55 55 56 55 54 54 54 50 44 43 46 44 38 42 49 50 51 58 67 71 73 76 79 81 83 84 84 83 80 78 79 81 80 78
55 55 58 57 53 53 54 53 54 58 60 58 55 54 52 51 48 46 48 47 42 44 50 53 54 61 68 71 75 78 78 79 81 83 84 84 83 83 84 84 83 82
56 56 56 54 52 52 52 51 54 60 63 60 57 55 53 51 49 47 48 51 50 49 52 54 55 62 70 73 76 77 75 73 77 82 84 85 87 87 86 86 85 83
54 54 53 53 54 55 54 54 55 59 63 63 62 61 59 56 51 46 48 54 55 51 53 55 58 66 75 77 74 72 69 67 72 79 82 84 86 86 84 85 85 85
52 53 55 56 56 56 55 56 59 62 66 68 67 68 66 61 54 48 48 55 56 52 52 55 58 66 75 76 71 65 63 64 69 76 80 83 84 83 81 82 84 84
54 56 57 57 57 56 56 59 63 67 69 69 68 69 68 64 60 57 57 59 57 53 53 55 60 69 75 73 67 61 60 65 70 74 80 86 86 83 81 80 81 81
56 59 58 57 57 59 61 64 68 70 71 71 70 69 68 67 66 65 64 60 57 56 56 56 61 69 72 70 66 61 61 66 71 75 80 85 86 84 83 81 79 78
58 59 58 57 60 62 64 67 70 72 73 74 73 71 69 68 65 62 60 56 54 56 57 56 59 66 69 67 65 64 66 68 71 73 74 76 78 80 80 77 73 71

ECMWFNIL_prec_cthk_003.txt.gz
RH
24 25 29 35 41 44 46 48 48 49 50 50 49 50 52 51 48 45 45 46 48 49 49 49 47 45 46 50 52 54 54 49 40 35 34 33 32 31 32 32 32 33
26 28 32 38 44 46 48 50 49 50 52 54 56 56 57 55 50 48 49 50 51 52 53 54 54 53 52 53 54 55 57 58 52 42 37 37 35 33 33 35 36 37
31 31 34 39 45 48 50 52 51 51 53 56 59 60 61 60 55 52 53 55 57 59 60 60 61 61 61 60 60 60 59 60 60 53 46 43 41 37 34 34 35 36
37 34 35 40 46 50 53 54 55 56 57 60 62 64 65 65 61 59 59 61 64 67 68 66 65 66 67 67 65 65 62 60 62 62 57 51 48 46 43 38 35 35
40 37 37 40 44 52 57 59 62 64 64 66 66 66 66 65 63 62 62 64 68 70 70 69 69 70 72 74 72 71 70 65 64 65 64 60 55 53 52 49 43 39
42 39 38 40 45 56 63 64 65 66 66 69 68 65 64 63 61 58 57 61 66 71 73 74 76 76 75 79 79 77 76 74 71 69 69 68 64 59 58 57 53 46
43 42 40 42 50 61 66 65 64 65 66 68 65 63 64 63 59 54 52 54 59 64 68 72 75 72 70 76 81 80 80 78 75 72 70 69 69 66 63 62 59 54
43 45 43 46 54 62 65 63 62 62 63 63 61 59 60 57 50 47 47 47 49 52 57 63 67 65 63 69 75 79 81 80 78 77 73 70 69 68 67 66 64 61
44 46 46 49 54 59 58 56 57 58 60 60 56 53 52 48 41 40 42 43 43 45 49 55 60 60 61 63 66 70 74 77 77 78 77 74 69 66 69 72 70 65
43 45 47 49 49 47 44 45 49 51 54 54 51 47 45 39 35 34 37 39 41 41 41 45 52 56 58 59 60 63 67 72 74 73 73 72 66 62 66 72 73 69
43 45 48 46 42 40 39 41 44 44 46 47 44 42 40 35 34 36 37 38 41 41 37 37 42 48 53 54 55 58 60 65 72 72 70 67 59 57 64 71 75 75
45 47 47 40 38 44 45 44 42 42 44 43 40 40 38 35 36 39 41 41 41 43 42 39 38 41 46 47 49 55 54 56 67 73 73 67 57 58 68 73 76 79
47 49 47 40 42 49 48 45 44 44 44 42 41 44 42 39 40 42 44 42 41 43 44 42 40 39 43 44 46 52 53 52 61 72 75 71 62 63 73 76 77 80
48 51 50 45 46 48 45 46 48 46 44 44 47 50 47 43 44 45 46 45 44 44 44 43 42 40 42 44 44 46 48 49 56 65 71 71 66 67 73 78 80 82
49 52 52 49 47 46 45 46 47 46 46 47 51 54 51 47 47 47 48 48 46 46 46 46 45 42 42 44 43 45 47 50 54 60 65 69 68 68 72 77 81 83
48 51 53 50 49 49 47 46 46 46 47 48 54 58 56 51 48 47 49 50 49 48 48 49 48 45 43 44 45 48 51 52 55 60 66 70 69 69 71 76 81 84
49 51 53 53 54 55 54 52 51 52 52 54 57 60 57 50 46 47 50 52 53 52 49 49 49 46 44 45 47 50 52 54 57 62 67 70 71 70 70 73 79 83
51 52 54 56 56 57 58 58 58 60 62 63 60 58 55 50 46 48 52 54 55 54 53 52 52 51 48 47 48 50 52 53 58 64 68 70 71 71 71 73 77 82
52 54 56 55 54 54 56 58 60 62 64 64 61 59 56 53 49 50 54 56 56 55 56 57 58 57 54 52 52 53 52 54 61 68 69 70 70 71 72 73 77 81
51 52 53 52 52 54 57 59 60 61 61 60 59 58 56 53 50 50 53 54 54 55 57 61 64 63 60 59 56 55 55 57 63 67 67 68 70 71 72 74 77 81
50 50 51 51 53 55 58 60 59 59 58 58 57 55 52 51 50 51 51 52 54 57 59 63 66 64 64 63 59 56 57 59 62 65 66 67 70 71 72 74 78 80
52 52 52 51 54 56 58 58 58 59 59 59 59 55 52 51 51 53 54 55 57 59 61 65 66 64 63 63 60 57 58 60 61 62 63 65 69 69 69 73 76 78
52 52 51 53 56 58 57 57 57 58 59 60 59 57 55 55 56 57 59 59 60 62 64 66 67 64 62 60 60 59 58 59 61 61 62 66 68 66 65 69 74 76
50 51 53 55 55 54 53 55 56 58 59 60 60 60 59 59 60 63 64 64 66 68 68 66 66 65 62 59 59 58 56 57 60 62 65 68 68 66 67 70 74 75
49 52 54 53 52 51 52 54 56 59 62 62 62 64 63 60 63 67 69 70 71 72 70 68 68 67 64 61 59 57 55 58 62 64 65 67 70 72 72 72 72 72
49 52 52 50 51 53 54 55 58 63 65 64 63 64 64 63 67 71 73 73 73 72 68 67 68 67 66 64 61 57 57 59 62 63 63 67 71 72 68 65 65 66

ECMWFNIL_prec_cthk_006.txt.gz
RH
24 27 29 29 31 34 35 35 33 33 35 35 32 32 35 39 46 53 55 56 55 50 49 50 50 51 54 55 54 57 60 62 65 66 60 55 53 51 48 44 40 39
29 27 27 28 32 36 37 36 32 31 34 36 34 36 39 43 50 56 57 55 52 48 47 49 49 48 49 51 52 55 59 63 67 70 68 63 59 57 55 52 48 45
33 30 29 29 32 37 38 36 33 33 36 38 39 43 46 49 55 56 52 48 46 45 45 45 49 51 52 54 59 62 63 64 66 71 73 72 68 64 62 60 56 53
37 34 32 32 32 34 34 33 36 39 40 41 43 47 50 52 55 52 44 41 42 43 43 43 47 53 54 56 63 69 67 65 68 70 73 74 73 71 70 67 65 62
36 36 36 33 31 30 29 30 37 42 43 43 46 50 51 50 50 48 42 39 40 42 40 39 42 47 49 50 56 64 64 63 67 69 69 71 73 75 74 70 69 66
37 37 36 32 29 28 28 31 37 42 44 45 49 52 51 48 47 45 41 39 40 39 37 38 40 41 44 44 47 51 54 56 60 62 61 62 66 71 73 72 71 70
35 36 34 31 30 29 29 33 37 40 43 46 48 48 47 47 46 43 40 39 40 39 39 40 41 41 42 43 42 43 44 46 49 52 53 55 58 62 65 66 67 68
34 34 33 32 32 32 32 33 34 36 40 42 43 44 44 47 47 43 40 39 39 39 40 41 43 43 42 42 42 42 43 42 43 47 50 53 55 57 59 60 59 59
33 33 33 33 33 34 34 33 33 35 37 39 41 43 43 45 46 44 41 39 38 39 39 41 44 46 45 42 41 43 43 42 41 43 45 48 51 53 55 56 56 57
33 34 35 35 36 37 35 34 35 36 37 39 43 45 44 44 47 47 44 41 40 40 40 40 42 45 47 45 43 44 43 41 40 42 44 47 51 53 54 57 60 63
33 35 36 37 39 39 37 36 37 37 38 41 45 48 48 48 50 52 49 45 43 41 40 41 41 43 46 46 45 45 44 43 41 41 44 47 51 54 56 58 64 69
33 33 34 35 38 40 40 38 37 38 39 41 45 49 50 50 52 53 52 51 48 43 39 40 42 43 45 46 45 45 47 47 45 42 44 46 47 50 52 53 59 68
34 32 33 35 37 40 41 39 38 40 41 42 43 46 49 51 52 52 52 53 53 48 41 40 43 46 48 47 45 45 47 49 50 46 43 44 44 47 51 53 57 65
35 34 34 35 36 39 41 40 41 43 45 45 44 45 49 53 54 54 53 53 55 53 47 44 45 48 50 49 47 47 47 50 53 51 46 44 46 49 53 56 60 67
35 36 36 36 37 39 41 42 44 46 48 49 47 47 50 53 55 55 56 56 59 58 53 49 49 50 52 53 50 49 49 52 55 55 51 47 48 51 53 55 61 68
35 36 37 37 38 40 42 44 46 47 50 52 50 49 50 52 54 56 58 61 63 62 57 54 53 53 54 55 54 53 53 54 56 57 55 51 49 51 52 51 55 61
34 36 38 39 40 43 45 46 48 48 51 53 54 53 52 52 54 58 61 63 63 62 59 56 55 56 56 56 56 57 57 57 58 59 58 55 52 51 51 50 53 57
33 36 39 40 42 44 46 49 50 52 55 58 60 59 57 57 59 62 65 66 65 63 60 55 53 55 56 57 58 59 59 59 60 61 60 57 53 52 52 52 54 56
32 35 36 40 43 46 49 51 54 56 59 62 63 62 62 63 65 66 68 69 66 63 61 57 54 56 57 58 60 62 61 61 61 62 62 57 53 53 53 54 58 60
33 36 37 42 47 49 51 54 57 60 62 63 63 62 62 65 66 66 69 69 64 62 62 59 56 57 58 59 61 63 64 65 65 63 61 58 56 56 55 57 62 62
34 38 41 44 47 49 52 56 59 62 62 61 60 59 59 61 63 63 64 63 61 61 62 59 57 59 59 60 61 63 65 67 67 63 60 58 58 59 58 59 63 63
35 39 42 43 45 49 53 57 59 61 60 59 58 59 59 59 59 59 58 59 60 62 61 58 58 60 59 59 61 65 68 68 65 60 57 57 58 59 60 61 63 65
36 39 42 44 46 50 54 58 60 61 60 59 59 60 60 59 58 58 59 60 62 61 60 60 60 60 61 64 65 66 67 64 60 57 56 56 56 57 60 63 66 69
38 42 45 48 50 54 58 61 62 62 61 62 63 63 63 62 60 60 60 62 63 62 62 62 61 61 65 68 66 62 60 58 57 56 54 55 57 58 60 62 65 66
43 45 49 51 54 59 62 62 61 62 62 63 65 66 65 64 63 63 65 65 66 67 65 63 61 62 65 64 60 56 55 56 57 56 54 55 57 60 60 59 59 62
47 49 52 56 60 61 59 58 59 60 61 62 64 67 67 68 68 68 68 68 68 69 67 63 61 62 61 57 55 55 56 58 59 58 56 57 59 59 57 55 56 58

ECMWFNIL_prec_cthk_009.txt.gz
RH
21 21 21 22 24 26 28 29 28 27 27 27 30 35 38 42 44 45 46 45 43 44 46 47 46 45 43 42 44 48 50 49 48 49 50 51 55 60 64 67 70 71
25 23 23 24 26 29 30 30 28 26 27 31 35 40 44 46 45 43 46 45 44 44 45 43 40 36 34 34 36 39 42 42 41 43 46 45 47 51 53 56 61 65
27 27 26 27 29 31 30 30 28 28 31 36 40 43 47 49 45 43 45 45 44 44 45 41 36 32 32 33 36 37 39 39 38 42 45 45 45 47 47 48 50 54
26 27 28 30 31 31 29 29 30 33 37 40 41 43 48 50 46 42 43 44 44 44 45 43 37 34 35 36 37 38 38 38 39 43 46 47 47 47 48 48 47 50
25 25 28 31 32 30 28 29 33 37 41 42 43 46 48 47 44 42 42 42 43 43 45 45 40 36 38 39 39 39 39 39 41 45 47 48 50 50 51 51 49 50
25 26 28 30 31 29 28 31 35 37 40 41 42 45 45 42 40 41 41 42 42 43 45 46 41 37 38 41 41 41 41 41 43 46 48 49 51 51 51 51 50 51
27 27 29 29 28 27 28 33 36 37 37 39 40 42 41 39 39 40 41 42 42 43 44 44 42 39 39 40 42 43 44 44 45 47 49 52 54 53 51 50 50 50
28 28 28 27 26 26 29 34 36 36 36 36 37 38 38 37 38 40 42 44 45 45 44 43 43 42 41 40 41 43 44 45 46 48 50 53 55 55 54 53 52 51
28 27 26 27 27 28 30 32 34 35 35 35 36 37 37 38 38 41 44 46 47 48 47 47 46 45 43 42 41 42 43 44 45 47 49 52 54 56 58 59 58 56
28 26 25 26 29 29 29 31 34 35 34 35 35 37 38 38 39 41 43 45 48 50 50 49 49 48 46 44 42 42 43 44 45 47 49 52 53 54 57 60 60 57
29 27 26 27 30 31 30 31 33 34 34 35 36 36 37 39 40 42 43 46 49 50 50 50 51 51 50 47 44 44 44 44 45 46 48 51 52 52 54 56 57 55
31 29 28 28 29 31 30 31 32 33 34 35 35 36 37 39 41 43 43 45 48 50 51 51 52 52 51 50 47 45 46 46 46 46 48 51 53 53 53 54 55 55
33 31 29 27 28 29 30 31 32 33 36 36 36 37 38 39 41 43 43 44 46 50 52 53 53 53 51 49 48 48 49 49 47 47 49 52 54 54 54 53 53 53
35 32 30 27 27 29 31 32 33 35 37 39 39 40 40 41 42 43 44 44 46 50 53 55 55 54 52 51 52 55 56 54 50 48 49 52 54 54 54 55 54 54
36 33 32 30 29 29 32 34 36 38 40 42 43 42 42 43 43 45 47 47 48 51 54 55 55 54 54 56 56 56 54 53 53 52 51 52 54 54 55 56 57 58
36 34 34 32 30 30 33 36 39 42 43 45 45 44 45 46 46 47 50 52 52 52 54 55 55 53 55 56 55 53 51 50 52 53 52 52 53 54 55 55 57 59
36 35 34 33 30 31 34 39 41 43 45 46 46 46 47 49 50 51 53 55 56 55 55 57 56 52 53 58 59 58 55 51 52 54 54 53 54 54 54 55 56 59
36 36 36 33 32 34 37 41 43 45 46 47 47 48 49 51 54 56 57 58 60 61 61 62 59 54 55 61 63 64 63 60 59 60 56 53 54 55 55 55 56 61
35 37 37 34 33 36 39 42 44 46 48 49 49 50 51 54 57 60 63 64 65 67 68 67 65 61 63 67 69 70 73 73 69 64 58 56 56 55 54 55 57 62
33 34 35 34 35 37 39 42 45 47 49 51 52 52 54 58 60 64 68 70 71 72 71 69 66 62 62 67 72 75 77 76 71 65 61 60 59 56 54 54 56 59
31 32 32 33 35 37 40 43 46 48 50 52 54 55 57 59 62 65 68 68 71 74 71 65 61 58 56 60 68 74 75 72 68 66 66 65 62 57 54 54 57 59
28 29 31 33 36 39 42 45 46 48 51 53 55 57 60 63 66 66 64 65 68 69 66 60 58 58 58 60 63 65 66 68 67 65 65 63 60 57 55 56 59 61
26 27 30 34 39 42 45 47 48 50 53 54 56 58 62 66 67 64 63 62 63 63 61 61 62 63 63 64 62 58 59 62 62 62 61 59 55 54 55 58 61 61
25 27 31 35 38 42 45 48 50 53 55 56 57 59 61 63 61 58 58 58 58 60 62 63 64 65 63 62 61 57 55 54 54 55 56 54 53 54 55 58 60 59
27 28 31 35 38 42 45 49 52 55 57 58 60 61 61 60 57 56 56 57 59 61 63 62 62 62 61 59 58 56 54 52 50 51 54 54 54 54 56 58 59 59
30 30 32 36 40 45 49 52 54 55 57 59 62 63 61 58 56 57 57 59 61 63 63 62 62 62 61 59 56 55 55 54 52 53 55 55 55 56 57 60 60 60

ECMWFNIL_prec_cthk_012.txt.gz
RH
28 24 19 16 16 17 19 22 25 29 30 29 28 28 30 34 38 42 47 48 45 43 41 40 41 42 42 42 42 42 40 38 36 35 35 36 38 41 44 46 46 46
28 26 22 18 17 17 19 23 27 29 29 28 27 28 32 36 40 44 46 46 46 43 40 40 41 42 43 44 44 44 42 41 40 38 38 39 40 44 47 47 46 47
27 27 25 22 20 20 22 27 30 29 29 29 30 32 35 38 42 45 45 44 44 42 40 40 41 42 44 45 46 46 43 42 43 41 41 41 42 44 47 48 48 49
25 25 24 23 23 24 26 29 30 30 31 32 33 35 38 39 42 44 43 41 41 40 39 40 41 43 44 44 46 48 45 43 44 44 43 43 43 44 47 49 50 51
23 21 22 23 23 25 28 30 31 31 31 33 37 39 40 41 41 41 40 38 39 40 39 40 42 44 44 43 42 44 44 43 44 45 44 43 44 45 48 51 52 52
25 20 20 22 23 26 29 30 31 31 31 35 39 40 40 40 39 38 38 37 38 40 41 42 43 45 44 40 38 39 41 41 43 43 42 43 44 45 48 51 53 53
26 21 20 23 26 28 29 30 30 31 33 37 39 39 38 37 37 37 37 37 39 41 42 43 44 45 45 42 39 37 39 40 42 42 42 42 43 43 46 49 51 53
26 23 22 24 28 29 30 29 28 31 36 38 38 38 37 36 36 37 37 38 41 42 43 44 45 47 48 47 43 39 40 41 41 42 43 43 43 43 45 47 49 51
25 26 26 26 27 28 28 28 29 33 36 38 39 38 36 36 36 37 38 40 42 43 44 46 48 50 52 53 49 44 43 43 42 44 45 45 45 46 46 48 49 50
25 26 28 27 25 25 26 29 32 33 35 36 37 37 36 36 37 38 40 42 44 44 45 48 50 52 55 57 53 47 46 47 46 47 47 47 46 47 49 50 51 51
26 25 27 26 24 24 26 30 32 34 34 35 36 35 35 36 38 40 42 43 44 45 46 48 51 53 55 58 55 52 53 53 52 53 54 51 49 48 49 51 52 53
29 26 25 25 24 25 26 29 33 35 35 35 34 34 35 37 40 42 42 43 44 46 47 49 52 54 56 56 56 58 59 58 57 58 59 58 56 52 50 51 52 52
31 27 25 25 24 26 27 30 33 36 36 34 34 36 37 40 42 44 44 43 44 46 48 51 52 54 55 56 58 60 59 56 58 59 58 58 59 58 56 53 51 52
32 29 26 26 25 27 29 31 34 36 36 36 37 38 39 40 42 45 45 45 45 46 48 51 52 52 54 57 59 60 58 55 57 59 57 54 56 60 60 55 52 53
33 31 29 28 28 29 30 32 34 36 37 38 39 40 40 41 43 45 46 46 46 47 49 51 53 54 55 58 60 62 61 58 58 59 59 58 58 60 62 59 56 55
33 33 31 31 31 31 31 33 36 38 39 40 42 42 43 44 46 48 50 49 48 49 51 53 55 56 58 60 62 63 63 62 61 60 59 60 60 62 63 61 58 54
33 33 33 32 32 32 32 35 38 40 42 44 46 47 48 48 49 51 51 50 50 52 53 55 58 58 59 61 62 64 65 63 62 60 58 60 62 64 64 60 57 55
34 33 34 34 34 34 34 37 40 43 45 47 49 51 51 50 50 51 51 50 52 53 55 58 60 60 61 63 65 67 67 66 65 63 62 64 66 66 64 59 55 54
34 33 34 35 36 36 37 39 42 45 46 48 50 51 51 50 51 51 52 51 52 52 55 60 63 64 66 68 71 71 69 68 69 68 67 68 67 65 65 60 54 53
35 33 35 36 37 39 42 43 45 47 49 50 52 52 51 51 52 52 52 52 52 54 59 64 67 69 71 73 75 75 72 70 71 71 73 73 69 66 65 60 54 52
35 34 35 37 39 41 43 44 47 49 50 52 52 52 52 52 53 52 52 54 56 60 65 70 72 72 72 73 75 74 73 73 72 73 77 75 69 66 64 59 53 53
36 34 34 38 41 42 43 44 46 48 49 51 52 52 52 53 54 55 56 58 62 65 69 73 73 71 68 69 71 68 68 72 72 71 72 70 64 63 63 58 54 54
35 35 35 37 40 40 40 42 45 47 48 49 49 50 52 54 56 59 60 62 65 68 71 71 69 66 65 65 66 62 63 69 70 67 65 61 57 58 59 57 56 55
36 36 37 36 36 36 36 39 43 45 46 47 47 48 51 54 58 60 62 65 67 69 69 66 63 62 63 63 62 60 62 69 69 65 63 60 56 56 57 57 56 52
38 37 38 37 34 33 34 37 41 44 45 47 47 49 52 56 59 61 62 65 68 69 66 62 60 62 65 66 65 62 64 70 70 66 64 60 56 56 58 56 53 51
41 40 39 39 36 33 33 35 40 43 46 47 49 52 54 56 58 61 64 67 69 68 65 61 61 65 68 68 66 64 64 68 68 64 59 55 53 55 56 53 52 53

ECMWFNIL_prec_cthk_015.txt.gz
RH
31 30 29 28 27 26 24 24 24 26 27 29 30 31 31 32 33 35 39 44 46 44 43 43 43 43 43 43 43 45 48 48 47 47 48 46 42 41 43 45 48 51
32 32 31 30 29 27 25 23 23 26 28 30 32 33 31 31 32 34 40 45 44 43 43 44 43 43 44 43 44 47 48 48 48 47 46 44 41 39 40 43 46 50
32 33 32 31 30 28 26 24 23 25 29 32 35 33 31 31 32 36 44 45 44 44 43 42 43 43 44 43 43 46 48 47 46 45 44 41 38 37 38 41 45 48
32 33 33 32 32 31 30 28 25 25 30 34 36 34 31 31 33 39 46 46 45 45 43 42 43 43 44 43 43 45 48 49 48 47 46 42 39 38 38 40 45 47
33 33 32 32 32 32 31 29 26 26 30 34 36 35 32 32 34 40 46 46 45 45 44 43 43 43 43 43 43 44 46 49 49 49 48 45 42 41 40 42 45 48
34 32 31 31 32 32 31 28 26 27 31 33 35 36 34 34 36 41 45 44 43 44 44 44 44 43 42 42 43 44 45 47 48 48 48 47 45 44 43 43 45 48
34 32 30 30 31 32 30 27 26 27 30 31 33 35 35 37 39 41 43 42 41 42 44 45 44 42 41 41 44 47 47 47 48 49 49 49 49 48 47 45 46 49
33 32 30 29 30 31 29 25 24 27 29 30 31 33 37 40 41 41 42 41 40 42 45 46 44 42 41 42 46 49 51 50 50 50 50 51 52 52 53 53 53 54
34 32 31 29 28 28 25 23 23 26 30 30 30 32 37 41 43 41 41 40 41 43 45 46 44 42 42 44 47 51 52 52 52 51 50 50 50 52 56 58 58 59
35 32 31 29 27 26 23 22 24 27 29 30 29 32 37 41 43 42 41 41 42 44 45 44 44 43 43 45 48 51 52 53 55 53 51 51 50 52 56 58 58 60
36 34 31 28 27 27 27 26 27 29 28 28 30 34 38 40 42 42 41 43 44 44 43 44 44 45 45 46 48 50 52 56 59 58 56 56 54 53 56 57 56 59
37 35 33 30 28 29 32 31 30 29 28 27 31 35 39 41 42 41 41 43 44 43 43 45 46 46 46 47 49 51 54 58 61 61 59 59 58 58 58 57 57 59
39 36 35 33 30 31 34 35 32 29 27 28 32 36 39 41 42 42 42 43 43 44 45 46 47 48 48 49 50 52 56 58 60 63 62 61 61 62 62 61 60 61
40 39 37 36 33 31 33 33 31 29 28 30 33 35 37 40 41 42 42 42 43 46 47 47 49 50 50 49 50 54 58 60 62 66 68 66 65 67 67 68 66 65
42 41 39 38 36 32 30 30 29 29 31 33 33 33 35 37 39 41 42 43 45 47 48 49 50 50 49 49 51 56 60 62 66 71 73 71 70 70 72 73 71 68
43 42 40 39 39 34 30 29 28 30 34 36 34 33 33 35 38 43 45 47 47 47 48 50 49 48 47 49 53 57 60 63 67 72 74 73 71 70 70 70 68 66
45 44 42 41 41 38 34 31 29 31 35 37 36 34 33 33 38 44 46 47 47 46 47 47 46 46 47 50 53 56 59 64 68 70 71 71 71 69 68 68 67 67
47 47 45 42 42 42 38 34 33 33 35 37 38 37 34 33 37 41 44 45 46 46 46 45 44 45 47 49 51 54 58 66 71 69 69 74 76 72 70 71 71 70
47 49 47 44 43 44 43 39 36 35 35 36 37 38 37 36 36 37 39 42 45 45 45 44 43 44 45 48 50 52 57 68 75 76 75 80 82 77 73 73 71 68
47 48 47 46 44 45 46 43 38 35 35 37 39 40 38 36 36 36 38 39 42 43 44 44 43 42 43 47 50 53 59 67 76 81 81 82 83 79 75 73 69 63
47 47 47 47 47 46 47 45 41 36 35 37 40 41 38 36 35 37 37 37 39 41 43 43 42 42 44 47 51 56 62 68 75 81 82 80 81 80 77 74 70 65
45 47 47 47 47 47 47 45 43 39 36 37 40 41 40 38 37 37 38 38 38 40 41 42 42 42 44 49 54 60 64 69 73 77 78 77 77 78 78 75 71 67
44 46 47 47 47 47 46 46 43 40 38 37 40 42 41 39 38 39 40 39 38 39 41 42 42 43 46 53 58 60 64 68 70 73 76 77 77 77 74 70 67 64
42 44 45 46 47 47 46 46 43 40 39 39 40 41 41 39 40 42 42 40 38 38 40 42 43 44 48 55 60 60 63 69 72 73 76 78 78 75 69 65 64 63
41 42 42 43 45 46 47 46 44 41 39 40 41 42 41 41 43 45 44 42 40 40 42 44 46 48 52 60 64 59 58 65 71 73 76 77 76 71 65 63 64 63
42 41 41 40 42 46 46 45 45 44 42 41 41 42 43 44 45 46 46 45 45 45 47 49 51 52 57 65 65 56 53 61 70 74 77 79 75 67 61 61 62 61

ECMWFNIL_prec_cthk_018.txt.gz
RH
28 28 27 26 24 23 22 23 23 24 24 23 25 29 33 37 41 46 48 42 39 42 45 45 45 45 43 41 41 42 44 44 44 44 43 42 42 41 40 39 40 41
29 29 29 29 27 25 23 23 23 24 24 24 25 29 32 36 40 46 46 40 38 41 43 43 45 44 42 42 42 43 43 44 44 44 43 43 44 43 42 40 39 41
29 30 31 31 29 28 26 25 25 25 25 25 25 27 30 32 37 44 44 39 38 41 41 42 44 42 41 42 44 43 43 44 44 44 44 44 45 45 44 42 41 41
30 31 32 32 32 31 30 30 28 26 26 25 24 25 29 31 34 41 42 38 38 40 40 41 42 40 40 42 44 43 43 45 46 47 46 45 45 46 46 46 46 45
31 31 33 34 34 34 33 32 30 28 28 27 25 25 28 30 33 37 38 36 37 40 40 41 41 39 39 42 43 42 42 44 47 49 48 47 46 46 47 48 49 50
33 33 34 35 35 35 34 34 32 30 30 29 27 26 27 30 32 35 36 34 35 39 40 40 39 39 40 42 43 42 41 44 47 48 48 48 47 46 47 48 50 52
36 36 35 35 36 35 35 34 33 32 31 31 29 27 28 30 32 33 35 33 34 37 40 40 39 38 40 41 43 43 42 45 48 49 48 47 47 48 48 48 50 52
37 37 37 36 36 36 35 34 33 32 32 31 29 27 29 31 31 32 34 33 34 37 39 39 38 38 39 41 42 43 43 45 49 50 49 49 50 51 51 50 51 52
39 38 37 36 36 35 35 34 33 32 32 31 29 28 30 31 31 31 32 33 35 38 39 39 38 37 39 41 43 43 44 45 49 50 51 53 54 53 53 54 53 54
42 40 39 37 36 35 33 32 31 31 31 31 30 30 31 31 30 31 32 33 36 38 39 38 37 37 38 40 42 43 44 46 48 51 54 55 55 54 56 58 57 58
44 43 40 39 37 35 32 30 28 28 29 28 28 30 30 31 30 29 31 34 36 37 38 37 37 38 38 38 40 43 45 47 49 52 54 56 54 53 55 58 59 61
44 44 42 40 39 37 34 31 28 27 26 25 26 28 29 30 30 27 30 36 37 35 36 36 36 39 39 38 40 42 45 48 50 52 54 55 55 54 56 59 60 61
44 45 45 43 42 40 37 33 30 28 26 24 25 27 27 28 28 26 28 35 38 36 35 35 36 39 40 40 41 43 46 49 51 52 53 54 56 58 61 62 62 64
45 47 48 47 45 43 40 37 33 30 28 27 27 28 28 27 26 25 27 33 37 36 35 35 36 38 41 43 44 45 48 51 53 53 53 54 56 62 66 67 65 65
47 49 49 49 48 45 43 41 37 33 29 28 29 29 29 27 26 25 27 31 35 36 35 35 36 38 42 45 46 48 51 53 54 53 53 52 56 63 68 69 69 66
48 49 49 49 48 46 44 43 41 37 33 30 30 30 28 27 26 25 27 31 35 36 35 34 36 39 43 46 48 50 53 54 54 52 51 51 55 63 69 71 72 67
47 48 49 48 48 47 45 44 43 41 37 32 31 31 29 27 26 26 26 30 34 36 35 35 37 40 44 46 47 50 53 54 54 53 51 51 54 60 66 71 72 68
46 47 48 48 48 47 46 45 44 43 40 35 32 32 31 29 27 26 26 30 34 36 35 35 37 42 45 45 47 50 52 53 52 52 51 52 54 58 63 69 72 72
45 47 47 48 48 48 48 47 45 44 43 39 35 32 32 30 28 27 27 30 32 34 34 35 38 42 44 45 47 50 52 52 51 51 52 54 55 57 62 68 72 75
46 46 47 48 49 49 50 49 46 44 44 43 39 35 32 31 30 30 30 31 31 32 33 35 38 41 43 45 49 51 52 52 51 52 54 57 59 60 64 71 73 75
47 46 47 49 49 50 50 49 48 46 45 45 43 39 35 33 31 31 32 32 33 33 34 35 37 39 42 46 50 51 52 53 53 55 58 60 61 62 68 75 77 76
47 46 47 48 49 49 48 48 49 46 44 45 44 42 39 35 32 32 33 33 34 36 37 35 35 39 44 47 50 50 52 54 54 56 60 61 60 63 71 79 80 78
45 45 46 46 47 47 47 46 47 47 45 45 44 44 43 39 35 33 33 34 35 38 38 36 37 43 46 47 49 50 52 53 53 55 61 65 67 70 73 75 76 77
44 44 45 45 46 45 45 45 47 47 47 46 44 44 45 44 40 36 34 34 35 37 38 39 41 45 45 46 48 50 50 52 52 54 59 67 73 77 76 74 75 78
44 45 45 45 45 44 43 44 45 46 48 48 47 46 47 48 46 41 36 35 35 36 38 41 43 44 43 44 47 49 50 52 54 57 58 63 70 75 75 75 74 74
44 44 45 44 44 43 43 44 45 47 48 49 49 49 50 51 51 47 42 38 37 38 39 41 43 42 42 43 46 49 51 52 57 63 63 62 67 71 70 70 69 68

ECMWFNIL_prec_cthk_021.txt.gz
RH
21 21 20 19 19 19 19 18 18 19 19 19 20 20 21 23 27 31 32 36 40 42 39 37 37 38 38 39 41 41 41 42 43 44 44 45 45 45 44 44 44 45
24 25 25 24 23 22 21 20 20 20 20 20 22 22 21 22 26 29 31 35 39 40 37 36 36 38 40 41 42 43 42 43 44 44 45 45 45 45 45 45 45 44
26 26 27 27 26 25 25 24 23 22 22 22 22 23 22 22 25 28 29 33 37 37 36 35 35 38 41 41 42 43 43 44 45 44 45 45 44 45 46 46 46 46
26 26 27 27 27 27 28 28 26 24 24 23 23 24 24 23 24 26 28 30 34 35 35 35 34 37 41 41 41 43 44 44 45 45 46 45 43 44 46 45 45 47
27 27 27 28 28 28 29 29 28 27 26 25 25 26 26 24 23 25 26 28 31 34 36 35 34 36 40 40 41 43 44 44 45 45 46 45 43 43 44 45 47 47
29 29 29 28 28 29 29 30 30 30 29 28 28 28 28 27 25 25 25 26 30 33 35 35 34 35 39 40 40 42 43 43 44 44 45 45 43 42 43 46 48 48
31 31 30 30 30 30 31 31 31 31 30 30 30 30 30 29 27 26 26 27 29 33 35 35 33 35 38 40 40 41 42 42 42 43 44 45 44 43 43 46 48 49
34 32 31 31 31 31 32 33 32 32 32 32 32 31 30 30 29 27 27 28 30 33 35 35 33 34 38 40 39 39 41 41 41 42 44 45 44 44 45 46 47 49
41 37 34 32 32 32 33 34 34 33 32 32 32 32 31 30 28 27 28 28 29 32 35 35 33 34 38 40 39 39 40 41 41 42 44 44 44 44 45 46 47 48
46 41 37 34 34 34 34 34 34 33 32 31 31 31 31 29 28 28 28 28 28 31 34 35 34 35 38 40 40 39 39 40 40 41 42 43 43 44 45 46 47 47
45 42 39 36 36 36 36 35 34 33 31 30 29 29 28 28 28 27 27 27 27 29 33 35 35 35 37 39 40 39 39 40 40 40 41 42 43 45 46 46 46 46
43 41 39 39 39 38 38 36 35 33 31 29 27 27 26 25 25 25 25 26 27 28 31 34 35 35 36 38 39 39 38 39 40 41 41 41 42 44 45 46 45 44
41 39 39 40 41 40 39 37 35 35 33 31 29 27 26 25 24 24 24 25 26 28 29 32 34 35 35 36 38 38 38 39 40 41 42 42 43 43 45 46 45 44
40 39 39 41 42 42 40 38 37 36 36 35 33 31 29 27 26 26 26 27 27 27 28 29 32 34 34 35 37 37 38 38 40 41 42 43 44 44 44 44 45 46
41 40 41 43 43 42 41 40 39 37 37 38 38 36 34 31 29 28 28 30 30 28 28 28 29 32 34 35 36 36 37 39 40 41 42 44 45 44 43 43 44 47
42 42 42 44 44 42 42 43 42 40 39 40 40 39 37 35 32 29 28 30 30 29 28 26 26 29 33 35 35 35 37 38 40 41 42 44 45 45 44 43 44 47
42 42 43 43 43 42 42 44 44 43 42 41 41 41 40 37 34 31 28 28 29 29 27 25 24 27 32 35 36 36 37 38 40 41 42 44 46 46 45 43 44 46
42 43 43 42 42 42 42 43 45 45 44 43 43 42 42 39 36 33 30 29 29 28 26 24 24 25 30 35 36 37 37 38 40 41 43 45 46 46 45 44 44 45
43 43 42 42 41 41 42 43 44 44 44 44 44 43 43 42 39 35 32 30 29 28 26 24 24 25 29 33 36 37 37 38 39 41 43 46 47 46 45 44 44 45
43 42 41 41 41 41 42 43 42 43 43 45 46 45 44 44 41 38 34 32 30 29 27 25 25 25 29 32 35 36 37 38 40 42 43 45 47 47 45 44 45 45
44 43 42 42 42 42 41 42 42 43 43 44 46 46 45 45 44 40 36 34 32 30 28 28 27 27 28 32 34 36 38 40 41 42 42 44 46 47 46 45 45 45
45 45 44 44 44 44 43 43 43 43 43 44 44 45 46 48 47 43 39 36 34 32 31 30 30 28 27 30 33 36 38 42 44 44 43 43 45 46 47 47 45 45
44 44 45 46 47 47 46 45 45 45 46 45 45 45 46 48 49 47 45 42 38 35 33 33 33 30 28 30 33 35 39 42 45 46 45 44 45 46 47 46 45 46
42 43 45 47 48 48 47 47 47 47 47 47 47 46 46 48 50 51 52 50 44 39 36 35 34 32 31 33 34 36 39 42 45 48 47 46 46 46 47 47 46 48
41 43 44 45 46 46 46 46 47 48 49 49 49 48 48 50 52 54 56 53 50 47 43 38 36 35 34 35 37 38 39 42 45 47 47 47 47 47 48 47 47 49
42 43 44 44 44 43 44 46 47 48 49 49 48 48 49 52 54 55 54 52 52 54 51 43 39 38 37 37 38 39 40 42 45 47 47 47 48 48 48 47 47 48

ECMWFNIL_prec_cthk_024.txt.gz
RH
16 17 17 18 18 18 18 18 18 18 18 18 18 18 18 18 20 23 27 29 33 36 38 39 38 33 34 36 34 35 39 40 40 42 48 51 50 47 46 46 49 51
16 17 18 19 17 17 17 17 18 18 17 18 18 18 18 18 18 20 24 28 31 34 37 39 38 34 34 36 35 36 39 40 40 43 47 49 46 46 46 46 49 51
16 17 19 19 18 17 18 18 18 18 18 17 18 18 19 19 18 18 21 24 27 31 35 38 38 35 34 35 36 36 38 40 40 42 46 46 44 44 45 47 52 53
15 17 19 19 19 21 21 21 21 20 20 19 19 19 20 20 19 18 19 22 25 28 32 36 38 38 36 35 36 37 38 39 39 41 45 47 44 43 43 45 51 54
16 18 19 19 21 23 24 24 24 23 23 23 23 22 22 22 22 21 20 21 24 26 30 33 38 39 37 35 37 39 39 38 38 39 44 48 47 44 42 42 46 50
18 19 20 21 22 24 25 25 25 26 25 25 26 25 24 24 23 23 22 22 24 26 29 31 34 38 37 35 37 39 39 37 36 37 43 48 48 45 42 42 43 45
21 22 22 23 24 24 25 25 26 26 26 27 27 26 26 25 25 24 24 24 25 26 28 29 31 34 36 35 36 38 39 37 35 37 42 46 48 45 42 41 42 43
23 23 24 24 25 25 25 25 25 25 25 26 27 27 27 27 26 26 26 26 26 26 27 28 30 32 34 35 35 36 38 37 35 36 39 42 45 44 41 42 43 43
27 26 25 26 26 26 25 25 24 24 25 25 26 27 27 27 28 28 27 28 27 26 26 27 29 31 33 35 35 35 37 38 35 35 37 39 41 40 39 42 43 42
34 32 30 29 29 28 27 25 25 25 25 25 26 27 27 27 28 29 29 29 28 28 27 26 27 30 32 34 35 34 36 38 37 35 35 37 38 38 39 41 42 42
39 38 36 35 34 32 29 27 26 26 26 25 25 26 27 27 26 27 27 27 27 27 26 25 25 27 30 33 35 34 34 37 37 35 35 36 37 38 38 40 42 42
41 41 40 40 39 36 33 30 28 28 27 26 25 25 26 25 24 24 24 24 25 25 25 24 23 24 26 31 34 35 33 35 37 36 35 35 37 37 37 39 41 42
41 41 41 43 43 39 36 34 32 30 30 30 28 26 26 27 26 24 23 23 24 24 25 24 23 22 23 27 32 35 34 34 36 37 35 35 36 36 36 37 39 40
40 41 41 42 42 40 37 36 35 33 32 33 32 30 29 31 31 29 27 26 25 26 26 26 24 22 22 23 28 32 34 34 35 36 36 34 34 36 36 36 37 38
40 41 41 41 41 39 37 36 37 36 35 34 34 33 34 35 37 36 33 30 28 28 28 28 27 25 23 23 25 27 31 33 35 36 36 35 33 34 36 37 36 37
40 41 41 41 40 38 36 36 38 39 37 35 35 35 36 38 40 40 38 35 32 30 28 28 28 27 26 24 23 25 28 31 34 36 37 36 34 33 35 36 37 37
38 38 40 40 39 37 37 37 39 40 39 38 37 37 38 40 41 41 41 40 37 32 29 28 27 26 26 24 22 22 25 29 32 35 37 37 35 33 33 35 37 38
36 37 38 38 38 38 39 40 41 42 42 41 40 41 41 41 41 42 42 42 41 38 33 29 28 26 24 23 20 19 21 25 29 34 35 36 36 34 33 34 36 38
36 36 36 37 38 39 41 42 43 43 42 41 42 45 45 45 44 45 46 46 44 42 39 33 30 27 25 23 21 19 19 22 26 31 34 35 36 36 35 34 35 37
35 36 36 37 39 40 42 42 42 43 43 43 46 48 48 51 52 50 52 53 48 46 46 40 34 31 28 25 24 22 20 20 23 27 31 35 36 37 37 37 36 37
34 35 36 38 39 41 41 41 41 42 43 44 47 48 49 55 57 54 55 57 52 49 50 46 40 36 32 30 28 26 24 22 23 25 28 32 35 37 38 38 38 38
36 38 39 38 39 40 40 40 39 40 41 44 47 48 50 54 55 55 57 58 55 52 50 48 46 42 37 34 33 31 28 25 23 24 26 28 32 35 38 39 39 39
38 40 40 40 39 39 38 38 39 40 42 44 46 48 50 51 51 55 59 59 56 53 49 48 49 46 40 38 37 35 32 27 24 25 26 27 29 32 35 38 38 38
41 41 42 41 39 38 38 38 40 42 45 46 46 47 49 50 51 55 56 57 57 55 52 51 51 48 44 41 39 38 35 31 28 28 27 27 29 31 32 35 37 38
40 40 39 38 36 36 38 40 43 45 47 48 48 48 50 52 55 56 54 55 56 56 55 56 55 52 48 45 41 40 39 36 33 31 29 29 30 31 32 34 36 39
37 37 37 36 35 36 38 41 44 46 47 48 48 49 51 52 55 56 56 56 56 55 54 54 55 54 53 51 47 45 43 41 40 37 33 32 32 33 35 36 38 41

ECMWFNIL_prec_cthk_027.txt.gz
RH
15 14 14 14 14 15 17 20 22 23 21 21 24 23 20 19 20 25 30 29 27 27 30 32 34 39 40 38 38 40 41 40 39 39 38 40 45 46 46 49 50 51
14 14 14 14 14 14 15 17 20 22 20 19 21 25 25 22 19 20 22 25 25 26 29 31 33 37 40 38 37 39 41 38 37 38 38 39 44 46 47 50 52 53
15 14 13 13 13 14 15 16 18 19 20 19 18 21 25 26 23 19 18 20 22 24 27 28 31 35 38 38 37 38 40 37 34 37 38 39 42 46 48 50 53 55
15 14 14 13 13 14 15 16 17 17 18 19 18 17 21 25 27 24 19 18 20 21 24 26 28 31 35 37 37 38 39 38 35 35 38 39 40 43 48 51 53 55
14 14 14 13 14 16 16 16 17 17 18 18 19 19 19 21 25 26 23 20 20 20 22 23 25 28 31 35 37 39 38 37 37 35 36 39 39 40 46 51 52 53
13 14 14 14 14 16 17 18 17 19 19 19 20 21 21 20 22 25 25 24 23 22 23 25 25 26 29 32 36 39 38 36 39 38 35 37 39 40 44 49 51 52
13 14 14 15 16 17 18 19 19 20 20 19 20 20 21 21 21 23 25 26 26 25 25 26 25 25 28 31 33 38 39 37 39 40 37 35 37 39 42 45 49 51
15 16 17 18 18 19 20 21 22 22 22 21 21 20 20 21 21 22 23 26 28 28 27 28 27 26 27 29 32 35 38 38 37 38 37 35 35 37 38 41 45 47
17 18 19 20 21 22 23 23 24 24 24 23 22 22 21 21 22 22 23 24 27 28 28 27 27 26 25 27 29 31 35 37 36 35 35 35 36 38 37 38 41 43
19 20 20 21 22 23 24 24 25 26 25 24 24 24 24 23 23 23 24 24 25 27 28 27 27 26 25 25 26 28 31 34 36 35 35 35 36 38 38 36 37 38
23 23 24 24 24 24 25 25 25 27 27 26 25 25 26 25 24 24 25 25 24 25 26 27 26 26 25 24 24 25 28 31 34 35 35 35 35 37 38 37 36 35
28 28 29 29 28 28 28 27 27 29 31 29 26 24 24 25 24 23 22 23 23 23 24 24 24 24 23 23 22 23 25 28 32 33 34 34 34 35 37 37 35 34
29 30 32 33 33 32 32 32 31 33 35 34 30 26 24 24 26 24 21 21 21 20 21 21 22 22 21 21 21 21 22 24 27 31 34 34 34 35 36 37 36 34
32 31 33 35 37 37 36 35 35 36 37 38 36 32 29 28 29 29 25 23 23 22 22 21 21 21 22 21 21 20 21 22 24 27 32 35 34 33 35 38 39 36
38 35 35 37 39 39 38 37 38 39 40 41 40 38 36 33 34 36 34 30 28 27 26 25 24 24 23 22 22 22 21 23 24 24 27 33 35 34 34 38 41 39
45 40 38 39 40 41 39 37 38 39 40 41 41 41 40 37 36 40 42 40 37 34 32 31 30 28 26 24 23 22 21 22 25 25 25 27 32 35 35 37 40 42
46 43 40 40 41 41 40 38 39 40 40 40 41 43 43 41 40 42 44 46 46 43 40 37 35 33 31 29 26 24 23 22 23 24 24 24 26 31 34 35 38 43
46 43 41 41 41 41 40 40 40 41 40 40 40 42 43 42 42 42 43 47 50 49 47 45 41 37 34 33 30 27 27 25 23 23 24 23 22 24 29 32 35 39
45 42 41 40 39 39 40 41 41 40 39 39 39 41 42 42 41 41 42 45 48 50 50 49 47 41 37 35 34 31 29 28 27 25 24 24 22 21 23 27 30 34
43 41 40 39 38 38 39 39 39 38 37 37 39 41 43 43 43 44 44 45 46 48 49 49 48 46 42 38 36 36 33 31 29 27 25 25 24 23 22 22 24 28
42 39 38 38 39 38 38 36 36 36 37 39 42 45 45 45 46 46 47 47 47 49 50 49 49 49 46 41 38 37 37 36 34 31 29 27 26 27 26 24 22 23
37 37 37 37 38 37 36 35 35 37 40 43 45 48 49 49 49 49 50 51 50 50 50 49 50 50 48 45 43 41 39 38 37 36 34 31 29 29 30 30 28 25
38 37 37 37 37 37 36 36 38 40 42 43 45 48 50 50 50 51 52 54 53 51 49 48 49 50 49 48 48 47 45 41 39 38 38 36 34 31 31 32 33 33
41 41 40 39 38 38 39 41 43 44 45 45 45 47 50 51 52 51 51 52 52 51 49 46 47 49 50 50 50 49 49 47 45 43 41 40 38 35 34 33 34 38
43 42 42 41 40 41 43 45 46 46 46 46 45 46 48 49 51 51 51 50 50 51 50 48 47 49 51 51 50 50 50 49 49 48 45 43 41 39 37 35 35 41
42 42 43 43 43 44 45 46 45 45 45 44 44 46 48 49 50 50 50 51 50 50 50 49 49 50 51 51 50 51 51 51 51 50 47 44 44 42 40 38 39 43

ECMWFNIL_prec_cthk_030.txt.gz
RH
15 14 13 14 14 14 16 18 19 21 21 21 22 21 20 21 23 24 24 24 23 24 25 26 27 30 34 37 38 38 39 37 35 38 38 37 36 36 37 37 37 43
15 14 13 13 13 13 14 15 16 18 20 20 21 22 22 22 23 24 23 23 24 23 24 25 26 28 30 34 37 38 39 37 35 36 37 37 37 36 37 38 35 39
14 14 14 13 13 12 13 14 14 15 18 20 21 23 26 26 25 25 24 25 24 23 23 23 25 27 29 32 35 38 39 38 36 36 35 35 37 37 38 39 38 39
13 13 13 13 13 13 12 13 13 15 17 20 21 22 25 28 28 27 26 26 25 24 23 21 22 24 27 30 33 36 39 39 37 36 35 35 35 37 38 39 42 42
12 12 13 13 13 13 12 12 13 14 16 18 23 24 24 26 28 29 28 28 27 26 24 23 21 21 24 27 31 34 36 39 40 38 36 35 35 36 38 38 41 44
12 12 12 12 13 13 12 11 12 14 16 18 22 25 26 26 27 29 30 30 30 28 28 26 23 21 22 24 27 30 33 36 40 40 38 36 35 35 37 36 37 41
11 11 12 12 12 13 12 12 13 15 17 19 22 24 26 27 26 26 28 30 30 29 29 28 25 23 22 22 24 26 29 32 37 40 40 38 36 35 36 36 36 37
11 11 12 11 12 13 14 14 16 17 19 22 25 26 27 27 26 25 26 28 29 29 28 27 27 26 25 25 24 24 25 28 32 37 39 39 37 36 36 35 35 35
12 11 11 12 13 15 17 18 19 21 23 25 28 29 29 28 27 26 25 26 28 28 27 26 26 27 27 27 27 25 24 25 28 32 37 39 38 36 35 35 35 35
14 14 14 15 16 18 20 21 22 23 25 27 29 31 32 30 29 28 27 26 25 26 26 25 24 26 27 28 28 27 25 24 25 27 31 35 37 36 35 33 33 34
15 17 18 18 19 20 21 23 24 25 26 27 30 31 31 31 31 29 28 26 24 24 24 24 23 24 26 27 28 28 27 26 24 24 26 29 33 35 34 33 32 33
18 19 21 21 21 22 23 24 26 26 27 28 30 31 31 31 31 29 27 25 24 23 23 23 22 23 24 25 26 27 27 25 23 22 22 24 27 31 33 34 34 33
21 20 21 22 22 23 24 26 27 28 29 31 31 30 31 30 29 28 25 24 22 21 20 21 21 22 22 22 23 23 24 23 21 21 20 21 23 26 30 33 34 34
26 23 23 24 23 24 26 27 29 30 32 34 33 32 32 31 29 28 27 25 24 22 21 22 22 22 23 23 22 22 23 23 22 20 20 20 21 22 26 29 32 34
31 27 27 28 27 27 28 29 31 33 34 36 35 34 33 32 32 32 31 29 28 27 26 25 26 25 26 25 25 23 23 24 24 23 22 23 23 23 24 26 27 29
35 33 33 34 33 31 31 32 34 37 38 39 39 38 37 36 36 37 37 35 34 32 31 31 31 31 30 29 29 28 27 27 28 26 25 26 25 26 26 27 27 26
40 39 39 40 39 36 34 35 37 39 41 42 43 42 41 40 39 40 40 39 38 37 35 35 35 35 34 33 33 33 33 32 32 31 31 30 29 28 27 27 27 26
41 43 44 44 44 42 38 36 38 40 41 42 42 43 43 41 40 41 41 40 40 39 39 39 38 37 36 36 36 35 35 36 36 36 36 35 33 31 29 28 27 26
42 44 45 46 47 47 43 39 39 40 41 41 40 41 42 42 40 40 41 40 39 39 40 41 41 39 38 38 39 39 39 39 38 37 37 37 37 36 34 33 31 30
38 44 46 48 49 49 46 43 40 39 39 39 40 40 40 40 40 39 39 39 38 37 38 41 42 42 42 41 41 42 43 42 41 39 36 35 36 38 39 38 36 35
35 41 45 47 48 49 47 43 41 39 38 39 40 40 40 39 39 39 39 38 38 38 39 40 41 43 45 44 44 44 45 45 44 44 42 39 38 39 40 41 40 39
34 39 42 44 45 46 44 42 40 40 40 40 41 41 42 40 39 39 39 40 40 40 40 39 40 43 45 46 46 48 48 47 46 47 46 44 41 41 41 41 42 43
34 37 40 41 41 41 41 40 41 42 43 44 44 44 44 42 40 40 39 40 40 41 41 40 42 44 45 46 47 48 49 49 49 50 49 45 43 42 41 41 41 42
35 36 38 40 40 41 42 43 43 44 45 46 46 45 45 43 42 42 41 42 42 42 43 44 45 46 47 47 48 49 51 51 51 52 51 48 46 46 44 42 41 41
36 38 40 42 43 45 46 46 45 45 47 47 47 47 46 46 45 45 45 45 46 46 47 47 47 47 48 48 49 52 53 52 53 53 52 50 50 50 47 44 43 42
37 39 42 45 46 47 47 47 46 46 47 48 48 48 48 47 46 46 47 48 49 49 49 49 48 49 49 49 49 52 54 54 54 54 53 52 54 54 51 49 47 47

ECMWFNIL_prec_cthk_033.txt.gz
RH
15 14 13 13 12 11 11 11 13 14 16 19 20 19 19 18 19 20 22 24 26 26 26 25 26 27 31 34 35 35 36 36 35 35 36 36 34 35 35 36 37 38
14 14 13 12 12 11 11 12 12 14 15 17 18 19 19 19 19 18 19 21 23 25 26 26 26 27 28 30 33 35 35 35 35 34 34 35 34 34 35 35 36 37
13 13 13 12 11 11 11 12 13 14 15 16 17 19 19 19 19 18 19 19 21 22 23 25 26 26 26 27 30 33 34 34 35 35 34 34 34 34 34 34 35 37
13 13 13 12 11 11 12 13 14 14 16 16 17 18 18 19 19 19 19 20 20 20 20 21 22 23 24 25 26 29 32 34 35 36 35 34 34 33 34 35 35 35
12 12 12 12 12 12 13 13 14 14 14 15 15 16 18 19 20 20 22 22 21 21 21 21 21 20 21 22 23 25 28 31 34 35 36 36 36 34 34 35 34 35
13 13 12 12 12 12 13 13 13 14 13 13 13 14 16 18 20 22 23 23 24 25 25 24 24 23 22 21 21 22 24 27 31 33 34 35 37 37 36 36 35 35
15 13 13 13 12 12 12 12 13 13 12 12 12 14 15 18 21 23 25 26 26 26 26 26 25 25 24 23 22 22 23 25 27 30 32 33 35 37 37 37 37 35
15 14 14 13 13 13 12 12 12 12 12 13 14 15 17 20 23 25 27 28 28 27 26 26 25 25 25 24 23 23 23 24 26 27 29 31 33 35 36 37 38 37
17 16 15 15 14 14 13 12 13 14 15 15 16 17 19 21 23 26 27 28 29 29 28 26 25 24 24 23 23 23 23 24 25 26 27 28 30 32 33 35 36 37
18 17 16 16 15 14 14 14 15 17 18 18 18 20 21 22 24 26 29 29 28 28 28 26 24 23 23 23 22 23 23 23 24 25 26 26 27 28 30 32 33 34
18 18 18 17 17 16 17 17 18 20 21 22 21 22 23 24 25 27 29 30 28 25 25 24 23 22 21 21 21 21 21 21 22 22 23 23 23 24 26 28 29 31
20 20 21 21 20 20 20 20 21 22 24 24 24 24 25 26 26 27 28 28 27 25 24 23 22 22 21 20 19 19 19 19 18 19 20 20 20 20 21 22 24 26
22 22 22 22 21 21 21 22 23 24 25 25 25 26 27 27 27 27 28 26 25 25 23 21 20 20 20 19 19 19 18 18 17 17 18 19 19 19 19 20 21 22
25 23 21 21 21 20 21 22 24 25 26 26 27 27 29 28 27 27 26 25 24 23 22 22 22 22 22 22 21 21 21 21 20 20 20 20 21 21 21 21 21 21
30 26 24 23 22 21 21 23 24 26 26 28 28 28 29 29 27 27 26 25 24 24 25 26 27 27 26 27 26 27 27 27 27 26 26 25 25 25 25 24 23 23
35 31 27 25 24 23 22 23 25 26 27 29 29 29 30 29 28 28 27 26 27 29 29 30 30 29 30 30 30 30 31 32 33 32 32 31 30 30 30 29 28 27
39 36 32 28 25 24 24 25 26 27 28 29 30 31 31 30 30 30 29 29 31 32 32 31 31 31 32 33 33 33 34 34 34 35 35 35 35 34 34 34 33 33
44 43 40 36 31 30 30 31 31 31 31 32 33 34 33 33 32 33 32 33 34 33 32 32 31 32 34 35 36 36 36 36 37 37 38 37 37 37 37 37 38 37
43 44 43 43 40 38 36 36 37 37 35 34 36 38 38 36 34 33 33 35 35 34 32 32 32 32 34 37 38 40 41 41 41 41 40 40 40 40 41 41 41 40
40 40 40 42 44 45 43 42 43 43 40 38 39 41 42 40 37 35 33 33 33 33 32 32 32 33 35 38 40 42 45 45 45 45 44 43 44 44 45 45 44 43
37 37 36 37 41 47 49 49 48 48 46 43 42 42 41 38 38 36 34 32 32 34 34 33 32 34 36 39 41 44 47 48 49 49 48 48 48 48 48 48 48 48
37 37 36 35 38 44 49 51 51 51 49 47 43 41 39 38 38 38 37 35 35 35 35 33 33 36 38 40 43 47 49 51 52 53 52 52 51 51 52 52 53 53
38 37 36 35 37 42 45 48 49 50 50 47 43 40 39 39 39 39 40 39 38 37 36 35 36 38 40 42 45 48 50 52 53 54 55 55 55 56 56 56 56 56
38 37 36 36 37 39 41 43 44 44 44 43 40 40 40 41 42 42 41 40 39 38 37 37 38 41 42 43 46 48 50 52 54 55 56 56 57 59 60 60 59 58
37 37 36 36 36 37 38 39 39 39 40 40 41 42 43 43 43 43 42 41 40 40 40 40 41 43 44 45 47 50 52 55 57 57 57 58 60 61 61 61 59 59
34 35 35 36 38 40 40 41 41 41 41 41 42 43 43 43 43 43 43 42 42 41 41 41 42 45 47 49 50 52 53 55 56 56 56 58 61 61 61 60 59 59

ECMWFNIL_prec_cthk_036.txt.gz
RH
22 22 21 20 20 18 18 17 16 16 16 15 14 14 13 14 18 22 26 28 27 27 26 25 25 27 30 34 35 35 36 37 37 37 37 37 37 38 37 36 36 37
22 21 20 20 20 19 18 17 16 15 15 14 14 13 14 15 17 21 24 25 26 27 27 27 26 25 27 31 34 34 35 36 38 38 38 37 37 37 37 36 36 36
22 21 20 19 18 18 17 17 17 16 15 14 13 13 15 15 16 18 20 21 23 25 26 25 25 24 25 27 31 33 33 33 36 37 38 38 38 38 37 36 35 35
23 22 20 18 17 17 17 17 17 16 15 14 12 13 14 15 15 15 16 18 19 20 22 22 22 22 23 24 26 30 32 31 33 35 37 37 38 39 40 39 37 35
23 22 20 18 17 17 17 16 15 14 13 12 11 12 13 14 14 14 14 15 16 17 18 19 21 21 21 21 22 25 28 29 30 32 34 36 37 38 40 41 40 37
22 22 20 19 17 16 15 14 13 12 11 11 11 11 12 14 15 15 15 16 17 17 19 19 20 21 21 21 21 22 24 26 28 30 31 33 35 36 38 40 41 40
22 21 20 19 18 17 16 13 12 12 11 11 11 11 12 14 16 18 18 19 20 21 21 21 22 22 22 22 22 22 22 24 26 28 30 31 32 34 36 38 40 40
21 19 19 18 19 19 18 16 14 13 12 12 12 12 12 14 16 19 21 22 23 23 23 23 22 23 23 22 22 22 22 23 24 26 28 30 31 32 33 35 37 38
19 19 18 18 20 20 20 18 16 14 13 13 14 14 14 16 18 20 22 23 23 23 23 23 23 23 23 23 23 23 23 23 23 25 26 28 29 30 31 32 33 34
20 18 18 19 20 20 20 19 17 16 16 16 17 17 17 17 18 20 21 23 23 23 22 22 22 22 22 23 23 23 23 23 23 23 24 25 26 27 28 28 30 31
20 18 18 18 18 19 18 18 18 18 19 20 20 20 20 19 19 20 21 22 22 22 21 21 20 20 21 21 21 21 22 22 22 22 22 21 21 22 23 24 25 26
20 19 17 17 17 17 16 17 18 20 21 22 22 22 22 22 22 22 21 21 20 20 20 20 20 20 20 19 19 19 20 20 20 19 19 18 18 18 18 20 21 22
21 19 17 17 17 16 17 18 19 21 23 23 24 25 26 26 25 24 22 22 20 20 19 20 20 20 20 19 19 19 19 19 19 19 19 19 19 18 18 19 19 20
22 20 19 18 18 18 19 20 21 23 24 25 26 27 28 28 26 25 24 23 22 21 20 20 20 20 19 20 20 21 21 22 23 24 24 24 23 23 23 23 23 23
24 23 21 21 22 23 24 24 24 25 26 27 27 29 29 28 28 26 24 24 23 22 21 21 21 21 21 22 23 25 26 27 29 30 30 29 29 28 28 28 28 28
30 28 26 25 25 25 26 26 27 28 29 29 28 29 29 29 29 28 26 24 23 21 21 22 23 24 25 26 28 29 30 32 33 34 35 35 35 35 35 35 34 34
36 35 33 32 30 29 28 27 27 29 31 31 30 29 30 30 30 29 27 24 22 21 23 24 25 26 26 28 29 30 32 34 36 37 39 39 40 41 41 42 42 42
39 39 38 37 35 34 32 30 28 28 30 33 33 31 31 31 32 30 27 25 23 22 25 26 26 26 27 30 31 32 34 36 38 41 42 43 44 44 45 46 47 47
43 43 42 41 39 38 36 34 32 30 30 33 35 34 33 32 33 31 28 25 24 24 26 27 26 27 29 31 32 34 36 39 41 44 45 46 47 48 49 50 49 50
47 47 46 45 44 42 40 37 37 36 35 35 36 37 36 35 34 32 30 27 26 27 28 28 27 28 30 33 35 37 40 43 45 46 47 48 49 50 51 52 52 51
46 46 46 45 45 45 44 42 41 41 41 41 40 40 38 37 37 35 33 31 30 30 31 30 30 31 34 37 39 42 44 46 47 48 48 49 50 50 51 52 52 51
44 44 44 43 42 42 43 44 45 46 47 47 46 44 42 41 41 40 38 35 34 34 34 32 33 36 39 40 42 45 47 48 48 48 48 48 48 49 49 49 49 50
42 42 41 41 40 39 40 43 47 51 52 51 51 49 46 44 43 43 40 38 37 37 36 35 37 40 42 43 45 47 49 50 50 49 49 49 49 49 48 49 52 54
41 42 42 40 38 36 36 38 46 51 54 53 53 52 49 46 44 42 40 38 37 37 38 39 41 43 44 45 47 49 50 50 50 50 50 49 50 50 51 53 55 57
40 41 41 40 39 37 35 36 42 50 53 53 53 52 50 47 44 41 39 39 39 39 40 41 42 44 45 46 48 49 50 50 50 49 49 50 51 53 55 56 57 58
40 40 40 40 40 40 37 36 38 44 47 48 49 49 47 44 41 40 40 42 41 41 41 41 41 43 44 45 46 47 47 48 48 47 49 51 54 55 55 56 57 59

ECMWFNIL_prec_cthk_039.txt.gz
RH
28 28 27 25 24 23 22 22 22 22 23 23 23 22 22 22 22 22 22 23 25 26 27 27 28 29 31 33 35 35 37 39 39 38 38 38 39 39 39 39 39 40
27 27 27 26 25 23 22 21 21 21 21 22 22 22 22 22 22 21 21 22 24 25 27 27 26 25 27 30 33 35 36 38 39 40 40 40 40 40 40 39 38 38
27 27 26 25 24 23 22 22 22 21 21 21 21 21 21 21 21 19 19 21 22 23 25 27 26 24 24 26 30 32 33 35 37 38 39 40 40 42 42 42 41 40
27 26 25 24 23 23 22 22 22 21 21 21 20 19 19 20 20 17 17 19 20 21 22 24 26 25 23 23 26 28 29 30 33 35 36 37 39 41 42 44 44 42
26 26 25 24 24 23 23 22 21 21 21 20 19 19 18 19 19 17 16 16 18 18 19 21 23 24 23 23 23 25 26 27 28 30 32 34 37 38 40 42 43 44
26 26 25 24 23 24 23 21 19 19 19 19 19 19 18 18 18 17 15 14 15 16 17 19 21 22 23 23 23 24 25 27 28 28 30 31 33 35 37 40 41 42
25 24 24 24 23 23 22 20 19 18 18 18 19 19 17 17 16 15 14 14 14 16 17 18 19 21 22 22 23 24 25 27 28 29 30 30 32 33 35 37 39 40
24 23 23 22 22 22 21 19 18 18 18 19 19 17 16 15 14 14 14 14 15 18 19 19 20 20 21 21 22 22 24 25 26 27 28 30 31 32 33 35 37 38
23 23 23 22 21 21 19 18 17 17 17 18 17 16 15 14 13 14 15 17 18 20 22 23 22 22 22 22 23 23 23 24 24 25 26 27 29 30 31 32 34 34
24 23 23 22 21 21 19 17 16 16 16 16 15 15 14 13 14 15 18 20 21 22 23 23 23 23 23 23 23 24 24 24 24 24 25 25 26 28 28 29 29 30
24 23 22 22 22 21 20 18 17 17 15 14 14 14 13 14 15 17 19 21 22 22 23 23 23 23 23 21 22 22 22 23 23 23 24 24 24 24 25 25 25 26
23 23 22 21 22 22 20 19 19 17 15 14 14 14 15 16 17 18 19 19 20 21 22 23 23 22 21 20 20 20 20 20 20 20 21 20 20 20 20 21 22 22
23 22 22 22 21 21 20 20 20 18 16 15 15 17 18 19 19 19 18 18 19 21 21 22 22 21 20 19 18 17 17 17 17 17 17 18 18 18 18 19 19 20
22 22 22 21 21 20 21 21 21 20 18 18 18 19 19 20 21 21 19 19 20 21 21 21 21 21 19 18 16 16 16 16 16 17 18 19 19 20 20 21 21 22
21 22 22 22 21 21 21 21 21 21 22 22 22 21 20 21 22 22 22 22 22 22 22 22 22 20 18 17 16 16 17 18 19 21 22 22 23 23 24 25 26 26
21 21 22 22 22 21 21 21 22 23 25 25 25 24 23 23 24 25 26 25 24 23 23 22 21 19 18 17 17 18 20 22 24 25 26 27 27 28 28 28 30 31
22 21 21 21 21 22 22 22 24 26 28 28 29 29 26 25 26 27 28 27 26 24 23 22 20 18 18 18 20 22 25 28 29 30 31 31 32 32 32 33 36 38
27 25 24 23 23 24 25 26 28 29 30 31 32 31 29 28 28 29 29 28 28 26 24 22 20 19 20 22 25 27 29 30 32 34 34 35 35 35 36 39 42 45
34 33 32 31 30 30 30 30 31 32 32 33 33 32 32 31 30 30 29 29 29 27 24 23 23 22 23 25 27 28 29 31 34 35 36 36 38 39 42 45 49 51
41 41 42 42 41 39 37 35 34 33 33 34 34 34 34 33 32 31 30 29 29 28 26 26 26 25 26 27 27 28 29 32 34 36 38 39 42 44 46 50 52 54
43 44 45 46 45 45 43 41 38 36 34 34 33 33 34 35 34 33 31 31 30 28 28 28 28 26 26 27 28 28 30 34 37 40 42 44 46 47 49 52 54 54
45 46 46 46 46 45 45 44 42 41 39 37 34 33 32 35 37 36 33 32 31 29 29 30 29 27 27 28 29 31 34 37 41 43 45 47 48 48 50 52 53 54
47 47 47 47 46 45 44 44 44 44 43 42 40 37 35 36 39 39 36 35 33 31 30 31 30 29 30 32 34 36 37 40 42 44 46 47 48 48 48 50 51 52
45 46 46 46 45 44 43 42 43 44 45 44 43 43 42 42 42 42 40 39 37 35 33 33 33 33 34 36 37 38 40 41 42 43 45 46 46 47 48 48 49 49
44 45 45 45 45 44 42 40 40 41 43 45 45 46 48 48 47 45 44 43 43 41 38 36 36 37 39 39 40 41 41 42 42 42 43 44 46 47 46 46 47 49
43 44 45 45 46 46 45 42 40 39 41 44 47 50 52 53 53 51 48 47 46 46 42 39 37 39 40 41 42 43 42 42 42 41 42 44 45 45 45 46 48 51

ECMWFNIL_prec_cthk_042.txt.gz
RH
30 30 29 27 26 25 27 26 25 24 25 26 26 25 24 25 26 25 26 27 27 27 28 29 29 31 32 33 35 37 39 41 43 42 40 40 41 41 42 42 42 44
29 29 28 27 25 25 26 26 25 24 24 25 25 24 24 24 24 25 26 27 27 27 28 29 28 29 30 31 32 33 36 40 42 43 43 42 42 43 43 44 44 45
28 28 27 26 24 23 23 24 25 24 23 24 24 24 24 24 25 26 26 26 25 25 26 27 26 26 27 29 29 29 32 36 39 41 42 42 43 43 44 45 45 45
26 27 26 25 24 23 23 24 23 23 23 23 23 24 25 26 26 26 26 24 23 23 23 24 25 24 25 26 27 26 28 31 35 37 39 40 41 42 43 43 44 44
25 26 26 25 25 24 24 24 23 22 22 22 22 24 25 26 26 25 24 21 20 21 21 21 22 22 23 24 25 26 27 29 31 33 35 36 38 40 41 42 42 42
25 25 26 26 25 25 25 24 23 22 22 22 22 23 24 25 25 23 21 19 18 18 19 18 18 20 22 24 24 26 28 29 30 31 32 34 35 37 38 40 40 40
25 25 25 25 25 25 24 23 24 23 23 23 23 23 23 24 23 22 20 18 17 16 17 17 16 18 22 24 24 25 27 30 30 30 31 32 34 35 35 37 38 39
26 25 24 25 24 24 23 23 23 23 23 24 23 22 22 22 21 20 19 17 16 15 15 16 16 18 22 25 25 25 26 29 30 31 31 31 33 34 34 35 36 37
26 26 25 24 24 23 22 22 21 22 22 23 22 21 21 19 19 18 18 17 15 15 16 17 18 20 23 25 25 25 26 26 28 30 30 31 31 32 32 32 34 35
26 25 25 24 23 22 22 21 21 21 21 20 20 20 19 17 17 17 16 15 14 15 16 18 20 22 23 24 24 24 24 24 25 26 28 29 29 29 29 30 31 31
26 25 25 23 22 22 21 21 20 20 19 19 19 18 17 16 16 16 15 15 14 15 17 19 21 22 23 23 24 24 24 24 24 24 26 26 27 27 28 29 28 27
27 25 24 23 22 22 21 21 20 19 18 17 18 17 17 16 15 15 14 14 14 16 18 19 21 22 22 23 24 24 23 24 24 24 25 25 25 26 26 26 25 24
26 25 24 23 23 22 21 20 20 19 18 17 17 17 17 16 15 15 14 15 16 17 18 20 21 22 22 22 22 22 22 22 21 22 22 23 23 23 23 22 21 21
25 25 24 24 23 22 22 21 20 19 18 17 17 17 16 15 15 15 16 16 18 18 18 20 21 22 22 21 21 20 20 19 18 19 19 20 20 19 19 19 18 19
25 24 24 23 23 23 22 21 20 20 18 18 18 17 15 15 16 18 19 19 19 19 20 21 22 22 21 20 20 18 18 16 16 16 16 17 17 17 18 18 19 20
26 24 23 23 22 22 21 21 20 20 19 19 18 17 17 17 19 20 21 21 20 21 22 23 23 22 21 19 18 17 16 15 14 15 16 17 18 18 19 20 22 23
28 25 22 22 22 22 22 21 21 20 20 20 18 18 18 20 21 22 21 21 22 23 24 25 24 22 21 19 17 16 16 15 15 16 17 18 20 22 23 24 25 27
28 25 23 21 21 21 21 21 21 21 21 20 19 19 21 22 23 23 22 23 23 25 26 26 24 23 21 20 18 16 16 16 17 18 20 22 24 25 26 28 30 32
27 25 23 21 20 20 20 21 21 21 21 20 20 21 22 24 25 25 25 26 26 27 27 27 25 24 23 21 19 17 17 17 20 22 24 26 28 28 30 31 34 36
27 26 24 22 20 19 20 20 21 21 21 21 22 24 26 27 27 27 27 27 28 28 28 28 27 26 25 22 20 18 19 21 24 27 29 30 31 32 32 33 35 38
30 29 28 26 24 22 21 21 20 21 22 24 26 29 30 30 29 29 29 28 29 29 29 28 27 27 26 24 22 21 22 26 29 31 32 33 34 34 34 35 38 41
34 33 32 31 29 28 27 26 25 25 26 28 30 32 33 34 33 33 32 30 30 31 30 29 28 28 28 25 24 24 26 29 32 32 33 34 35 35 36 38 42 46
37 37 37 36 36 36 36 36 37 36 37 36 36 36 36 36 36 36 35 34 33 32 31 30 29 28 29 28 28 28 29 30 31 32 32 34 35 36 38 42 45 49
38 39 40 41 43 44 45 45 45 46 46 45 44 42 40 38 37 37 37 37 36 35 34 33 32 30 31 32 32 32 31 30 31 32 33 35 37 40 42 46 48 50
40 41 44 45 47 47 47 47 48 47 47 48 46 45 44 42 39 37 36 36 37 38 39 39 37 35 36 37 37 36 35 34 34 34 35 38 41 43 46 49 51 51
40 43 45 47 47 47 47 47 46 46 46 46 46 45 45 45 43 41 39 37 37 40 42 42 41 39 39 41 41 40 39 39 38 37 38 40 43 45 48 50 51 51

ECMWFNIL_prec_cthk_045.txt.gz
RH
30 30 29 28 28 28 26 24 23 24 24 24 24 25 26 26 26 27 28 30 32 32 32 33 34 34 35 36 36 36 37 38 40 41 42 41 40 40 40 40 41 42
30 30 29 28 27 27 26 25 24 24 24 25 24 25 26 26 26 27 28 29 30 30 30 30 32 33 34 35 35 36 37 38 40 41 43 43 42 41 41 41 41 42
30 30 30 29 27 26 26 25 25 25 25 25 25 25 25 26 26 26 27 27 27 27 27 27 28 30 31 32 32 33 34 36 38 40 42 44 44 43 43 43 42 42
29 30 30 29 28 27 26 25 25 25 26 26 25 25 25 26 26 26 26 25 25 25 25 25 25 26 28 30 31 31 32 32 34 35 38 41 43 43 43 43 43 42
28 29 29 29 28 27 26 25 25 25 25 25 25 25 25 25 26 26 25 24 24 24 23 22 22 23 25 27 29 30 30 31 31 32 34 36 39 40 41 42 42 42
27 27 28 28 28 27 26 24 23 23 23 24 24 24 24 25 25 25 25 25 25 24 21 19 20 21 22 25 28 29 30 30 30 31 32 33 35 36 37 39 39 40
26 26 27 28 28 27 26 24 23 22 22 23 23 23 23 24 24 24 26 26 25 23 20 18 18 19 20 22 26 29 30 30 30 31 32 32 33 34 35 36 37 38
26 26 26 26 27 27 26 24 23 22 22 22 22 23 23 24 24 25 26 25 24 21 18 17 17 17 18 20 24 28 30 31 31 31 32 32 32 33 34 35 36 37
25 25 25 25 25 25 25 24 23 22 22 22 21 22 23 24 25 25 25 24 21 19 16 15 15 16 17 18 22 27 31 31 31 32 32 31 31 32 32 33 34 34
25 25 25 25 24 24 24 24 23 23 22 22 22 22 22 22 23 24 23 22 20 17 15 14 14 15 17 19 22 27 29 29 30 31 31 30 29 29 30 31 32 32
25 25 25 24 24 23 23 23 23 23 22 21 22 22 21 21 21 22 21 19 18 16 15 14 14 16 19 21 23 26 28 28 28 28 29 28 28 29 29 29 30 29
25 24 24 24 23 23 22 22 23 23 21 21 20 20 19 19 19 19 18 17 16 15 14 14 15 17 20 22 23 25 26 26 26 25 25 25 26 27 27 27 27 26
25 24 23 23 23 22 22 22 22 22 21 20 20 20 19 18 17 16 15 15 14 14 13 13 15 18 21 22 22 23 24 24 23 23 23 23 24 24 25 25 24 24
24 24 23 23 23 22 22 22 22 22 22 21 20 20 19 18 16 15 14 14 14 13 12 13 16 19 21 22 22 22 22 22 21 21 21 22 22 22 23 22 21 21
24 24 24 23 23 23 22 22 22 22 22 21 20 19 19 18 16 15 14 14 13 12 12 15 18 20 21 21 21 21 21 21 20 21 21 21 21 21 20 19 17 17
24 24 24 24 24 23 23 23 22 22 22 21 20 19 19 18 17 16 14 13 12 12 13 16 19 20 20 20 21 21 21 20 19 19 19 19 18 17 17 16 15 16
25 25 25 24 24 23 23 23 23 22 22 21 20 20 20 19 17 16 14 13 13 13 15 18 19 20 20 20 21 21 21 20 19 18 17 16 15 15 15 15 15 17
27 27 26 25 24 23 23 23 23 23 22 21 20 20 20 20 19 18 15 14 15 16 18 20 20 19 19 20 21 21 21 20 19 18 16 15 14 14 15 16 18 19
27 28 28 26 25 23 23 23 22 22 21 21 20 20 21 21 21 20 18 17 18 19 21 22 21 20 19 20 20 21 21 21 20 18 16 15 15 16 17 19 21 22
28 29 28 28 26 24 23 22 21 20 20 20 20 20 21 21 22 21 21 20 22 22 23 24 23 22 21 21 21 21 21 21 20 18 17 16 17 18 20 22 24 25
28 29 29 28 27 25 22 20 20 19 20 20 20 20 21 21 21 22 23 24 25 25 26 26 25 24 24 24 23 22 22 22 21 20 18 18 19 21 23 25 26 28
27 28 28 27 26 24 21 19 19 19 19 19 20 20 21 21 21 22 24 27 28 29 29 28 26 26 26 26 26 25 25 24 23 21 19 20 22 24 26 28 29 30
27 26 26 25 24 22 19 18 18 18 18 19 20 20 21 21 21 23 26 29 30 31 32 30 28 27 27 27 28 28 28 28 25 22 21 22 24 27 29 30 31 31
28 27 26 25 24 22 21 19 19 19 18 19 19 20 21 21 22 25 29 31 32 33 33 32 31 30 28 28 30 31 31 31 28 26 25 25 27 29 30 31 31 31
32 30 28 26 26 25 25 24 24 23 23 23 23 23 23 24 25 28 31 33 34 35 35 34 34 34 31 31 32 33 34 33 33 32 30 29 30 32 32 32 33 33
34 33 32 30 29 29 28 29 29 29 30 30 31 31 32 32 33 34 35 36 36 37 37 37 37 37 35 34 34 35 35 36 37 37 35 33 33 34 34 35 36 37

ECMWFNIL_prec_cthk_048.txt.gz
RH
30 30 29 28 27 26 26 25 25 25 26 25 24 22 23 25 29 32 30 30 32 32 31 32 33 32 32 33 34 35 35 36 38 39 40 41 42 43 44 45 45 45
30 30 30 30 30 30 28 26 25 25 25 25 24 23 22 24 27 30 30 30 32 33 33 33 34 34 34 34 34 35 36 36 37 37 38 40 41 42 43 43 43 43
30 30 30 31 31 30 29 26 25 24 25 25 24 23 22 23 26 29 31 31 32 33 33 34 35 35 34 35 34 35 37 37 36 37 37 39 41 43 43 44 45 45
29 30 30 30 31 30 29 28 25 24 25 25 23 22 22 23 25 28 30 30 30 32 31 31 32 32 32 32 32 33 34 33 34 37 39 40 41 42 43 44 46 48
28 29 29 30 31 31 29 28 26 25 25 24 23 22 22 23 24 26 29 29 30 30 30 28 28 28 29 29 29 30 30 31 32 33 35 36 36 37 39 40 41 42
28 28 29 30 30 30 30 28 26 26 25 24 24 23 23 23 24 25 27 29 29 29 28 27 26 25 26 26 27 28 28 30 32 30 29 31 32 33 36 38 38 38
28 28 28 29 30 30 30 29 27 25 24 25 24 24 24 24 24 25 26 28 28 28 27 25 24 22 22 22 23 26 26 28 29 27 27 30 31 31 33 35 36 37
28 27 27 28 28 29 29 29 27 25 24 24 25 25 24 23 24 24 26 26 27 26 24 23 22 21 20 19 20 22 24 26 27 26 26 28 30 31 31 32 34 35
27 27 27 27 28 28 29 29 27 25 23 23 24 24 24 23 23 23 24 25 26 24 23 22 22 20 19 18 19 21 22 25 26 26 26 27 29 31 31 31 34 34
25 26 26 26 26 27 28 29 28 26 24 22 23 24 24 22 22 23 23 23 23 23 22 22 21 19 18 17 18 20 22 24 26 26 26 28 29 30 31 32 34 34
24 25 26 25 25 26 28 29 30 29 26 21 21 24 24 22 21 21 22 22 22 22 22 21 19 17 16 16 17 20 21 23 25 25 25 27 28 30 30 31 31 31
23 24 25 25 24 26 28 29 30 31 28 23 19 21 23 22 21 20 21 21 21 22 21 20 18 16 15 15 18 20 21 23 24 25 25 25 26 27 28 28 27 27
23 23 24 24 23 25 28 29 29 29 30 25 20 20 22 22 21 19 20 20 21 20 20 19 18 16 15 15 18 21 22 22 23 24 24 24 23 23 24 24 25 25
24 23 22 23 23 24 25 28 28 28 29 28 23 20 21 22 22 20 19 19 20 19 19 18 17 16 15 16 19 21 21 21 21 23 23 22 21 21 21 22 22 23
25 24 22 22 22 23 23 25 26 26 27 27 24 21 20 21 23 22 19 18 18 18 18 17 16 15 15 17 18 20 20 20 20 21 21 21 20 20 20 19 19 19
25 24 23 22 22 22 21 22 23 24 23 24 22 20 20 21 22 23 22 19 17 17 17 16 15 14 14 16 18 18 19 20 20 20 20 19 18 19 18 17 16 16
24 23 22 22 21 22 21 21 22 22 22 22 22 21 20 21 21 23 23 22 20 17 16 15 13 12 13 15 17 17 18 20 19 19 19 18 17 17 17 15 15 14
23 22 21 21 21 22 22 21 22 22 22 21 21 21 21 20 21 21 22 23 23 21 18 15 12 11 12 15 16 16 18 19 20 19 19 18 17 16 16 15 14 14
23 22 21 21 21 21 21 22 22 22 22 22 22 22 21 21 20 21 20 21 22 21 19 17 14 11 12 15 15 16 17 19 19 20 19 18 17 17 16 15 14 14
23 23 23 22 21 21 21 22 22 22 22 23 23 22 22 21 20 20 20 20 20 19 17 17 15 13 13 15 16 17 17 19 19 20 20 20 19 18 16 15 15 15
23 23 23 23 23 22 22 21 22 22 23 23 23 23 22 21 20 20 19 19 19 19 18 16 14 13 14 16 17 18 19 19 20 21 22 21 21 20 18 17 16 16
23 23 23 24 25 25 24 23 22 22 23 22 23 24 23 21 20 19 19 19 19 19 19 17 14 14 16 17 19 20 21 21 22 23 24 23 23 22 20 19 18 18
25 24 24 24 25 26 25 24 23 22 22 22 22 23 24 22 19 19 19 19 19 19 18 17 15 17 19 19 20 22 23 24 24 24 25 24 24 23 22 20 19 19
26 24 24 25 26 26 26 26 25 23 22 21 20 21 22 21 19 19 19 19 19 19 18 17 18 20 21 21 23 25 25 26 27 26 26 25 24 24 23 21 20 20
26 23 24 24 25 26 27 28 27 25 22 21 20 19 20 20 20 20 20 19 19 19 19 18 20 23 24 24 25 27 28 29 30 30 29 27 25 25 24 23 22 22
26 24 24 25 25 26 27 27 27 26 23 21 19 19 18 19 20 20 21 21 21 21 20 20 23 27 28 26 26 28 29 30 32 33 31 29 26 26 25 25 24 24

ECMWFNIL_prec_cthk_051.txt.gz
RH
19 18 16 17 17 19 24 29 28 25 23 25 28 27 26 26 26 32 37 36 32 30 30 31 32 32 31 32 31 33 35 35 40 44 41 39 40 43 46 47 48 49
22 21 20 19 19 20 23 27 29 28 25 23 26 30 30 28 25 24 29 33 32 30 30 30 31 31 31 32 32 31 33 32 34 41 41 38 38 41 45 46 47 47
24 23 23 22 22 22 24 26 26 26 25 23 24 29 31 30 28 24 23 27 30 32 33 30 30 32 33 34 33 31 34 33 33 39 41 38 38 42 45 47 48 48
24 24 24 25 26 26 26 28 27 24 25 26 25 27 29 30 31 28 23 24 28 31 34 33 32 34 35 37 35 32 33 35 34 37 40 38 38 40 44 47 49 50
24 25 25 26 28 30 29 30 30 26 25 28 27 27 29 30 32 29 24 24 27 30 32 33 32 32 34 35 34 32 31 33 34 33 34 35 37 39 41 43 45 46
25 25 26 27 27 30 32 31 31 30 29 29 29 29 31 31 30 27 25 25 27 29 32 32 30 29 31 32 32 32 30 33 36 34 31 31 33 35 39 42 42 40
25 25 26 27 27 29 30 30 29 30 31 31 29 29 32 33 31 28 26 25 26 28 31 33 30 27 28 30 29 29 28 28 33 35 32 29 29 31 35 41 42 39
26 26 25 25 27 29 30 29 28 29 31 31 31 30 32 33 32 29 26 26 26 27 29 32 30 26 28 29 26 24 24 24 27 30 30 27 28 29 31 35 38 37
27 26 26 25 27 29 30 30 29 28 29 29 30 32 34 34 32 31 28 25 26 27 27 28 30 28 27 28 26 21 19 20 23 28 28 25 26 28 29 31 33 34
27 27 27 27 28 29 29 30 30 29 30 28 27 30 34 35 33 32 31 26 24 26 26 25 27 28 24 24 23 21 18 18 21 26 29 26 25 27 29 30 30 32
26 28 29 29 29 29 28 29 29 30 31 30 28 28 30 34 33 31 30 27 23 24 25 24 24 24 22 20 21 21 18 18 20 22 25 25 24 26 29 31 32 34
26 27 29 29 29 29 28 28 28 28 30 31 29 28 28 29 31 30 27 25 23 22 24 24 22 21 20 19 21 22 20 19 21 22 22 23 23 24 26 27 30 32
28 26 27 28 28 29 28 28 27 27 29 30 30 29 27 25 27 29 25 22 21 21 22 22 20 20 19 18 19 21 21 20 22 25 25 24 24 24 25 26 28 29
30 27 27 27 28 28 28 27 27 26 27 29 31 30 27 25 25 27 26 23 20 20 20 21 20 19 19 18 16 18 21 23 23 25 27 28 28 26 25 26 28 31
32 31 29 27 27 28 27 27 27 26 25 27 29 30 29 26 25 26 27 26 24 21 20 21 20 19 18 17 15 15 18 22 24 23 25 29 30 30 28 26 25 27
33 32 30 28 27 26 26 26 27 26 25 24 26 29 30 27 25 26 27 28 28 24 22 21 21 20 17 14 13 14 16 20 22 22 22 24 27 28 28 27 24 23
35 33 32 29 27 26 25 25 26 27 26 24 25 27 28 27 26 25 25 28 31 29 25 22 22 21 18 14 12 13 16 17 19 21 20 20 22 22 22 21 21 20
38 35 33 30 27 25 23 22 25 27 27 26 25 27 28 27 26 24 24 26 29 29 27 25 23 22 19 14 12 12 15 17 18 19 20 20 21 20 19 17 16 16
40 38 35 31 27 24 22 22 23 26 27 27 27 27 28 26 24 23 23 23 25 27 27 26 25 24 19 14 12 12 14 17 18 18 20 24 24 21 18 16 14 13
41 39 36 32 28 24 22 22 22 22 25 27 28 28 27 24 23 23 22 22 23 25 27 26 25 25 21 15 12 11 13 16 18 18 20 25 29 27 22 18 15 13
42 41 38 34 29 25 23 21 20 20 23 25 27 28 26 23 22 23 23 21 21 24 26 26 25 25 23 18 13 11 12 14 17 19 20 23 26 26 24 21 18 15
44 42 39 36 30 25 23 21 20 20 21 23 26 28 28 25 22 22 24 23 21 21 24 25 25 24 23 20 15 11 12 14 17 20 21 22 23 23 23 22 19 17
48 44 39 35 30 26 23 21 20 19 20 22 25 27 29 28 26 24 24 25 23 20 20 22 23 23 21 18 15 12 12 14 17 21 23 24 23 24 23 23 21 19
50 45 39 33 29 25 22 22 21 20 20 21 23 25 27 29 28 27 26 27 26 21 17 18 20 21 19 16 14 13 12 14 18 21 24 25 25 25 25 24 23 20
51 47 41 35 28 24 22 23 23 23 21 21 21 24 26 28 29 29 28 27 26 24 20 16 17 19 19 15 14 13 13 15 20 24 26 27 26 25 25 24 23 22
52 47 42 38 31 26 24 25 25 25 24 22 22 23 26 28 29 29 28 27 26 25 23 18 16 18 19 16 14 13 13 17 22 26 28 28 27 26 26 24 23 22

ECMWFNIL_prec_cthk_054.txt.gz
RH
14 14 15 15 15 16 17 17 17 16 17 17 17 18 18 20 22 25 26 26 26 26 27 28 28 29 29 30 31 33 35 37 39 40 37 36 37 40 44 48 49 49
15 14 14 15 16 16 16 17 17 16 16 16 17 18 19 19 21 23 24 25 25 26 26 26 27 27 28 28 28 29 31 32 34 36 35 35 36 38 42 46 48 47
16 15 14 14 15 16 16 17 17 17 17 17 17 20 23 23 23 22 22 22 23 25 26 26 26 26 26 27 27 28 30 31 33 35 37 37 37 39 41 45 48 48
17 15 14 14 14 14 15 16 17 17 18 19 19 20 22 25 26 25 23 22 21 23 25 27 27 27 27 27 29 30 31 33 34 35 37 37 35 37 38 42 47 49
17 17 16 15 15 15 15 16 17 17 19 21 21 20 20 23 26 27 26 24 21 21 23 26 29 30 30 30 31 32 31 31 32 33 34 34 33 33 34 36 39 43
19 18 17 17 17 17 17 17 17 18 19 20 22 22 21 22 24 26 28 27 24 22 21 24 28 30 31 30 30 31 30 28 28 30 31 31 31 31 31 34 36 36
19 19 18 19 19 20 20 20 20 20 21 21 21 22 22 23 23 24 26 28 28 26 24 24 25 27 28 28 28 29 29 28 27 30 31 30 30 30 30 34 38 37
20 19 19 20 20 21 22 22 23 23 23 23 24 24 23 24 24 23 24 27 28 28 27 26 24 24 23 25 26 27 27 26 25 27 28 28 28 29 30 32 36 37
23 21 21 20 20 21 22 22 24 25 24 24 25 26 26 25 25 24 25 26 27 28 27 27 25 24 22 21 22 23 23 22 22 23 25 26 25 26 28 29 32 33
26 24 22 21 21 20 21 22 24 26 25 24 25 27 27 26 26 26 25 26 28 29 27 27 26 24 23 21 20 22 21 19 20 20 21 23 24 24 25 27 29 30
25 25 24 23 22 21 22 24 26 27 27 25 25 27 27 27 28 28 27 26 27 29 29 27 26 25 23 22 21 21 20 18 18 18 19 21 22 23 23 25 26 27
23 24 24 23 22 23 24 26 28 28 28 26 25 25 26 27 27 28 28 27 25 27 28 27 27 26 24 22 21 21 20 18 17 17 19 20 21 21 21 22 24 24
23 22 22 23 23 24 26 27 27 27 27 27 27 26 26 27 27 26 26 27 25 25 26 27 27 26 24 23 21 20 19 18 17 17 18 20 21 21 20 20 21 22
25 22 22 24 24 24 26 27 27 27 26 26 27 28 28 28 28 27 25 26 26 24 24 26 26 26 25 24 22 19 17 17 17 19 20 21 21 21 21 20 20 20
29 27 25 25 24 24 25 25 25 26 26 26 25 26 28 28 28 28 27 26 25 25 24 24 25 25 24 23 20 18 17 17 18 19 21 23 23 24 24 22 21 23
33 31 28 26 26 25 23 23 25 26 25 26 25 25 27 29 28 27 27 25 25 26 25 23 23 23 21 20 20 18 17 17 16 18 20 23 24 26 27 26 24 24
38 35 31 29 27 26 24 23 24 25 25 25 25 24 25 28 28 26 26 26 26 26 25 22 21 20 19 19 20 19 17 15 14 15 18 22 24 26 27 27 24 24
42 38 35 31 29 27 26 25 24 24 24 24 24 23 24 26 27 26 26 26 26 26 25 23 20 18 18 19 19 19 17 15 13 14 17 21 24 26 27 26 23 22
45 42 38 34 30 28 27 26 25 24 24 24 24 24 23 23 25 26 25 25 25 25 26 25 23 19 18 19 18 18 17 16 13 13 16 19 22 24 26 26 23 20
48 45 41 36 33 31 29 27 26 25 24 24 24 24 23 23 23 24 25 25 24 23 23 24 25 24 21 20 19 17 16 16 14 13 14 18 21 23 26 26 25 22
50 47 44 39 36 34 31 29 27 25 25 25 24 24 24 23 23 24 24 24 23 22 22 22 24 25 24 23 21 18 17 16 15 14 14 17 22 26 28 28 26 24
51 50 47 42 39 36 33 31 29 27 25 24 25 25 24 24 24 25 25 24 23 22 21 22 23 23 24 24 23 20 19 20 19 16 14 17 21 26 29 30 29 27
51 51 49 46 43 39 35 33 32 30 28 25 24 25 26 26 26 26 26 26 25 23 22 22 22 22 23 24 24 22 22 23 22 18 15 15 19 22 26 29 29 28
50 50 50 48 46 43 39 37 35 33 31 27 25 25 26 27 27 27 27 27 26 24 22 21 21 22 22 23 23 23 23 23 22 20 16 15 17 20 23 25 26 25
49 50 50 49 48 46 44 41 38 36 34 29 26 26 26 27 28 28 28 28 26 26 24 21 21 21 22 22 21 21 22 22 23 22 19 16 16 18 21 23 24 24
49 50 50 50 50 50 49 46 42 40 38 33 28 27 27 26 27 28 29 29 27 27 26 23 22 22 21 21 19 19 19 20 20 20 18 16 16 18 20 22 23 23

ECMWFNIL_prec_cthk_057.txt.gz
RH
16 19 18 17 17 18 18 19 19 19 18 17 17 19 22 23 23 23 23 23 23 24 25 27 28 29 30 32 35 39 39 37 34 34 35 37 41 41 42 45 47 47
15 16 17 17 16 16 16 17 17 16 16 16 15 16 18 20 21 21 21 21 21 23 23 24 26 27 28 29 31 33 34 34 34 34 34 35 37 39 38 40 45 47
18 15 15 16 16 16 15 14 15 14 15 15 15 16 16 17 18 19 20 21 21 22 22 22 23 24 26 27 28 29 30 31 33 34 34 35 36 37 38 38 41 45
19 18 16 15 14 15 15 14 14 13 13 14 14 15 15 15 15 16 18 19 21 22 22 22 22 23 24 25 26 28 30 32 33 34 34 35 35 35 37 38 39 43
19 19 18 16 15 14 15 15 14 13 13 13 14 15 15 14 14 15 16 18 20 22 22 22 22 22 24 25 26 29 31 32 32 32 33 33 33 34 34 35 37 40
20 19 18 18 17 15 15 15 15 14 14 14 13 14 14 14 14 15 16 17 19 21 22 22 22 23 25 28 29 29 30 30 30 30 30 31 31 31 31 31 33 36
20 19 19 19 18 17 16 15 14 14 14 15 14 14 14 14 15 15 16 18 20 20 21 22 22 24 26 28 28 28 28 28 27 27 28 29 30 31 30 30 31 33
21 20 18 18 18 17 16 15 14 14 14 14 14 14 14 13 14 14 15 18 21 20 20 20 22 23 24 25 26 26 27 28 27 26 26 28 29 31 30 30 30 31
24 22 20 19 17 17 16 15 14 13 13 13 13 13 13 13 13 14 15 16 19 20 20 20 21 21 22 23 24 25 26 27 26 24 24 25 26 27 28 29 30 30
27 24 22 19 18 16 16 16 15 15 14 13 13 13 13 13 13 14 15 16 17 19 19 19 20 20 20 20 22 23 23 23 22 22 22 22 22 23 25 26 27 28
29 28 24 21 19 17 16 16 16 16 15 14 14 14 14 14 14 15 16 16 17 18 19 18 18 19 19 18 18 20 19 19 20 20 20 21 20 21 22 23 25 25
30 29 26 23 21 19 18 18 17 17 17 17 16 16 16 16 16 16 17 17 17 18 19 18 17 18 19 19 17 17 18 18 18 18 19 20 20 20 20 21 22 23
30 29 26 24 22 20 19 18 18 18 18 18 18 18 18 19 18 18 18 18 18 18 19 19 18 18 18 19 18 18 17 18 18 17 17 18 18 19 20 20 20 20
29 28 26 25 24 22 21 20 19 19 19 19 19 20 20 20 20 20 19 19 19 19 20 20 20 19 18 19 19 19 18 18 18 17 15 16 17 18 20 20 19 19
32 29 27 27 25 23 22 21 20 20 20 20 20 20 21 21 21 21 21 21 20 19 20 21 21 20 19 19 20 20 20 19 18 17 15 14 16 18 19 19 19 19
38 34 31 29 26 24 22 21 21 21 21 21 21 20 21 22 22 22 23 24 23 21 21 21 21 20 19 19 19 20 21 20 20 17 15 14 15 17 19 19 18 18
43 40 36 34 29 25 23 22 22 22 22 22 22 21 22 22 23 23 24 26 26 24 22 21 21 20 19 18 19 20 21 21 20 19 17 15 16 17 19 19 18 17
47 45 42 39 34 30 26 23 23 23 23 23 23 23 23 23 23 23 23 25 26 26 24 22 20 20 19 17 17 19 20 21 20 19 18 17 16 16 19 20 20 19
52 49 46 43 39 35 31 27 25 25 24 24 23 23 23 24 24 23 23 25 26 26 25 23 21 21 20 18 16 17 18 20 20 20 20 18 16 16 18 21 21 21
54 52 50 47 44 40 36 33 29 27 26 25 24 24 24 23 24 24 23 24 25 26 26 24 22 21 20 19 17 17 17 18 19 19 19 19 17 15 17 20 22 22
54 53 51 49 47 44 40 36 33 30 29 28 27 26 25 24 24 24 23 23 24 25 25 25 24 21 20 20 19 18 17 18 19 19 19 19 17 16 17 19 21 21
52 51 50 49 49 47 43 39 36 34 32 31 29 28 26 25 24 24 24 23 23 24 24 25 24 23 22 21 20 19 19 20 20 20 19 19 18 17 16 17 19 21
50 50 49 49 48 47 44 41 39 37 36 34 32 30 28 27 25 24 24 23 23 23 23 23 24 23 23 22 20 20 20 20 20 21 20 19 18 18 17 17 19 21
49 49 49 49 48 46 45 43 41 40 39 37 35 34 31 29 27 26 25 24 23 22 22 22 23 22 22 22 21 21 21 19 19 21 21 20 19 18 18 18 18 20
48 48 48 48 47 47 46 45 43 42 41 40 38 37 35 33 30 27 25 25 24 23 22 22 22 22 22 22 22 22 22 21 20 21 23 22 20 19 19 18 18 19
47 47 47 47 47 48 48 47 46 44 43 42 40 38 38 37 33 29 27 25 24 24 24 22 22 22 21 22 23 23 22 22 22 22 22 21 20 20 20 19 17 18

ECMWFNIL_prec_cthk_060.txt.gz
RH
21 21 23 25 27 27 24 22 22 22 22 23 24 25 25 25 26 25 24 24 25 27 29 30 32 32 33 35 35 35 35 37 38 36 38 39 40 42 41 40 41 41
19 19 21 22 24 24 23 20 20 20 20 19 20 22 24 25 24 25 25 24 23 24 26 28 30 31 31 33 34 34 33 34 35 35 35 37 38 39 40 41 42 41
19 18 19 20 20 20 20 19 19 19 18 19 18 19 21 23 24 24 24 24 23 22 24 25 27 29 29 31 32 33 33 32 34 35 35 35 36 37 38 40 40 39
19 18 17 17 18 17 18 17 18 18 18 18 18 17 18 19 22 23 22 22 22 21 22 24 25 26 27 29 30 32 32 33 34 36 36 35 36 36 36 38 39 39
20 20 18 17 17 17 18 17 16 16 17 17 17 17 17 17 18 20 20 21 21 20 21 22 22 24 25 27 29 31 32 32 33 35 35 35 35 35 35 36 38 39
21 21 20 18 17 16 17 17 16 15 15 15 15 16 16 16 16 17 17 18 19 20 21 21 21 22 24 27 29 30 32 32 32 32 32 33 33 33 33 34 36 37
21 20 21 20 19 17 16 16 16 15 14 14 14 14 15 15 15 15 15 16 16 18 20 21 21 21 23 27 29 31 31 31 31 31 31 32 32 32 31 32 33 34
22 20 19 19 19 19 17 16 15 15 15 14 13 13 14 14 14 15 15 15 15 16 17 19 21 23 24 25 28 30 31 31 30 30 30 31 31 31 30 31 31 32
26 23 20 19 18 18 18 17 16 15 15 15 14 14 14 13 14 14 14 15 14 14 16 17 19 24 26 26 26 27 29 30 30 29 29 29 29 30 30 30 30 31
30 27 23 20 18 16 17 17 17 16 15 15 14 15 14 14 14 14 15 15 14 14 15 16 18 21 24 26 26 26 27 27 29 30 29 28 28 28 29 29 30 30
32 29 27 23 19 16 15 16 17 17 16 15 14 14 15 14 14 14 14 14 13 13 13 15 17 18 20 22 24 25 26 27 28 29 29 27 27 27 28 29 29 29
32 31 28 25 22 19 16 16 16 16 16 16 15 14 14 14 14 14 13 12 12 13 13 14 15 17 19 20 21 22 24 26 26 26 25 24 24 24 24 25 26 27
32 31 29 28 25 23 20 18 16 16 16 16 15 15 14 14 13 13 12 12 11 12 12 13 14 15 17 19 20 21 23 24 25 23 21 20 20 21 21 21 22 23
31 31 31 30 29 27 25 22 19 18 17 17 17 16 15 14 14 13 13 12 11 11 11 12 13 15 16 18 20 21 22 23 23 22 20 19 18 19 19 21 20 21
31 31 32 32 31 30 28 25 22 20 19 18 18 17 16 16 15 15 15 14 13 12 12 12 14 15 16 18 19 21 22 22 22 21 19 18 18 18 18 19 20 20
33 32 32 32 32 31 30 28 26 23 21 20 19 18 18 17 17 17 16 15 15 14 14 14 15 16 17 18 19 20 22 22 23 22 20 19 18 18 17 18 19 20
37 33 32 31 31 32 32 31 30 27 24 22 21 20 19 19 18 18 17 17 16 16 16 15 16 16 17 18 19 20 22 23 23 22 21 20 20 19 17 17 18 20
40 37 34 32 31 31 32 32 31 30 28 25 24 22 21 21 20 19 18 18 18 17 17 17 17 16 17 17 19 20 22 23 23 22 22 21 21 20 19 17 17 20
44 41 38 36 34 33 32 32 32 31 29 28 26 24 24 23 21 20 19 19 19 18 18 19 19 18 17 17 18 20 21 23 23 23 22 22 21 21 20 18 17 19
52 46 42 40 38 37 35 33 32 31 30 29 28 27 26 25 24 23 22 21 20 19 19 20 22 21 19 18 18 19 21 22 23 23 23 23 22 22 21 19 17 18
56 52 48 45 43 41 39 36 33 32 31 30 29 28 27 26 25 25 24 23 22 21 20 20 22 22 21 19 18 18 20 21 22 23 24 24 24 23 22 20 19 18
56 54 52 50 48 45 42 40 37 35 34 33 31 30 29 27 27 27 26 25 24 24 23 21 21 22 22 21 19 19 21 22 22 23 24 24 24 22 21 21 20 18
55 55 54 52 51 49 45 43 41 39 38 37 35 33 31 30 28 28 27 27 26 26 25 23 21 21 22 22 21 21 23 24 24 23 23 23 23 22 21 21 20 18
54 54 54 54 53 51 48 46 45 43 42 41 39 37 36 34 32 31 29 29 28 27 26 24 22 21 21 21 22 23 24 25 24 24 23 23 23 22 21 20 19 18
56 52 51 53 53 52 51 50 49 47 46 44 42 41 40 40 38 36 33 31 30 29 28 27 25 22 22 21 22 24 26 26 26 25 24 24 23 21 20 19 18 18
56 51 49 50 51 52 53 53 52 51 49 47 45 44 43 43 42 40 38 36 33 32 30 28 27 25 23 22 21 22 24 26 27 26 23 22 21 20 19 18 18 17

ECMWFNIL_prec_cthk_063.txt.gz
RH
24 26 27 28 27 26 28 30 32 34 36 37 33 30 30 30 30 29 28 28 29 30 32 34 35 35 33 34 36 37 38 40 41 42 42 40 40 39 38 37 37 36
21 23 24 25 26 27 27 27 28 28 31 33 33 30 28 28 28 29 29 27 27 28 30 32 33 35 34 34 36 35 35 37 39 40 41 40 41 41 39 38 38 37
20 21 22 23 23 24 25 25 26 26 26 29 30 29 28 27 27 28 29 28 26 26 27 30 31 33 33 34 35 35 34 35 37 37 37 38 39 40 40 40 39 38
20 19 20 22 21 21 22 22 23 23 23 24 25 25 26 27 27 27 27 27 26 25 26 27 29 30 32 33 34 35 34 34 35 37 36 36 37 38 39 39 39 38
20 19 19 20 21 21 21 20 20 20 21 21 21 22 23 25 27 27 28 27 26 26 25 26 27 28 30 31 32 34 35 35 35 37 36 35 36 37 37 38 38 37
22 20 20 19 20 21 21 19 17 17 18 18 19 20 20 21 23 24 26 27 27 26 25 24 25 26 28 29 31 33 35 37 38 38 37 36 35 35 36 37 38 37
23 22 21 20 20 20 20 19 18 16 15 16 17 18 19 19 19 20 22 24 24 24 23 23 22 23 25 27 29 32 34 36 37 38 38 37 36 35 35 35 36 37
26 24 22 22 21 20 20 19 19 17 15 15 16 17 18 17 17 17 18 19 20 21 21 21 21 21 24 25 28 30 32 34 35 36 37 37 36 35 34 34 34 36
28 26 24 23 22 22 21 20 19 18 17 16 15 15 16 16 17 17 17 18 18 19 19 20 20 20 23 25 27 28 30 32 34 35 35 35 35 34 34 34 34 33
31 28 26 23 21 21 21 21 21 20 19 17 16 15 14 14 15 15 16 17 17 18 18 19 19 19 21 23 25 27 28 29 31 33 34 34 34 33 33 33 34 33
32 30 28 24 21 20 20 21 22 22 21 20 18 16 15 14 14 14 14 15 15 16 16 17 19 19 20 21 22 24 26 27 29 31 31 32 33 33 32 33 33 33
34 32 29 26 23 20 19 19 21 22 22 22 19 18 16 15 14 14 14 14 14 15 15 16 17 19 20 21 21 22 24 26 29 30 31 31 31 32 32 32 32 32
33 33 31 28 26 24 22 19 19 20 21 21 21 20 18 16 15 15 15 15 14 15 15 15 16 17 18 20 20 21 23 24 26 29 30 31 32 32 32 31 30 30
32 33 33 32 30 29 27 24 21 19 19 19 21 21 20 18 17 16 15 15 15 15 15 15 16 16 17 18 19 20 21 23 24 25 26 28 29 30 31 29 28 28
35 34 34 34 33 32 31 28 26 23 21 20 19 20 19 19 19 18 17 16 15 15 15 15 15 15 16 17 18 17 18 19 20 22 22 23 25 27 28 27 25 25
39 36 35 35 35 33 32 32 30 29 27 24 22 20 19 20 20 20 19 17 15 15 15 15 14 14 14 15 16 17 17 17 18 19 20 21 22 24 24 24 22 22
43 40 37 35 34 34 34 33 33 32 31 29 27 24 23 21 20 20 19 18 17 16 15 15 14 14 14 14 15 16 17 17 17 18 20 21 21 22 23 22 21 21
47 44 40 36 34 34 33 33 34 34 34 32 31 29 27 25 23 21 20 20 19 18 17 16 15 14 15 15 15 16 17 18 19 19 21 21 22 23 23 22 22 22
52 49 45 40 36 34 34 34 34 34 34 33 33 32 31 29 27 24 23 22 21 20 19 18 17 17 17 16 16 17 17 19 20 21 22 23 24 24 24 23 23 22
56 53 50 46 42 39 37 36 35 34 34 34 34 34 34 32 30 29 27 25 23 22 21 20 19 18 18 18 18 18 18 19 20 22 24 25 26 26 26 25 24 23
59 56 54 52 49 46 41 38 35 34 34 34 34 35 35 35 34 33 31 28 26 24 23 21 19 19 19 19 19 19 20 21 22 22 24 25 26 27 27 26 25 24
60 58 56 55 54 51 48 43 39 36 35 35 36 36 35 36 36 35 33 31 29 27 26 23 20 19 19 19 19 20 22 23 24 24 25 25 25 26 27 26 25 24
62 58 56 55 55 54 52 49 46 43 41 41 40 39 38 37 36 35 34 32 31 30 27 24 21 19 19 19 19 21 23 24 26 26 26 26 25 25 26 25 24 23
66 61 58 56 56 55 53 52 50 49 48 46 45 43 41 39 38 36 35 34 32 30 28 25 22 21 21 20 19 20 23 24 26 27 28 27 26 25 25 24 23 23
68 65 62 58 57 56 55 53 52 52 51 50 48 46 44 42 40 38 36 34 33 31 29 27 25 22 22 21 21 21 22 24 26 28 29 28 26 25 25 25 24 22
68 66 63 60 58 57 56 56 55 54 54 52 51 49 48 47 44 41 38 36 34 32 31 29 27 24 23 22 21 22 23 24 26 28 29 28 27 26 25 25 24 23

ECMWFNIL_prec_cthk_066.txt.gz
RH
27 26 27 29 31 31 32 32 31 33 37 38 40 40 40 38 35 33 32 32 34 36 37 39 38 39 39 39 41 43 44 44 45 45 45 44 43 43 41 40 39 39
28 26 26 28 29 29 29 29 29 31 35 37 39 39 38 37 34 33 32 31 32 33 35 37 37 38 39 38 39 40 41 42 43 44 45 44 44 44 43 42 40 39
28 27 26 26 27 27 27 27 28 30 34 36 37 37 37 35 33 32 32 31 30 31 32 33 35 37 38 39 39 39 39 40 41 42 44 44 44 44 43 43 42 40
25 26 26 25 25 26 26 26 25 27 31 33 34 35 35 34 33 31 30 31 31 31 30 31 32 35 36 38 39 40 39 39 39 40 41 43 44 44 44 43 43 41
23 24 25 25 24 24 25 25 25 25 27 28 30 32 32 32 32 31 29 29 30 30 30 29 30 32 34 36 37 39 39 39 39 38 38 40 42 43 43 43 42 41
25 23 23 24 24 24 23 23 23 24 24 25 26 28 29 30 30 30 30 29 30 30 29 29 29 30 31 33 35 36 37 37 39 38 38 38 39 40 40 41 41 40
30 27 24 23 23 23 22 21 21 22 23 23 24 25 27 28 27 28 29 29 29 30 30 30 29 29 29 30 32 34 35 37 38 39 38 38 39 39 39 39 39 38
33 31 28 25 23 22 22 21 20 20 20 21 22 23 25 26 25 26 27 27 28 29 30 31 30 29 28 27 28 30 33 35 38 38 38 38 39 39 39 39 39 39
35 34 32 29 26 23 21 21 20 19 18 18 19 20 22 23 24 24 25 25 25 26 27 27 27 26 25 24 25 27 29 32 35 37 38 38 38 38 39 38 39 39
37 35 34 33 30 26 22 21 20 19 18 18 17 18 19 20 22 23 24 24 23 23 22 22 22 22 22 22 23 26 27 29 31 33 35 37 37 38 38 37 37 37
39 36 35 33 32 31 27 23 21 20 19 18 17 17 17 18 19 21 22 22 21 21 20 20 20 20 21 21 22 24 26 27 29 30 32 33 35 35 36 35 35 35
41 38 36 35 34 33 32 29 25 23 21 19 18 17 17 17 18 18 19 20 20 19 19 18 19 19 20 21 23 23 24 24 26 27 29 31 32 33 34 34 33 33
42 40 38 37 36 35 35 33 30 26 23 21 19 19 18 18 17 17 18 18 18 19 18 18 18 18 19 20 22 23 23 23 24 25 25 27 28 30 31 32 32 32
45 43 41 40 38 38 37 35 34 31 28 24 22 20 19 19 18 18 18 17 17 18 18 18 19 18 18 19 21 22 23 24 24 24 23 24 24 25 27 29 30 31
49 47 44 42 40 39 37 36 36 34 32 29 25 22 20 19 19 19 19 18 17 18 18 18 18 18 17 18 19 21 22 24 24 24 24 24 23 24 24 26 27 29
51 49 45 43 40 39 38 38 37 36 35 33 30 26 23 21 20 20 19 18 18 17 17 17 17 17 17 17 18 19 21 22 23 23 24 23 22 23 23 24 25 27
49 49 47 44 41 40 41 40 39 39 37 36 34 31 29 26 24 22 20 19 18 17 17 16 15 15 15 15 16 17 18 20 21 21 22 22 21 21 21 22 22 23
49 49 48 46 44 43 43 43 42 41 39 38 36 35 33 32 30 27 25 23 22 20 19 17 16 15 15 15 15 16 16 18 19 19 20 19 19 18 18 18 19 20
52 49 48 47 46 45 45 45 45 43 40 39 38 37 36 35 32 31 29 28 27 25 23 21 19 17 16 16 16 16 17 18 19 19 19 19 18 18 17 17 18 20
57 52 49 49 48 48 47 47 46 44 42 40 39 39 38 36 34 33 32 31 29 28 27 25 23 20 19 19 18 18 19 20 20 20 20 19 19 19 19 18 19 20
62 58 53 50 50 50 49 48 47 46 44 43 41 41 39 37 37 36 34 33 32 30 29 28 26 24 23 22 20 20 21 22 22 21 21 20 20 20 20 20 20 21
66 62 58 54 52 51 50 49 48 47 46 45 44 43 42 41 39 37 36 35 34 33 32 31 29 27 26 24 22 22 23 24 24 23 22 21 20 20 20 21 21 22
71 66 62 58 55 53 51 50 48 47 46 46 47 46 45 43 42 40 39 37 36 36 35 33 31 29 29 26 25 24 25 25 24 23 22 21 20 20 20 21 21 22
74 70 66 63 60 57 54 51 49 47 46 46 45 44 45 44 44 43 42 39 37 35 34 34 32 32 32 30 28 27 27 26 24 23 23 22 21 21 22 21 22 21
77 73 70 67 65 62 58 56 53 50 48 46 43 41 41 42 43 42 41 39 37 35 34 34 32 32 34 33 31 31 30 28 26 25 23 22 22 23 23 23 23 22
78 76 74 72 68 65 64 62 58 55 52 48 44 42 40 40 41 40 38 38 37 35 34 33 32 32 33 33 34 33 32 30 28 26 24 22 22 22 22 23 23 23

ECMWFNIL_prec_cthk_069.txt.gz
RH
28 29 31 33 36 38 39 40 40 40 40 42 42 43 44 42 40 38 35 34 36 37 39 40 41 43 42 42 43 45 47 48 47 47 45 44 43 42 41 40 38 37
27 28 28 30 33 36 37 38 39 39 38 38 40 42 42 41 39 36 33 32 33 35 37 38 39 40 41 41 41 42 43 45 46 46 45 45 45 43 41 41 39 36
27 26 26 27 29 33 36 37 37 37 36 36 38 40 41 40 38 36 33 30 31 32 34 36 37 39 40 40 40 39 40 41 44 45 45 44 45 44 42 42 40 38
28 26 25 26 27 30 35 35 35 34 34 34 35 38 39 39 37 36 33 31 30 30 32 33 35 37 39 39 39 39 39 39 40 42 43 43 43 43 43 42 41 39
28 27 26 26 26 28 31 33 33 31 32 33 34 36 37 37 37 35 34 32 30 30 30 31 32 34 36 37 38 37 38 39 39 39 40 41 42 42 42 42 41 39
28 28 27 26 26 27 28 30 30 29 29 30 32 34 35 35 34 34 34 32 31 30 30 30 30 31 33 35 36 35 36 37 37 38 38 38 40 40 40 40 39 39
29 28 28 27 25 26 27 28 28 28 27 27 30 32 32 32 32 32 32 32 32 31 30 30 29 30 31 32 33 34 34 35 35 35 36 36 37 37 38 37 37 37
32 29 28 28 26 25 25 25 26 27 27 26 27 28 29 30 29 29 29 29 30 31 31 30 30 30 31 31 31 32 33 33 34 33 33 33 34 34 35 36 36 35
36 33 31 29 28 26 25 24 25 25 25 25 25 26 26 27 27 26 26 27 27 28 29 29 30 31 31 32 31 31 30 31 32 32 32 32 32 33 33 34 34 34
38 36 34 32 30 29 26 25 25 24 24 24 24 24 24 24 25 24 24 24 24 25 25 26 29 30 31 31 29 28 27 29 30 30 30 31 31 32 33 33 33 34
41 39 37 35 33 32 30 28 26 25 24 23 22 22 22 22 22 22 22 22 22 23 23 23 25 26 28 27 25 24 25 26 28 29 30 30 30 30 31 32 32 31
44 41 39 38 36 35 34 32 30 28 26 25 23 21 20 20 20 19 19 19 20 20 21 21 22 22 23 23 21 21 22 24 26 27 28 29 29 29 29 29 30 30
47 44 42 40 39 37 36 35 33 31 30 28 26 23 21 19 19 19 17 17 17 18 19 19 20 20 19 19 19 19 20 22 24 25 25 27 28 28 28 28 28 30
50 48 46 45 42 40 38 37 36 34 32 31 29 27 24 21 19 19 18 17 17 16 17 17 18 18 18 18 18 18 19 21 22 22 23 24 25 26 26 27 27 28
51 51 50 49 46 43 40 39 37 36 35 34 32 30 28 25 22 19 18 18 18 17 16 16 16 16 16 16 17 17 19 20 21 21 22 22 23 23 24 24 25 26
52 52 52 50 47 45 43 41 40 38 37 35 34 33 32 30 28 24 21 19 18 18 17 17 16 15 14 15 15 16 17 19 20 21 21 21 22 22 22 22 23 23
53 53 53 51 48 46 45 44 42 40 38 37 36 35 34 33 32 30 26 23 20 18 17 17 16 15 15 14 15 15 16 18 19 20 21 21 21 21 21 21 21 21
56 54 53 52 50 49 47 45 44 42 40 38 37 36 35 34 33 32 30 28 25 22 20 18 16 15 15 14 14 15 15 16 17 18 19 20 20 21 20 20 20 20
62 58 55 52 51 50 49 48 46 43 41 39 38 37 37 36 34 33 32 31 30 27 24 22 19 17 16 16 16 15 15 16 17 17 18 18 19 19 20 20 19 18
67 63 58 55 53 51 51 50 48 44 42 41 40 40 38 37 35 35 33 33 32 30 28 27 25 21 20 20 19 18 18 18 18 18 18 18 18 19 19 20 19 18
71 68 64 59 55 53 52 51 49 47 45 44 43 42 40 38 37 36 35 33 32 31 30 30 28 26 24 24 23 22 23 24 23 22 20 20 19 18 19 20 19 19
75 73 71 66 61 57 53 51 50 48 47 47 46 44 42 39 37 36 35 34 33 33 32 31 29 29 29 28 27 27 28 29 28 25 24 23 20 19 19 19 19 19
80 77 75 72 68 63 58 54 52 50 49 48 47 46 43 40 38 36 35 35 34 34 33 31 30 30 31 30 30 31 31 31 30 29 27 25 22 20 19 18 18 19
84 82 79 75 74 70 65 60 56 53 51 50 48 47 45 42 40 38 37 36 35 33 32 31 30 30 31 31 31 32 32 32 31 30 29 26 23 21 20 19 18 18
85 85 82 79 77 75 72 69 63 59 55 53 52 50 47 45 43 40 38 36 34 33 32 31 30 30 31 31 31 32 32 32 32 32 30 26 23 21 21 20 18 17
81 82 84 84 82 79 76 74 70 65 61 57 56 54 51 49 45 42 39 37 35 34 33 32 31 31 31 31 31 32 32 32 32 32 30 26 24 23 22 20 19 18

ECMWFNIL_prec_cthk_072.txt.gz
RH
33 33 33 35 37 37 39 41 43 46 47 47 47 48 49 47 45 47 46 41 39 39 39 40 40 41 42 41 40 42 44 46 48 46 42 40 42 44 43 41 40 39
33 31 32 33 35 36 37 39 41 43 45 44 44 47 47 45 42 42 41 39 37 38 38 38 38 39 40 41 40 40 41 41 46 48 43 39 41 43 41 41 39 37
33 31 29 30 33 35 36 38 39 40 43 43 42 44 45 44 43 41 38 37 36 37 38 36 36 37 38 38 38 39 40 40 43 49 46 41 42 44 43 42 42 38
33 32 29 28 31 34 36 40 39 38 40 43 42 42 42 43 44 40 36 34 34 35 36 35 35 36 36 36 37 37 38 38 40 44 44 41 41 43 44 44 43 42
32 33 31 28 29 31 33 37 38 37 39 41 42 40 39 39 41 41 37 34 32 31 33 34 33 34 34 34 35 35 35 37 38 38 38 40 41 41 43 43 41 40
31 32 33 30 28 29 30 33 35 36 38 39 40 40 39 37 36 39 39 36 34 32 34 34 32 32 33 33 33 34 34 38 41 38 35 37 39 41 44 43 40 38
33 31 32 32 30 28 28 30 33 35 35 36 37 37 38 37 35 36 37 36 36 35 36 36 32 31 31 31 31 32 32 34 37 37 35 36 36 38 41 42 39 36
36 32 30 31 31 30 29 29 31 33 32 32 33 32 33 35 35 35 35 34 35 35 34 34 31 29 30 31 30 30 31 32 34 33 33 35 35 35 36 38 37 35
40 34 30 30 31 31 32 31 31 31 29 29 30 30 30 31 33 35 35 32 31 32 31 31 30 28 29 30 29 28 28 30 33 33 31 32 32 33 34 35 35 34
39 35 32 32 32 33 34 35 33 32 30 27 28 29 29 28 28 31 32 29 28 29 28 28 29 28 29 29 28 27 27 27 29 29 28 28 28 30 33 34 33 33
40 38 36 35 34 34 36 37 36 34 31 27 26 28 29 27 26 26 27 26 25 25 25 25 27 27 27 29 29 29 27 27 26 25 24 24 24 25 26 28 29 31
44 40 39 37 36 36 37 40 37 33 33 30 26 25 26 26 25 23 23 24 23 23 23 23 23 25 25 26 29 30 29 27 26 25 24 24 24 24 23 24 24 25
48 44 42 41 40 38 38 40 38 34 33 33 29 26 25 25 23 22 21 22 21 21 21 21 21 22 22 23 25 28 29 27 26 26 26 26 26 25 25 26 26 25
52 48 46 45 43 40 38 38 40 38 37 35 32 28 27 27 25 22 20 19 19 19 18 19 20 20 21 20 20 22 25 24 23 23 25 27 26 26 27 28 28 28
56 51 48 46 45 41 38 37 38 39 39 37 33 30 28 28 27 26 22 19 17 17 16 17 17 18 19 19 18 19 21 21 20 20 22 24 24 25 26 26 26 28
63 58 52 49 45 41 39 38 37 38 38 37 35 32 30 29 28 28 26 23 19 16 15 15 15 16 16 16 17 17 18 19 19 19 20 21 21 22 24 25 25 26
71 66 60 54 49 43 40 39 38 38 37 37 36 35 33 31 29 28 27 27 24 20 17 15 14 14 14 14 15 15 16 17 17 18 19 18 19 20 21 22 23 24
74 70 64 58 53 47 44 42 40 39 38 37 37 36 35 34 32 30 28 28 28 26 22 19 16 14 13 12 12 13 14 14 15 16 17 18 19 19 19 20 20 21
75 72 67 62 59 54 49 46 43 41 39 37 37 36 36 35 33 32 31 29 29 28 27 24 20 15 13 13 13 12 13 13 13 15 16 17 17 17 17 18 18 19
78 75 71 67 64 59 54 50 46 44 41 40 39 38 36 34 34 33 33 32 30 30 29 27 24 19 15 14 13 12 13 13 13 13 14 15 15 15 16 16 17 18
84 80 74 70 68 64 60 55 50 46 45 43 43 42 39 36 35 34 34 33 33 32 31 30 27 24 20 17 15 15 14 13 13 13 12 13 13 13 14 14 15 16
85 83 78 73 72 70 66 62 57 52 49 46 45 44 42 39 37 35 34 33 34 33 32 32 29 27 25 23 21 19 19 19 17 16 15 14 13 13 13 14 14 15
85 85 83 78 75 73 71 68 65 61 56 54 51 48 45 42 40 38 36 35 34 34 33 32 31 29 29 27 26 26 26 25 24 23 21 19 18 17 16 15 15 15
87 87 87 84 80 76 75 74 72 68 65 62 58 54 51 47 42 41 40 39 37 35 33 31 31 31 30 29 29 29 30 29 28 27 26 25 23 21 20 19 18 16
85 86 87 88 86 81 79 80 79 76 74 70 65 61 58 54 49 46 43 42 40 37 34 32 31 30 30 30 29 29 29 29 29 28 27 27 26 25 23 22 20 18
78 81 82 84 86 86 86 86 83 79 77 75 72 67 62 59 58 53 47 43 42 40 38 35 32 31 30 29 29 30 29 29 29 28 27 26 27 27 26 25 24 20

ECMWFNIL_prec_cthk_075.txt.gz
RH
34 34 35 37 40 42 44 43 45 48 49 49 49 48 48 49 50 49 49 44 36 37 38 38 39 39 40 40 41 45 46 48 53 48 41 43 46 47 45 45 49 50
34 34 35 37 38 39 44 45 46 48 49 50 51 50 47 47 49 47 47 44 37 36 36 36 37 36 38 41 39 42 44 43 48 48 41 41 46 47 43 42 45 47
34 34 33 37 39 39 43 45 46 48 49 48 48 48 46 45 45 44 44 43 40 38 36 34 36 34 36 39 38 43 47 41 42 48 45 40 43 47 44 40 40 40
34 35 34 38 41 41 43 44 44 46 48 48 46 45 46 45 45 43 42 40 38 39 38 35 36 35 35 35 35 43 49 42 40 45 46 41 39 44 46 43 42 41
32 34 34 36 39 39 42 43 44 45 45 47 47 44 44 44 43 43 41 37 33 36 38 36 34 34 35 33 33 40 46 44 42 41 40 41 40 43 46 44 43 42
31 32 33 34 35 35 37 40 41 44 44 44 45 45 44 41 40 41 41 38 33 33 37 38 35 35 37 36 32 34 40 44 46 42 37 38 42 44 45 43 41 40
34 31 30 33 34 33 33 35 37 40 42 43 43 44 44 42 40 39 40 39 37 36 36 37 38 37 39 40 34 31 33 37 43 43 39 37 39 41 43 43 41 37
40 35 32 33 34 34 33 31 33 35 38 40 41 41 43 43 41 39 38 38 38 38 36 37 38 36 36 38 38 35 32 34 39 40 37 35 35 35 38 40 40 37
46 42 39 37 37 38 36 32 32 33 34 35 37 39 40 40 41 40 38 37 35 36 38 37 37 36 34 36 38 37 34 35 39 40 37 35 34 34 34 36 38 37
48 45 41 41 42 40 36 34 34 34 34 33 33 35 37 37 38 38 39 38 34 33 36 36 36 36 36 35 36 36 34 35 38 40 40 38 37 37 37 38 39 38
49 48 43 44 47 44 36 33 32 32 33 34 33 34 34 35 36 35 36 37 36 33 33 33 32 33 33 33 35 35 34 35 37 38 38 36 35 34 35 36 37 38
53 52 47 44 47 47 40 34 32 31 31 33 35 33 32 31 32 33 32 31 31 31 31 30 28 28 28 27 31 35 35 36 38 38 37 34 32 30 29 29 30 32
58 57 51 43 45 51 46 37 33 32 31 32 34 34 33 30 29 31 31 27 24 24 27 29 26 25 24 22 24 30 33 34 35 37 38 35 32 31 30 29 28 29
59 59 57 51 52 55 49 39 35 37 36 34 34 34 33 31 28 29 30 28 24 21 22 26 26 24 22 20 19 22 27 31 33 34 35 35 33 31 31 30 29 29
62 60 59 57 57 53 46 40 38 39 39 37 37 36 34 33 31 28 27 28 27 24 21 23 25 25 23 21 19 19 22 26 29 31 32 33 32 31 31 30 29 29
69 65 60 58 57 51 45 44 43 41 41 41 40 38 37 37 35 30 26 27 27 26 23 22 22 23 23 20 18 18 20 22 25 27 29 30 30 30 29 29 29 29
72 68 64 61 59 54 49 48 48 43 41 41 41 41 40 38 35 33 29 26 26 27 26 24 22 20 20 18 16 16 18 20 23 24 25 26 27 27 25 25 27 27
74 69 67 64 62 57 53 55 58 53 45 42 41 41 42 40 37 36 33 29 28 28 27 25 23 21 20 18 16 13 14 17 21 24 25 24 25 25 24 23 24 24
79 75 74 71 67 64 59 58 60 60 57 53 47 42 42 42 40 38 35 32 30 29 28 27 24 23 22 20 18 14 13 13 15 18 21 22 23 24 24 24 23 24
82 81 80 78 74 72 69 64 59 58 60 62 61 54 46 42 41 41 38 36 33 30 29 28 27 25 24 22 21 17 13 12 13 13 15 17 19 21 22 24 24 24
82 82 82 81 79 77 75 73 69 64 62 65 71 70 60 52 47 44 41 38 36 34 32 31 29 28 26 24 23 21 17 14 13 13 12 13 14 16 17 19 21 23
83 81 81 83 83 81 78 77 76 73 68 67 69 71 71 67 60 54 50 45 39 36 35 33 31 31 29 27 25 25 23 21 18 16 14 13 13 13 13 14 15 17
83 83 83 83 83 82 81 81 80 76 70 66 65 65 66 66 61 58 56 52 46 41 36 34 33 32 31 29 28 27 27 26 25 22 19 16 14 13 12 12 12 12
79 82 84 84 83 83 83 84 82 77 71 67 67 65 62 60 57 54 53 55 54 48 39 34 32 32 32 31 30 30 29 28 27 27 25 22 18 16 14 13 12 11
74 77 80 82 83 83 84 83 81 79 76 74 72 70 66 63 62 60 57 57 59 58 51 42 37 34 32 31 30 29 30 29 28 28 27 25 23 20 19 18 15 13
68 72 75 75 76 79 82 82 79 79 81 80 75 73 71 69 67 65 61 56 56 59 60 56 50 43 37 33 32 30 29 30 29 28 27 26 25 25 24 23 21 19

ECMWFNIL_prec_cthk_078.txt.gz
RH
30 30 32 36 41 43 38 33 33 35 39 42 44 45 47 48 48 52 49 41 36 35 35 37 38 40 42 40 45 51 46 43 44 40 37 39 40 43 44 46 51 48
30 30 30 30 34 37 36 33 34 37 39 42 46 46 45 47 48 48 49 45 37 33 33 34 34 35 38 38 39 45 46 46 50 44 39 39 41 44 46 47 50 48
29 29 29 29 30 32 34 34 35 39 40 41 44 47 46 45 45 45 46 44 39 35 32 31 33 33 34 38 39 42 43 45 51 48 40 40 42 45 47 46 47 47
28 29 28 29 32 33 33 35 37 38 40 41 42 45 47 45 44 43 42 41 38 38 35 30 31 31 32 35 39 43 45 44 48 48 43 41 40 45 47 44 44 45
29 30 30 30 34 36 36 37 39 39 40 41 41 42 45 45 44 42 40 38 35 36 37 32 29 30 31 32 35 41 46 44 43 43 43 42 39 40 45 44 42 42
35 32 32 32 34 36 37 39 41 41 40 41 42 42 43 42 42 42 40 37 32 30 33 34 31 30 31 30 31 35 40 42 43 41 38 41 40 38 42 46 44 41
49 43 38 36 35 35 35 37 39 41 41 41 42 43 43 41 39 39 39 38 34 30 31 35 34 32 32 31 30 30 33 38 43 44 39 38 38 36 40 47 44 39
58 54 48 41 36 34 33 34 35 37 39 40 41 42 43 42 40 38 37 38 37 34 33 35 35 34 33 33 31 29 29 31 36 41 39 35 35 34 37 42 42 37
63 61 58 50 42 36 33 32 32 33 35 37 39 40 41 41 41 40 37 36 36 36 35 34 35 35 33 33 33 31 28 29 33 37 36 32 32 32 32 33 35 35
66 64 61 54 48 42 36 33 33 33 32 33 35 37 38 40 41 41 40 37 35 35 35 34 34 36 35 33 33 33 30 29 32 35 35 33 31 30 31 31 31 32
63 66 63 56 50 48 44 38 35 35 35 34 34 33 34 37 38 40 40 39 37 34 34 33 32 34 36 34 31 32 31 27 28 30 33 35 33 32 33 34 35 34
60 63 63 58 52 53 54 46 39 37 36 35 36 35 33 33 35 38 39 38 38 37 34 32 32 32 34 33 31 32 32 28 28 29 29 31 32 31 30 31 31 32
66 63 62 61 56 54 56 51 44 42 39 35 35 36 35 33 33 35 37 37 36 37 35 34 32 31 31 30 29 31 32 31 31 32 31 30 30 30 28 27 26 25
70 69 66 63 59 55 55 53 50 49 46 41 37 36 35 34 34 33 34 35 35 34 34 34 32 30 30 29 27 26 28 30 31 32 32 32 32 32 31 30 29 27
70 72 71 66 63 61 61 59 53 49 50 51 48 42 37 35 34 34 33 33 34 34 32 32 31 30 29 27 25 24 24 26 28 29 30 31 32 33 32 32 32 30
71 73 72 68 67 67 67 64 55 48 50 56 55 49 43 39 35 34 35 34 33 34 33 31 30 29 28 26 24 23 22 22 24 26 27 28 29 31 31 32 31 30
76 76 73 70 70 72 73 72 64 55 55 60 60 52 44 42 39 37 36 35 34 34 34 33 31 29 27 25 23 22 22 21 21 23 25 27 28 28 29 29 29 29
80 79 76 74 75 74 74 74 70 64 60 63 67 61 49 43 42 40 38 36 34 34 34 33 32 30 28 25 23 22 20 20 19 20 22 23 25 26 27 28 27 26
82 81 79 79 81 79 75 72 72 70 66 63 66 67 60 53 49 45 42 39 35 33 31 32 31 31 29 27 25 23 22 19 18 18 19 21 23 23 24 25 26 25
80 81 83 83 83 81 78 75 75 75 71 66 63 63 64 63 60 55 53 51 46 40 35 32 30 29 28 28 27 26 25 23 20 19 18 18 20 22 23 24 24 24
75 77 81 83 82 81 80 79 78 75 73 69 64 61 62 63 63 62 61 61 60 56 49 41 36 31 28 27 27 27 27 26 23 22 20 18 18 18 20 21 22 22
72 75 78 80 81 80 80 79 78 77 75 74 72 68 65 63 61 60 60 61 63 60 54 48 43 39 35 31 28 29 29 27 25 24 23 22 20 19 18 17 17 19
71 74 76 78 80 81 82 81 81 80 79 79 80 76 71 68 64 60 59 60 60 58 55 51 47 45 43 38 33 32 31 30 29 27 26 26 25 24 22 20 17 16
69 71 72 73 76 81 83 84 84 83 81 80 82 81 77 73 69 65 63 62 61 59 57 55 53 50 49 46 43 40 36 32 32 32 30 29 29 29 28 26 23 20
62 65 67 68 72 77 81 83 84 85 83 81 81 82 82 79 74 70 66 64 63 61 58 57 56 54 53 54 52 50 45 40 36 35 33 32 31 31 31 30 28 26
54 57 60 63 65 70 74 77 80 81 81 81 82 83 84 83 81 76 71 67 66 65 62 61 60 59 59 58 57 55 53 49 43 38 35 35 35 34 33 32 30 28

ECMWFNIL_prec_cthk_081.txt.gz
RH
29 33 36 37 38 41 42 37 35 38 40 39 42 47 47 48 49 47 44 42 37 36 39 42 44 46 46 45 49 51 43 38 38 37 37 40 42 43 44 43 44 46
29 30 33 34 36 41 43 39 34 34 37 38 41 44 45 47 50 49 48 44 39 35 34 36 37 39 39 38 45 51 46 43 42 38 37 39 40 42 44 46 47 47
30 30 31 31 33 38 40 39 35 33 35 37 41 44 45 46 47 48 48 45 40 35 32 33 33 34 36 36 40 45 45 47 47 41 37 38 39 41 44 47 49 48
29 30 30 30 30 32 36 37 35 33 35 37 41 45 48 47 46 46 46 43 41 37 31 31 32 32 34 35 38 42 42 46 50 46 39 37 40 42 44 45 47 49
27 29 29 29 30 30 32 34 34 34 37 39 41 46 49 49 47 46 44 41 41 40 35 31 30 30 31 33 37 42 43 43 47 47 42 38 39 42 45 43 43 46
27 27 28 28 29 30 31 31 32 34 38 41 42 44 47 49 50 49 45 41 39 40 39 36 32 29 29 31 34 38 43 43 43 43 42 40 39 39 42 42 41 42
34 29 28 29 30 32 34 35 34 33 37 41 43 44 45 46 49 50 47 43 38 36 37 37 34 30 29 29 30 33 38 41 41 40 39 39 39 38 38 39 42 42
47 39 33 31 31 33 37 38 38 37 39 42 43 44 46 46 47 47 46 44 40 37 34 33 33 33 31 29 28 30 32 35 38 39 38 37 36 37 36 38 44 43
52 48 44 41 36 34 37 39 39 40 41 43 44 44 46 47 47 46 45 43 41 39 36 33 34 36 35 32 29 29 30 31 32 34 36 37 35 34 33 36 41 41
54 50 52 55 50 44 43 41 39 40 41 41 43 44 45 46 46 46 45 43 42 40 38 36 36 36 36 35 32 29 29 30 31 30 33 36 36 34 32 32 35 35
65 62 61 63 63 59 56 50 43 41 42 41 40 41 42 43 45 45 45 45 43 42 39 38 37 36 36 36 35 33 30 30 31 31 32 34 35 34 32 30 30 31
73 71 67 65 66 64 62 60 55 47 43 41 40 39 38 38 40 41 43 44 44 42 39 38 37 36 34 35 35 34 32 30 30 30 31 33 34 34 32 30 29 29
72 66 64 66 67 65 61 61 63 60 51 45 42 40 38 37 37 37 38 39 40 41 39 37 35 34 33 33 32 31 29 29 29 28 29 31 32 33 32 30 28 27
72 67 65 66 65 66 65 61 65 68 63 55 49 42 38 37 37 36 35 36 37 38 37 36 33 31 29 30 30 28 26 26 27 27 28 28 30 31 31 30 28 26
70 69 69 67 64 65 66 63 67 73 71 65 58 49 43 39 36 36 36 35 36 36 35 35 33 30 27 25 25 24 24 24 24 24 24 25 26 27 28 29 28 28
73 73 72 71 67 67 68 67 69 73 72 69 62 55 51 46 40 38 37 36 35 35 34 33 33 32 29 25 22 21 20 20 21 21 21 22 22 22 22 24 25 26
76 76 76 75 73 74 75 73 71 71 71 70 62 54 53 53 49 43 39 37 35 35 35 34 33 33 32 29 26 22 20 18 17 17 19 18 19 19 19 20 21 22
77 77 78 78 78 79 78 75 72 70 69 70 66 58 54 57 57 50 41 38 37 37 38 38 36 35 34 33 31 28 25 23 20 19 18 17 17 16 17 17 18 19
75 75 75 75 76 76 75 75 73 71 72 72 71 67 61 59 61 58 48 42 40 41 42 42 41 40 38 36 35 32 31 28 26 24 22 20 19 17 16 16 17 18
69 70 70 70 70 72 76 80 79 77 78 78 75 72 68 63 63 64 61 52 46 45 45 44 45 45 44 42 39 37 34 32 30 28 26 24 23 21 19 18 16 17
64 65 67 69 69 71 78 84 84 82 82 82 79 76 74 69 64 64 65 61 56 52 49 49 49 49 48 48 46 43 41 36 32 30 28 27 26 25 23 22 19 18
64 65 69 74 75 74 79 83 84 83 83 82 79 77 76 75 71 66 63 62 61 59 57 55 54 53 53 53 52 50 48 44 40 35 31 28 27 27 26 25 24 22
66 69 73 77 76 74 76 79 81 81 82 82 81 79 78 78 76 70 65 64 63 63 61 60 61 58 55 54 53 50 49 48 45 42 37 32 30 30 29 27 27 26
55 58 60 64 67 68 71 74 78 80 81 81 81 81 80 79 78 75 73 71 69 66 63 63 63 60 55 53 51 48 47 45 42 39 39 36 31 30 31 31 30 29
48 48 47 48 52 58 61 65 70 77 80 82 82 82 81 81 80 79 78 77 76 73 70 67 64 61 57 56 55 51 48 47 46 46 47 45 39 35 33 31 31 31
47 48 47 45 45 48 51 53 58 65 70 74 77 79 80 81 82 82 82 81 80 79 76 71 65 61 60 61 61 59 55 53 56 58 59 59 56 50 42 35 32 31

ECMWFNIL_prec_cthk_084.txt.gz
RH
31 33 34 38 39 39 40 40 40 43 46 47 48 48 48 48 47 46 44 42 42 44 47 49 50 52 52 52 51 46 40 38 36 34 35 39 42 44 44 43 43 43
27 29 32 36 39 41 41 41 39 40 43 45 45 45 46 49 50 48 47 45 41 39 41 43 45 48 48 50 53 51 45 40 38 36 37 39 41 42 43 42 42 44
26 28 32 35 38 39 41 43 42 40 40 42 44 45 45 47 50 51 50 47 42 38 37 37 39 42 42 44 49 53 50 44 40 38 39 39 39 40 43 44 44 46
26 29 31 34 35 36 37 41 43 42 40 40 43 46 46 46 50 51 50 49 45 40 37 36 36 38 39 40 44 49 51 49 46 41 39 39 38 40 45 47 47 48
27 29 32 33 34 34 36 38 40 41 40 39 40 45 48 49 50 49 48 48 46 42 38 34 35 36 37 38 42 46 49 50 50 47 41 39 40 41 45 48 50 50
29 30 31 33 33 34 36 37 38 38 38 39 40 44 49 52 53 52 50 47 46 44 39 34 33 34 35 36 40 45 48 47 50 50 44 41 43 44 46 48 48 49
34 33 33 33 34 34 34 36 37 36 36 38 41 45 50 53 54 54 54 51 47 44 40 35 32 31 33 34 36 41 47 47 48 48 46 44 44 43 44 46 45 45
40 36 34 34 34 34 33 33 35 35 36 38 39 43 48 52 53 53 54 54 50 45 40 36 32 30 31 32 32 34 39 43 45 45 44 44 43 41 41 42 44 45
51 44 38 35 33 33 33 33 34 37 38 38 38 40 43 47 50 50 50 51 49 45 41 36 33 30 30 31 30 31 32 35 39 42 43 42 41 40 40 39 42 45
63 60 58 52 41 34 33 33 35 38 40 40 38 39 41 42 45 47 47 46 45 42 40 38 34 31 30 30 30 30 30 30 32 34 37 39 39 38 38 37 39 41
70 72 75 71 58 47 40 35 34 36 39 40 40 39 40 41 42 44 45 45 43 41 39 38 37 35 32 31 31 31 30 29 29 29 31 32 33 33 34 34 35 35
72 74 77 77 73 67 58 49 43 39 36 36 37 37 38 39 40 41 43 43 42 41 40 39 39 38 35 34 34 34 33 30 29 28 28 28 29 30 30 30 30 31
74 72 75 78 78 75 68 62 57 51 44 39 36 35 35 36 37 38 40 41 42 41 41 40 39 38 37 36 36 36 36 34 31 29 28 27 27 28 28 28 28 28
76 73 75 81 82 76 69 66 64 61 58 54 47 41 38 36 35 35 36 38 39 40 40 40 39 38 37 37 37 36 36 35 34 31 30 28 28 27 27 27 27 27
80 78 78 81 81 74 68 67 67 67 67 66 62 55 49 42 38 36 36 35 36 37 38 38 38 37 37 35 35 35 35 34 33 32 30 29 28 28 28 28 28 27
83 81 80 79 76 72 71 71 70 69 67 68 68 65 60 52 44 39 37 36 37 36 36 36 37 36 36 35 34 33 33 33 32 30 29 28 28 28 28 28 28 27
85 82 80 78 75 73 74 72 68 68 68 68 70 71 68 63 55 47 42 39 37 37 37 36 36 36 36 35 34 32 31 31 30 29 27 26 25 25 26 27 27 28
85 84 83 81 78 77 77 74 69 68 69 69 71 73 73 69 63 56 51 47 42 39 38 37 36 37 37 36 35 34 32 31 30 29 28 26 24 23 23 23 24 25
79 82 84 85 84 81 80 80 76 72 71 72 72 74 74 72 67 59 55 55 52 46 42 39 38 38 38 38 38 37 36 35 32 30 29 27 26 25 23 23 22 22
74 76 80 83 85 86 85 84 82 80 79 77 76 76 75 74 71 62 55 55 57 54 48 44 42 41 40 40 39 39 38 38 36 35 33 31 29 28 26 25 23 23
76 78 79 79 80 83 85 85 85 84 83 82 80 78 76 75 74 68 59 56 58 58 53 48 45 44 44 43 43 43 43 42 41 39 37 35 33 31 30 28 27 25
75 76 79 79 76 76 78 80 82 83 82 80 79 78 77 76 76 75 70 63 60 59 57 53 49 47 47 48 50 52 52 51 50 48 44 41 37 35 33 32 30 29
66 67 70 73 73 71 70 72 76 78 79 77 76 77 79 79 79 79 77 71 66 63 61 58 55 51 50 51 53 56 57 56 55 53 51 47 42 38 36 33 31 31
52 53 55 58 61 63 64 66 69 72 75 74 73 74 77 78 79 81 80 76 71 68 64 61 59 57 55 53 52 52 53 52 51 50 48 47 45 43 40 36 34 33
40 42 45 48 50 52 56 60 62 64 68 70 71 73 74 74 75 80 83 79 75 74 71 67 64 63 62 59 56 55 53 52 52 50 48 47 47 47 45 43 39 36
38 40 41 42 43 45 47 50 53 56 59 62 64 66 67 69 71 77 82 82 79 78 77 75 72 69 68 66 64 62 61 60 59 55 52 49 48 47 47 46 45 42

ECMWFNIL_prec_cthk_087.txt.gz
RH
44 46 46 44 41 40 40 42 45 48 50 52 51 51 51 49 47 46 44 43 46 51 52 49 50 52 49 47 47 45 41 37 36 37 38 40 40 41 45 49 50 49
40 42 44 43 42 41 41 42 44 46 48 50 51 49 50 50 49 48 45 43 43 45 47 48 50 51 51 52 51 48 43 40 38 37 37 39 40 42 46 47 47 47
33 36 38 40 40 41 41 42 44 46 47 47 48 49 49 49 49 50 48 45 43 41 40 43 46 46 46 49 51 49 45 43 41 38 38 40 42 44 46 46 46 46
28 30 32 35 37 38 41 43 44 46 45 45 46 47 47 48 48 50 51 49 45 41 37 37 39 41 41 43 47 49 47 45 42 40 40 41 42 42 44 44 45 46
26 27 28 30 33 36 40 42 43 44 44 43 44 45 46 46 46 49 51 50 47 43 39 35 34 37 38 39 42 46 49 47 43 41 41 42 41 40 41 43 44 47
27 26 26 27 29 32 35 37 39 41 43 42 42 43 44 44 45 47 50 50 47 44 41 36 33 33 35 36 38 42 47 49 47 44 42 41 40 39 40 44 46 48
28 28 27 27 28 30 31 33 35 37 40 41 41 41 42 44 45 47 48 48 47 45 43 38 34 32 32 34 35 40 45 47 48 48 45 41 41 41 42 44 47 49
30 28 28 28 29 31 32 33 34 34 36 39 39 39 41 43 46 49 50 49 48 46 44 40 35 32 31 31 33 36 41 45 46 47 45 42 41 42 42 44 44 44
37 30 29 29 30 31 31 33 33 33 34 36 36 37 41 43 46 49 51 52 50 48 46 43 39 33 30 30 31 32 36 40 44 45 44 42 43 43 42 42 42 41
47 37 32 29 29 30 30 31 32 32 33 33 34 36 40 43 45 48 50 52 51 50 47 44 41 36 32 30 30 30 31 35 39 41 41 41 42 42 43 42 40 40
59 50 42 36 31 30 30 30 31 32 32 33 33 36 40 43 45 46 48 50 50 49 46 44 42 38 35 32 30 30 31 31 33 36 37 38 38 40 41 41 40 39
68 61 56 49 43 39 36 33 32 31 31 31 34 37 41 43 45 46 48 49 49 48 46 43 41 39 36 35 33 32 31 31 31 32 34 34 35 35 35 36 37 37
75 70 65 62 61 58 52 44 39 35 32 32 34 37 41 43 44 45 47 48 49 48 47 44 42 40 38 36 35 34 33 32 31 31 32 34 34 33 33 32 32 33
79 75 72 71 72 73 69 61 54 48 42 38 37 37 39 40 41 43 44 45 47 47 47 45 43 41 40 38 37 35 33 33 32 30 29 30 31 32 32 31 30 30
83 79 76 76 76 78 77 74 70 64 57 51 46 42 40 38 38 39 39 40 42 43 44 45 43 41 41 39 38 36 34 32 32 31 29 28 28 28 29 29 29 29
86 83 80 78 78 78 78 78 77 73 66 62 58 54 50 45 39 38 37 35 36 37 40 42 42 41 41 40 39 37 35 34 32 32 31 30 29 28 27 27 27 27
86 86 83 81 79 78 78 79 79 75 71 68 65 63 62 58 53 49 44 39 36 36 36 37 38 39 40 41 40 38 36 35 35 33 33 32 31 30 28 27 26 25
86 88 87 85 83 81 81 80 79 75 72 70 69 69 68 67 65 63 57 49 43 39 38 36 36 37 38 39 40 39 38 37 36 34 33 32 31 30 29 28 26 25
87 89 89 89 87 85 83 81 78 74 71 71 71 71 70 69 69 70 68 63 56 49 45 41 38 37 37 38 39 38 38 38 37 36 34 32 31 30 29 28 27 26
83 85 87 89 88 85 84 81 78 74 73 73 73 72 71 70 70 72 73 72 68 60 53 51 47 42 39 38 38 38 37 37 37 37 36 34 32 31 30 29 29 28
79 79 79 83 85 85 84 82 80 78 75 75 75 75 73 71 71 72 74 76 74 66 59 57 55 51 46 42 42 42 41 40 39 39 39 38 36 35 33 31 30 29
77 77 75 76 79 80 80 79 81 81 78 78 80 80 77 76 75 76 76 77 76 71 65 61 58 56 53 50 48 48 47 46 44 43 42 41 40 39 37 35 33 32
71 73 74 75 75 75 75 75 76 77 77 79 84 84 82 81 82 81 81 80 79 77 73 68 63 59 57 56 54 52 52 51 50 49 49 47 46 44 44 42 40 38
64 63 65 69 70 70 71 70 69 70 72 76 82 84 84 84 84 83 83 82 81 81 80 77 74 68 64 62 60 58 57 56 55 53 53 52 50 49 48 46 43 42
54 52 52 54 56 57 59 60 61 61 64 69 74 77 79 81 82 82 83 83 81 81 81 80 80 77 73 70 68 65 65 65 63 59 57 55 52 50 48 47 45 44
46 44 42 42 42 42 45 47 49 51 53 58 64 68 70 72 73 74 76 78 79 81 81 80 81 79 76 76 76 73 70 72 72 68 65 62 58 54 52 51 50 48

ECMWFNIL_prec_cthk_090.txt.gz
RH
39 39 40 41 42 42 44 45 47 49 49 48 49 51 53 53 51 49 48 46 46 50 53 51 49 50 49 44 43 44 43 41 38 37 37 39 41 43 43 44 46 47
38 40 40 41 40 40 40 41 42 45 47 48 48 49 51 52 50 48 47 45 45 48 52 51 50 51 52 49 47 45 44 42 38 36 36 38 40 41 42 45 47 48
35 38 40 41 40 38 39 39 40 42 44 47 49 49 49 50 50 48 47 45 43 45 46 46 48 51 51 51 51 50 47 43 41 39 37 36 38 39 40 43 46 47
30 34 37 39 40 39 39 39 40 41 42 44 48 49 48 49 49 48 47 46 44 43 42 41 43 46 47 47 49 50 48 45 43 41 38 37 38 39 40 42 44 45
25 29 32 36 39 40 40 40 40 41 41 42 44 46 46 47 47 47 47 48 47 45 42 40 40 41 43 43 45 48 49 47 45 41 39 39 41 42 43 44 45 44
23 25 28 30 34 36 38 38 39 39 40 41 42 43 44 45 46 45 47 49 50 47 44 42 39 39 39 40 41 45 48 50 48 44 41 41 42 43 43 44 44 44
24 23 25 27 29 31 33 35 36 37 39 41 41 42 43 44 45 44 45 49 51 49 46 45 42 40 39 38 37 40 44 49 50 49 45 43 42 41 41 41 43 44
31 28 27 27 28 28 29 31 34 36 37 39 40 41 42 43 45 45 45 47 49 49 48 47 45 42 41 39 37 37 40 45 49 51 51 47 43 41 40 41 43 45
40 35 32 30 29 28 28 29 32 34 35 35 36 39 40 41 43 45 46 47 48 48 48 48 47 44 42 40 39 38 38 42 46 48 50 50 46 43 42 43 44 45
52 46 39 34 32 31 30 30 31 32 33 34 34 35 37 38 40 43 47 49 50 49 47 47 46 45 43 40 39 38 37 39 42 45 47 47 46 45 44 44 44 44
65 60 52 43 37 34 32 32 32 33 33 34 34 33 33 34 36 41 46 49 51 51 49 47 46 44 42 40 38 37 37 37 38 41 43 45 45 44 43 44 43 43
74 70 65 56 47 41 37 34 34 34 34 34 35 34 32 31 33 38 43 47 50 51 50 49 47 45 43 40 38 38 38 37 37 38 40 41 42 43 42 42 41 41
78 75 72 66 57 49 44 40 37 35 35 36 36 35 33 33 33 37 42 45 47 49 50 50 48 46 44 41 39 38 38 38 37 37 37 38 38 39 39 39 38 38
81 80 77 71 65 59 53 46 41 40 39 38 38 36 35 35 36 38 42 44 46 47 49 50 49 47 45 43 40 39 39 39 38 37 36 36 36 36 36 36 36 35
83 84 83 79 74 71 66 56 47 45 45 43 42 38 36 36 38 41 43 44 45 46 47 48 49 48 47 45 43 41 39 38 38 37 37 36 35 36 35 35 35 34
86 87 87 84 81 80 77 71 63 57 55 53 49 43 39 37 38 40 42 44 44 45 45 46 47 47 47 46 45 44 42 40 38 37 37 36 35 35 35 35 35 35
89 89 87 86 86 84 82 80 75 72 71 67 61 55 49 44 41 40 40 42 42 43 43 43 44 44 45 46 45 46 46 44 41 39 37 36 35 34 34 34 35 35
86 88 88 87 89 87 84 80 77 79 82 80 74 70 64 57 51 48 45 41 39 40 40 39 40 41 41 42 42 44 45 46 45 43 40 38 36 35 34 34 34 35
85 87 89 90 89 86 83 80 77 80 85 84 81 79 74 68 63 60 57 52 47 47 46 42 40 39 38 39 39 40 41 42 43 43 41 40 38 37 36 34 34 34
85 86 87 89 88 85 84 82 79 81 85 84 83 81 78 76 72 69 69 67 64 64 61 55 48 42 40 39 39 39 39 39 40 41 40 39 38 37 36 35 34 33
85 86 87 88 88 89 88 85 81 81 84 86 85 83 80 77 76 74 73 73 73 73 72 68 62 56 51 46 43 42 42 40 40 39 39 38 37 37 36 36 35 34
84 85 85 86 85 86 86 84 83 83 85 86 85 83 79 77 77 78 77 75 73 74 76 76 75 73 68 62 55 50 48 45 43 41 40 39 38 38 38 37 37 37
84 84 82 82 81 80 80 81 83 84 84 84 84 83 82 81 81 81 80 77 75 74 77 79 79 81 79 74 68 62 58 54 51 48 46 45 44 43 42 42 41 40
81 81 79 77 76 75 74 75 77 79 80 80 80 79 80 82 84 85 84 83 80 79 79 80 80 81 81 80 77 74 71 67 63 60 58 56 55 52 50 48 47 46
74 73 71 69 67 66 65 64 66 69 72 73 71 71 73 75 80 83 83 84 84 84 84 84 84 84 83 82 81 80 78 75 73 71 68 65 62 59 56 54 53 52
67 65 64 64 63 61 58 57 58 60 63 66 67 68 70 71 75 79 79 79 82 85 85 85 85 85 83 83 84 85 83 80 77 77 77 74 71 68 65 62 60 58

ECMWFNIL_prec_cthk_093.txt.gz
RH
36 38 42 43 43 42 44 47 50 52 53 51 52 53 53 54 53 52 51 49 47 48 51 50 47 47 47 46 45 46 46 45 44 43 41 41 41 41 41 40 41 44
35 36 38 40 41 41 41 43 46 50 52 51 51 51 53 54 54 52 51 50 48 48 52 53 50 49 49 47 44 43 44 43 42 40 38 38 40 41 42 41 41 42
35 35 36 38 39 40 39 40 42 45 49 50 49 50 52 53 53 52 50 49 48 48 51 52 51 51 51 51 49 47 45 44 43 40 38 38 39 40 41 41 42 44
35 35 36 37 39 40 39 38 39 41 44 47 48 49 51 52 53 52 50 49 48 47 47 47 47 49 51 51 51 51 49 46 44 42 41 39 37 38 39 39 41 44
33 35 36 37 38 41 41 39 38 39 42 45 47 48 49 51 52 52 50 49 48 47 47 45 43 44 46 46 47 49 50 48 45 43 42 40 39 39 39 39 40 42
28 31 34 35 37 40 41 40 39 39 40 42 44 46 48 50 51 51 50 50 49 49 48 46 43 42 41 42 42 44 47 49 48 44 42 40 40 41 41 41 42 43
26 26 29 32 34 36 38 39 38 38 39 40 41 44 46 47 49 50 50 50 50 51 51 48 46 43 41 40 39 39 43 47 49 46 43 42 42 42 43 43 43 43
29 26 24 27 30 32 34 35 35 35 36 37 39 41 44 45 46 49 50 50 49 52 54 51 48 46 44 41 39 38 39 43 46 48 48 46 44 43 42 42 42 42
36 32 28 26 27 29 30 31 32 32 33 35 36 39 42 42 44 47 48 49 48 51 54 55 51 49 46 43 40 38 38 40 44 47 49 50 49 46 44 43 42 42
42 41 37 33 30 29 29 31 32 31 31 33 34 36 39 40 41 44 46 47 48 49 52 54 53 51 49 46 42 39 38 39 41 44 47 48 49 47 45 44 44 44
51 49 46 42 39 36 34 33 33 32 31 32 33 34 36 37 38 40 42 44 47 49 51 52 52 51 49 48 45 42 39 39 39 41 44 45 46 46 45 43 44 44
65 60 56 52 48 44 40 37 35 34 32 32 33 33 34 36 36 36 36 39 44 48 50 52 53 52 49 48 47 44 41 40 39 40 41 43 44 44 43 43 42 43
78 72 68 65 60 54 50 44 40 36 33 33 33 33 34 35 35 34 33 35 39 45 49 51 53 54 52 50 48 46 43 40 40 40 40 41 41 42 42 42 42 41
86 81 79 78 74 68 62 55 48 42 36 33 33 34 35 35 36 35 33 33 37 43 47 49 51 53 54 52 50 47 44 42 40 40 40 40 39 40 40 40 41 41
87 86 86 86 85 81 75 68 60 51 43 36 33 33 35 36 37 36 35 34 37 42 45 47 49 51 52 52 50 48 45 43 41 40 40 40 39 39 38 38 39 39
87 87 87 87 88 88 83 77 71 64 54 43 35 33 35 37 37 36 35 35 36 40 43 45 46 48 48 49 49 48 46 44 42 41 40 40 39 38 38 37 37 38
86 87 87 87 88 88 84 79 77 74 68 57 45 38 38 39 39 37 36 36 37 39 42 44 45 46 46 47 47 47 46 45 44 42 41 40 39 38 37 37 36 36
86 87 86 87 87 87 84 81 81 80 78 72 61 50 44 43 41 39 37 37 38 39 41 44 45 45 45 45 45 45 45 45 44 44 43 42 41 39 38 37 36 35
89 88 86 85 87 88 86 85 86 84 82 80 75 65 57 51 48 46 42 39 40 41 44 44 43 43 43 42 41 41 42 42 43 43 43 43 43 41 40 39 38 36
86 85 85 88 91 91 90 89 90 88 85 84 82 78 71 65 62 60 55 49 47 48 49 48 44 42 42 41 40 39 37 38 38 39 40 41 41 41 40 40 38 37
83 82 83 86 87 88 91 92 92 91 88 87 85 82 79 75 74 74 70 64 62 62 61 58 53 50 51 51 49 46 42 39 37 36 37 37 38 39 39 39 39 38
80 81 83 84 83 85 89 91 92 92 90 89 87 84 81 80 80 80 78 75 75 76 74 72 69 66 65 65 63 59 55 51 46 43 40 39 38 38 38 39 39 39
78 79 81 84 84 85 88 90 92 93 91 90 88 86 83 81 82 83 83 82 81 82 82 81 79 77 76 73 71 69 68 66 62 57 51 46 43 42 41 41 40 40
76 76 79 83 84 83 84 86 87 88 89 88 87 86 84 83 85 87 87 85 84 84 84 83 80 79 78 77 76 76 76 76 75 72 67 61 56 53 50 48 46 45
71 72 74 77 80 80 80 81 81 82 83 83 83 84 85 85 86 87 87 86 86 86 87 85 81 79 79 79 79 80 79 79 80 80 79 76 73 70 67 63 59 56
68 69 69 71 74 76 75 74 74 74 75 76 78 80 81 80 79 80 80 81 83 86 88 88 86 84 83 82 82 82 82 82 82 82 82 82 81 80 80 76 73 69

ECMWFNIL_prec_cthk_096.txt.gz
RH
40 42 43 46 49 51 52 53 53 55 55 54 55 57 56 54 52 51 52 52 49 48 48 45 43 42 43 44 44 43 42 42 44 44 40 39 41 44 45 44 46 47
38 39 41 45 47 47 47 49 51 54 55 54 55 55 56 55 53 50 51 51 50 50 49 47 46 44 44 45 43 42 43 41 42 45 41 38 41 44 44 44 45 44
37 38 40 45 48 46 45 46 48 51 53 55 55 54 54 55 55 52 50 49 49 51 51 50 50 47 46 47 43 42 43 41 42 45 41 37 39 43 44 44 45 44
38 39 40 44 47 45 45 45 45 46 50 53 55 53 53 54 56 55 51 47 45 47 48 49 50 50 48 48 48 46 46 42 41 42 40 37 38 39 42 44 44 45
37 38 39 43 45 46 45 43 43 43 45 48 51 53 53 52 53 56 55 50 45 45 47 46 46 47 47 47 48 49 50 50 46 42 38 39 40 39 42 43 41 41
37 36 36 39 42 45 45 45 44 43 43 44 47 51 52 51 52 55 57 54 51 50 50 48 46 47 47 46 44 45 49 53 52 46 40 40 41 41 44 43 39 38
36 37 36 37 40 42 43 46 47 45 44 43 45 47 50 51 52 53 55 55 55 54 53 51 48 45 45 45 42 40 41 45 48 47 44 43 41 40 43 44 41 39
32 36 36 35 39 41 42 45 47 47 46 44 45 45 46 48 50 52 53 53 55 55 54 53 48 43 44 45 44 41 40 43 47 47 46 45 42 39 41 43 42 40
31 34 33 33 37 39 40 42 43 45 46 44 44 45 45 46 47 50 51 51 52 52 50 50 50 47 47 46 42 39 38 41 46 47 49 50 49 46 44 44 44 42
34 35 35 33 35 37 39 40 41 43 44 43 42 43 44 45 45 48 49 47 48 48 46 46 50 51 52 49 44 40 38 39 41 43 46 50 53 52 51 50 47 43
40 38 37 36 34 33 34 37 40 41 42 44 43 41 42 45 46 46 45 44 45 49 48 46 48 51 53 52 50 46 41 40 40 39 40 44 47 49 50 49 47 46
51 47 44 41 38 36 33 33 36 37 39 42 42 41 42 44 46 46 44 43 43 46 49 48 48 50 51 51 51 49 45 43 41 39 38 39 41 44 48 49 49 48
68 64 59 52 47 44 41 38 36 37 38 39 39 41 41 42 43 44 45 44 41 42 45 47 48 49 49 48 49 51 49 46 44 42 40 38 38 41 45 47 49 49
80 80 77 70 62 56 53 50 46 43 42 41 39 40 41 41 41 42 43 42 41 41 42 44 45 48 49 48 49 51 51 48 45 43 42 41 40 41 41 43 45 46
83 84 84 82 76 70 64 61 57 53 49 46 41 39 41 42 41 42 42 42 42 42 42 42 44 46 49 50 51 52 52 51 48 45 44 42 42 41 41 41 41 41
84 83 82 83 82 79 75 71 68 65 60 54 48 43 41 40 40 42 43 43 43 43 42 41 41 44 47 48 49 51 52 52 50 48 46 44 43 42 41 41 40 40
85 84 83 82 82 81 81 80 78 76 73 67 59 50 44 39 36 38 41 43 43 42 42 41 41 43 45 44 44 45 47 48 49 50 49 47 46 44 43 42 41 40
88 87 86 85 84 84 84 84 83 81 80 79 73 63 54 46 40 39 40 43 45 44 43 43 42 42 43 42 41 42 43 45 46 49 50 50 49 48 47 45 43 43
89 88 89 89 88 87 86 86 85 83 84 84 81 74 67 59 52 48 45 45 46 47 46 45 42 41 42 41 41 41 42 42 43 45 48 49 49 50 50 48 47 45
87 87 88 87 87 86 86 87 86 85 86 88 85 81 77 71 64 59 52 48 49 50 49 46 42 39 41 42 41 41 41 41 41 41 42 45 47 47 47 47 47 45
84 85 86 86 85 86 86 86 86 87 88 89 88 86 83 79 75 71 62 56 54 53 51 50 45 41 41 42 41 40 40 39 38 37 38 41 43 43 42 42 42 40
82 83 84 84 84 85 86 86 87 88 89 89 88 88 87 83 81 79 72 65 62 60 59 58 55 48 45 45 44 43 43 42 41 41 43 45 45 43 40 39 39 38
81 81 82 81 83 84 85 85 86 87 89 91 91 90 89 86 84 82 78 75 73 71 70 69 66 59 55 54 53 52 52 51 52 55 58 59 57 54 50 47 44 41
77 79 78 78 82 86 85 86 88 90 91 93 92 91 90 88 86 84 83 82 81 80 78 78 77 74 70 68 67 65 65 65 65 68 71 72 71 70 67 64 59 53
74 77 78 77 80 84 84 85 88 92 94 93 91 92 93 91 90 88 87 87 85 84 83 84 83 82 79 78 76 75 74 75 75 76 77 78 79 80 79 78 76 70
76 76 76 75 75 77 80 80 80 81 87 89 89 90 91 90 90 92 90 89 87 87 87 86 85 84 81 80 79 78 78 78 78 78 78 79 80 80 79 80 80 79

ECMWFNIL_prec_cthk_099.txt.gz
RH
51 53 53 52 52 54 55 54 53 52 52 55 56 54 53 53 53 51 51 51 49 47 44 41 41 40 42 43 40 40 42 41 44 47 43 42 44 45 45 47 47 48
49 51 51 51 50 52 53 54 54 53 53 53 54 55 55 53 52 50 49 50 50 49 46 43 43 40 42 46 42 40 41 38 41 48 46 42 45 46 46 47 47 46
45 47 46 47 50 52 51 50 52 52 53 53 53 55 56 56 55 51 49 49 50 52 49 46 46 43 43 46 42 42 44 40 41 46 45 40 42 47 46 46 47 47
42 44 43 44 50 52 48 47 50 48 49 53 53 53 54 56 57 54 51 49 47 50 51 49 49 48 47 46 43 45 46 42 41 41 40 37 38 41 44 45 46 47
42 43 43 42 47 51 47 46 48 46 45 49 51 51 53 53 54 54 54 51 46 47 50 49 49 51 49 45 44 47 48 47 45 41 38 37 37 39 42 43 43 44
43 42 41 41 44 47 46 46 46 45 45 46 47 48 50 50 50 51 54 55 52 50 50 49 48 49 49 47 44 45 48 50 52 49 43 39 39 41 43 44 43 42
45 44 41 40 42 42 43 45 45 44 43 44 45 46 47 49 49 49 52 54 55 54 53 52 50 48 48 48 43 39 41 43 45 46 44 42 42 41 42 43 43 39
48 48 44 42 42 41 41 43 45 45 43 42 43 45 46 47 48 49 49 51 52 54 55 55 54 49 47 49 46 40 39 41 43 43 41 43 45 41 38 41 42 39
46 47 46 45 44 43 42 41 42 44 44 42 43 45 46 45 45 46 48 50 51 53 55 56 54 50 49 50 47 42 40 40 44 46 44 44 48 47 45 44 43 41
41 41 42 43 42 42 42 41 39 40 43 43 42 43 44 44 44 45 46 48 50 51 51 50 50 49 50 51 49 44 41 40 40 41 42 43 46 50 51 51 49 47
40 39 38 39 38 38 38 39 38 38 40 43 42 41 41 42 44 47 46 46 46 47 47 45 46 48 48 50 51 50 47 45 42 40 39 38 40 43 46 48 50 49
44 42 39 38 38 37 35 35 37 36 37 40 42 42 41 40 42 45 47 46 44 44 47 46 45 46 47 47 50 51 51 50 46 43 42 39 38 39 40 42 44 46
47 48 45 43 42 39 35 32 35 36 36 37 40 42 42 40 41 44 47 48 45 43 45 45 44 45 45 44 46 49 50 50 48 46 45 43 41 38 37 40 42 43
50 53 54 53 52 50 44 38 37 39 40 39 40 42 43 41 39 40 44 47 46 44 43 43 46 48 45 42 45 47 48 49 49 47 47 46 43 41 39 40 42 42
60 62 64 65 65 64 60 55 50 48 49 48 46 46 47 44 39 38 42 44 44 45 43 41 44 47 44 43 44 45 47 52 51 48 48 46 45 46 45 43 42 41
72 73 74 75 76 76 75 73 69 63 60 58 57 56 54 51 46 42 41 42 42 43 44 43 42 43 45 47 46 43 47 55 56 52 51 50 49 50 48 44 42 42
82 83 83 83 83 82 81 82 81 77 71 66 64 64 62 58 55 52 47 45 43 42 44 46 45 43 44 46 44 42 45 50 53 51 50 50 49 48 46 43 42 43
86 86 86 86 85 84 83 83 84 83 80 76 72 69 67 66 64 62 58 53 47 43 45 47 47 44 43 42 39 39 41 41 43 45 48 49 49 48 47 45 44 45
88 87 87 86 85 86 86 84 82 82 82 80 77 73 72 73 75 73 69 62 54 48 46 47 48 45 42 42 40 38 38 39 40 41 42 45 47 48 48 47 46 46
89 88 86 86 87 89 88 84 82 81 81 82 81 79 77 78 82 83 79 72 66 59 52 48 48 48 49 50 46 39 37 38 39 39 39 41 44 46 48 47 47 46
87 87 86 85 87 87 86 85 86 85 83 84 84 83 82 82 84 86 84 80 75 71 63 52 46 49 54 54 47 39 37 39 39 40 39 38 40 42 45 46 48 49
86 86 86 86 86 85 86 88 89 86 85 87 86 85 84 85 86 85 84 85 83 80 74 63 54 52 54 52 47 40 38 40 42 44 45 50 54 53 48 47 49 49
84 83 84 85 86 86 86 87 86 84 85 85 85 84 83 84 87 86 86 88 87 82 78 73 66 60 57 55 52 48 44 44 46 48 52 63 72 69 58 54 55 55
83 84 84 84 85 84 83 83 81 82 83 82 82 84 85 86 89 90 91 90 88 85 81 77 72 67 64 63 61 59 55 52 50 50 54 62 69 69 62 60 64 64
81 83 81 80 81 81 80 80 79 79 81 82 85 90 91 90 91 92 93 91 89 88 84 79 77 75 71 70 70 69 68 64 60 59 60 63 68 71 70 68 70 71
79 79 78 78 78 77 76 75 74 75 78 82 86 91 92 90 91 93 94 92 90 88 85 81 80 79 77 76 77 78 79 77 75 72 71 72 74 76 75 73 73 75

ECMWFNIL_prec_cthk_102.txt.gz
RH
49 49 49 48 50 55 55 54 53 51 52 55 54 53 54 54 55 54 50 49 45 42 43 40 39 39 38 40 38 38 40 41 44 47 44 41 42 46 50 50 49 49
48 46 46 50 52 54 55 57 55 53 55 56 55 59 59 53 53 52 50 49 46 44 43 41 41 39 38 41 40 37 38 37 39 44 46 45 42 45 48 49 50 50
44 43 45 48 50 52 55 55 53 54 56 54 53 58 60 56 54 54 51 48 49 50 47 44 42 41 40 41 41 40 40 39 38 43 47 45 40 42 47 49 51 52
40 43 44 45 46 49 52 52 52 52 52 52 53 54 57 58 59 59 53 49 49 51 50 47 43 43 43 43 41 41 42 39 38 40 42 40 36 38 43 47 48 49
39 41 43 44 46 47 49 53 55 51 49 52 53 53 55 56 59 61 57 50 47 47 49 47 43 42 44 44 43 42 43 42 42 41 39 37 35 36 39 42 44 45
38 38 40 41 42 45 47 52 53 49 48 51 51 52 53 51 53 56 57 55 51 50 51 50 49 46 44 44 43 40 43 47 48 46 45 41 37 38 42 45 47 46
42 40 40 39 39 42 44 48 51 49 47 47 47 48 50 50 50 49 51 56 57 57 56 54 56 52 47 48 45 39 40 44 44 43 44 44 41 40 42 44 47 46
47 43 43 40 37 40 41 45 49 47 44 44 45 46 45 48 51 49 48 52 53 54 55 56 59 55 47 48 47 43 41 43 43 42 42 42 40 41 42 41 41 40
46 44 46 43 39 39 39 40 43 44 44 44 43 43 43 44 48 48 48 48 48 49 50 53 57 53 48 48 48 47 46 45 47 47 46 44 41 41 43 43 42 41
42 43 45 45 45 44 40 38 40 41 42 43 42 42 43 44 46 47 46 46 46 47 48 49 50 48 47 49 50 49 48 47 45 44 43 44 42 43 46 48 49 49
39 40 40 42 45 45 42 41 40 40 40 42 42 42 43 43 44 46 47 47 45 44 44 44 45 44 44 46 50 51 50 50 49 46 43 42 40 40 42 43 46 49
38 38 37 38 39 40 40 40 39 39 39 39 40 41 42 42 42 44 47 48 47 45 44 43 42 41 40 42 45 48 51 53 54 52 50 47 43 39 38 38 38 41
41 38 37 38 37 37 38 36 35 36 37 39 40 41 42 43 43 43 45 47 48 47 45 44 44 42 41 42 42 44 48 52 55 57 56 56 53 47 44 42 40 40
43 42 42 42 40 39 39 36 33 33 34 37 40 41 42 44 44 43 43 45 48 48 46 46 49 46 43 44 45 46 47 48 54 57 57 58 58 53 51 48 46 46
45 48 48 45 43 43 43 41 37 34 34 36 38 41 42 44 45 44 43 44 47 49 47 47 52 52 49 47 47 50 51 50 54 55 55 59 59 55 53 50 48 48
47 50 51 48 47 48 48 48 46 43 42 42 42 44 46 48 49 49 50 50 49 48 48 51 54 52 49 47 46 50 53 52 54 53 52 58 61 57 54 51 48 49
54 53 53 53 55 57 57 58 59 59 60 58 58 57 56 56 56 56 59 61 58 53 52 58 62 55 46 44 45 47 49 50 53 50 47 56 64 61 56 51 49 51
63 61 60 59 62 66 69 71 72 73 75 75 75 73 71 68 67 65 67 68 67 64 63 66 69 62 50 46 47 46 46 48 49 46 44 54 62 63 62 59 54 55
71 70 69 68 68 72 76 78 79 80 82 83 83 83 82 80 76 73 73 73 71 69 69 70 73 69 57 49 48 47 46 46 45 42 41 46 51 53 58 61 60 60
75 76 76 75 75 77 80 82 83 83 84 85 84 84 85 85 83 80 79 79 76 72 70 72 77 79 68 55 49 49 49 47 45 42 40 39 40 43 45 49 55 61
82 81 81 82 82 82 83 85 86 86 85 85 85 86 86 87 88 85 81 81 80 78 76 75 77 81 76 65 56 51 50 50 49 47 42 38 38 39 41 43 47 52
86 86 85 86 88 87 86 87 87 87 86 86 87 89 89 88 87 87 85 82 81 81 81 80 79 80 80 75 67 57 51 52 54 51 44 39 38 39 42 44 43 44
88 89 87 87 88 88 87 86 86 86 86 87 89 89 87 86 86 88 87 85 84 84 85 85 85 83 81 80 76 67 57 52 54 52 45 39 39 41 45 47 48 55
88 89 88 87 87 86 85 85 86 86 86 86 88 88 87 87 88 88 87 86 87 88 88 89 89 85 82 81 80 76 67 56 53 54 50 44 42 44 46 48 54 64
86 88 88 87 85 84 84 85 87 88 88 87 87 88 88 88 86 84 84 84 85 87 89 92 91 87 85 84 81 78 75 66 59 58 56 52 51 51 49 50 57 66
84 85 86 85 82 81 82 83 86 87 89 89 87 87 86 84 85 89 90 88 87 88 89 92 93 91 89 87 83 81 81 77 69 65 62 59 60 61 59 57 60 64

ECMWFNIL_prec_cthk_105.txt.gz
RH
47 50 51 51 52 52 51 48 47 50 49 47 48 49 50 53 56 55 51 48 45 41 42 42 40 39 39 40 41 43 44 42 43 46 43 38 39 40 40 44 47 47
47 49 51 50 50 51 52 51 52 51 49 50 52 54 55 54 54 53 50 50 49 44 43 43 41 39 39 39 40 39 38 38 40 42 43 42 41 41 42 44 46 46
45 47 48 48 50 53 52 51 53 52 51 54 53 55 60 57 54 53 52 51 49 46 45 44 43 43 41 40 41 40 39 39 39 39 42 45 43 40 41 44 46 47
42 44 44 45 48 49 50 52 52 50 51 54 52 53 57 58 57 57 55 52 50 50 49 48 46 45 45 44 42 42 41 40 40 39 40 43 42 38 39 42 45 47
38 40 41 43 44 44 48 51 51 51 50 49 50 52 55 57 58 60 60 56 51 50 50 51 49 45 46 47 46 45 44 44 43 42 42 42 39 37 38 40 43 45
36 38 39 42 43 43 47 48 49 52 51 48 50 52 55 56 56 57 60 58 54 51 49 51 51 49 47 47 47 46 44 45 47 47 48 47 43 40 39 41 45 47
38 37 37 38 40 42 44 46 48 50 50 48 49 51 52 53 53 54 53 54 57 57 55 55 56 56 52 49 49 48 43 43 45 45 46 47 46 44 42 44 47 47
40 38 36 37 39 39 40 41 44 48 49 48 47 48 48 49 50 52 51 51 54 57 59 59 59 61 57 52 52 52 47 44 45 45 45 45 45 45 44 46 48 46
43 41 41 41 41 40 39 38 40 45 48 48 46 46 46 46 46 48 50 51 51 52 56 56 58 61 60 55 53 52 50 49 50 50 48 48 48 46 44 45 47 47
44 44 46 46 43 42 40 37 38 42 44 45 44 44 44 45 45 45 47 49 49 49 51 52 54 56 56 55 54 53 51 51 52 51 47 47 47 46 45 47 48 50
43 45 47 47 45 44 44 42 41 41 41 43 44 44 44 44 46 46 46 48 49 49 48 48 50 50 51 52 52 52 54 54 54 53 50 47 46 43 43 44 46 51
43 45 46 47 46 44 45 46 45 43 41 41 42 42 43 43 44 45 44 45 47 48 47 46 46 46 47 48 47 49 53 54 55 56 56 54 51 47 44 42 42 44
43 43 43 44 44 43 43 44 44 43 42 41 41 41 41 41 42 44 44 43 44 44 45 46 46 46 45 45 45 46 48 50 52 55 59 59 58 56 54 50 47 48
46 47 46 45 44 41 41 40 39 39 38 38 38 40 41 42 43 44 44 45 45 44 42 43 45 47 49 49 47 46 47 48 49 52 55 58 60 60 60 59 58 57
52 51 50 49 48 44 42 42 40 38 36 34 34 34 37 40 43 44 45 46 46 45 44 44 44 46 51 56 54 49 47 47 49 52 53 55 58 60 61 66 68 66
63 59 56 54 51 47 45 46 44 41 38 37 35 34 33 35 38 41 44 47 48 49 50 52 51 47 47 54 56 51 48 48 50 54 54 54 56 56 58 63 67 67
71 69 68 67 64 59 55 52 48 44 42 40 40 40 39 38 40 42 45 48 51 53 55 58 61 57 51 54 59 55 49 48 50 52 53 55 56 54 53 60 65 65
74 72 71 71 71 69 66 61 56 51 49 48 48 50 51 53 54 54 54 55 56 57 57 59 63 64 60 61 64 63 55 50 49 50 50 51 52 49 49 56 64 65
75 74 73 73 72 70 68 67 67 64 62 62 63 64 66 69 70 70 70 70 68 65 63 63 64 66 66 67 70 71 67 59 53 49 48 45 44 44 45 49 57 62
74 74 73 73 74 73 70 70 71 70 68 68 69 70 74 77 79 80 80 80 79 77 74 72 71 70 68 69 72 75 74 70 60 51 47 44 43 42 41 42 47 52
75 75 74 73 74 75 74 73 72 71 70 69 70 73 77 80 82 83 83 83 84 85 82 79 77 75 72 70 71 75 77 75 69 59 52 48 46 44 41 39 39 41
77 78 79 79 77 76 77 76 76 76 74 73 74 76 78 80 81 83 83 83 84 86 87 84 82 80 77 74 74 77 78 78 75 68 61 54 49 48 46 42 37 36
80 80 81 83 82 81 80 80 80 80 79 78 78 78 79 80 82 83 83 83 85 86 86 88 88 85 80 77 77 78 78 80 81 76 71 64 55 51 49 46 40 38
81 81 83 84 86 87 85 84 84 85 84 83 82 82 83 83 84 84 85 86 88 88 87 87 90 89 85 81 80 79 80 83 85 82 77 72 65 56 50 48 44 41
78 80 83 85 87 89 89 90 90 89 88 87 86 86 86 85 84 84 85 85 87 88 88 88 88 89 88 87 85 83 83 84 87 86 80 76 72 63 52 50 50 48
72 75 78 82 85 86 88 90 91 90 89 88 87 87 85 85 85 85 85 85 86 88 89 90 90 91 90 90 91 91 89 86 86 87 83 78 75 69 59 54 57 57

ECMWFNIL_prec_cthk_108.txt.gz
RH
50 51 52 53 55 57 54 48 46 49 49 48 47 47 50 51 51 50 48 44 42 42 43 43 42 40 40 41 41 42 45 43 40 40 40 39 38 37 39 41 42 45
50 52 52 53 54 55 53 49 48 50 50 49 49 50 51 52 54 55 51 47 45 43 43 43 40 39 39 40 39 39 40 40 40 42 43 41 38 37 38 39 41 44
50 51 53 53 52 52 53 51 50 52 50 50 52 54 55 55 54 54 51 49 48 46 44 43 41 39 38 38 39 38 37 37 38 39 39 40 39 37 38 38 40 43
47 49 51 52 50 51 53 53 52 52 52 53 54 54 57 59 57 55 53 50 48 47 45 44 43 42 41 39 39 39 38 38 39 38 37 39 41 39 38 38 39 41
43 45 47 47 46 48 51 51 51 52 52 54 54 53 55 58 59 58 57 53 49 47 47 46 45 45 44 43 42 41 40 40 41 40 38 39 40 38 36 37 39 40
39 41 44 44 44 46 48 46 48 50 50 51 53 52 52 54 56 57 59 59 53 49 47 46 46 45 44 44 44 43 42 42 43 43 42 42 41 39 37 36 38 42
38 39 41 42 44 46 46 46 47 48 49 51 52 51 51 53 54 54 56 59 57 53 49 47 47 48 46 44 43 44 42 41 41 43 43 44 44 43 39 37 39 43
36 38 39 40 41 43 44 46 47 47 49 51 50 49 50 51 51 51 52 53 53 54 54 53 54 53 52 49 45 45 44 41 39 40 41 41 42 42 41 40 41 42
36 37 39 40 40 40 41 43 43 43 47 49 49 47 47 46 46 48 49 50 50 50 52 54 56 57 57 55 50 47 46 44 42 42 44 44 42 43 44 42 41 41
37 39 41 42 41 40 40 41 41 40 42 46 48 48 47 45 44 44 45 48 49 48 48 49 52 54 56 57 54 50 48 47 46 44 46 46 44 44 44 42 41 43
40 44 44 43 43 44 45 44 42 40 39 42 45 47 46 44 43 43 43 45 46 46 46 46 46 48 50 51 52 50 48 49 49 48 48 46 44 44 43 41 42 43
44 47 47 46 47 49 49 47 44 42 41 40 41 41 42 42 41 42 43 44 43 43 44 44 44 43 43 44 46 47 47 48 50 52 52 51 52 52 49 44 43 41
49 48 47 48 49 50 50 48 46 45 44 44 42 40 40 40 41 42 43 43 43 43 43 43 42 41 41 41 41 42 42 43 46 49 51 54 59 60 59 58 56 52
50 50 48 48 49 49 49 48 46 45 46 46 45 42 41 41 41 42 43 42 43 43 43 43 42 43 42 42 40 40 40 40 40 42 46 53 61 63 65 67 66 63
55 54 51 50 51 50 49 48 46 44 43 43 42 41 40 40 41 42 42 43 44 44 44 44 44 45 44 44 43 44 45 44 43 42 43 49 55 57 60 65 68 67
69 67 62 57 55 54 52 51 49 45 43 41 39 39 38 37 37 39 40 42 44 46 47 47 48 48 47 47 47 47 48 50 50 49 47 47 49 51 55 60 64 66
78 77 72 67 63 61 58 55 52 49 46 44 43 41 40 38 37 36 36 37 40 43 46 49 52 54 54 55 55 54 51 50 51 52 52 50 50 52 55 55 55 57
79 77 76 74 71 69 68 65 62 58 55 52 50 47 44 42 41 39 38 38 39 42 45 49 54 57 60 62 65 66 62 58 56 57 58 56 51 50 52 52 52 53
79 77 76 75 73 73 73 73 74 73 69 65 62 57 51 48 48 49 50 51 53 55 59 61 63 63 62 62 64 69 70 70 69 68 68 66 59 54 51 48 48 49
80 78 77 76 76 77 76 76 77 77 76 75 72 67 64 62 60 60 63 66 67 70 73 76 77 77 74 68 64 64 66 69 72 74 75 76 72 66 59 50 45 43
82 81 80 81 81 80 79 78 78 77 77 76 75 74 74 74 71 69 70 72 73 76 78 81 84 85 86 83 77 73 70 70 73 74 75 78 79 77 71 60 50 45
84 84 85 86 85 83 81 79 79 80 80 77 76 76 77 78 77 75 75 73 74 78 81 83 86 88 89 90 89 86 81 78 78 77 75 76 78 79 77 70 61 53
81 82 82 83 85 85 85 83 82 84 83 79 77 77 78 80 81 80 79 76 74 76 80 82 84 86 87 89 90 92 91 86 81 80 78 77 77 78 78 76 71 65
81 80 79 81 84 84 84 85 85 86 85 83 80 79 78 79 81 81 81 80 78 77 80 82 83 84 85 86 86 89 92 91 86 82 81 81 82 83 82 81 78 74
81 81 80 81 83 83 83 85 87 88 88 88 86 84 82 80 80 80 82 82 82 82 82 84 85 85 84 84 84 84 87 91 91 87 84 84 86 87 86 85 83 78
75 75 76 76 78 80 81 83 85 87 89 90 89 88 85 83 82 82 84 86 86 87 88 88 89 89 88 88 87 86 86 89 91 90 87 86 88 88 86 85 85 81

ECMWFNIL_prec_cthk_111.txt.gz
RH
51 51 52 52 52 52 52 49 48 50 49 48 49 48 48 49 48 46 45 44 43 43 43 43 43 44 45 44 44 44 44 44 44 43 42 40 39 39 41 43 44 45
50 51 51 52 53 55 55 51 48 49 50 50 50 48 49 51 51 51 49 47 44 41 42 43 43 42 43 42 41 42 43 46 47 45 42 42 42 41 39 40 42 43
48 51 52 52 53 55 56 53 50 50 51 51 50 50 52 52 52 54 53 49 46 44 43 44 43 41 41 41 40 40 40 41 44 43 41 42 43 41 38 38 40 41
47 50 53 53 53 54 55 55 52 51 51 52 52 53 54 55 55 54 53 50 48 47 45 44 44 42 40 39 39 40 39 39 39 38 38 39 39 40 39 38 38 38
46 49 52 54 55 55 55 56 55 52 52 53 52 52 54 56 57 57 55 52 49 48 47 46 45 44 43 41 40 40 40 39 39 38 38 36 37 39 39 38 36 36
44 46 49 52 54 54 53 54 54 51 52 53 52 53 54 54 56 59 58 56 55 52 49 47 47 46 45 45 44 43 42 41 41 41 41 39 39 39 39 37 35 35
42 44 46 48 49 49 49 50 50 49 50 52 52 52 53 52 53 55 56 58 59 57 53 50 48 47 46 46 44 44 43 43 42 42 43 44 44 44 43 41 38 36
41 43 44 46 47 47 47 48 49 48 49 51 50 51 52 52 52 52 52 55 57 59 57 53 51 50 49 48 47 45 44 43 42 41 41 42 43 44 44 43 40 38
39 41 43 45 46 46 46 48 49 49 50 51 51 50 51 51 51 51 51 51 52 54 55 54 54 55 55 55 54 51 48 46 44 42 41 41 42 42 42 43 43 41
38 39 41 43 44 45 45 46 47 48 49 50 51 51 50 50 49 48 48 49 49 50 51 51 51 53 55 56 57 56 54 51 49 46 44 44 46 45 45 45 45 42
38 38 38 40 42 44 44 44 44 45 45 45 47 49 50 50 49 48 47 47 48 48 48 48 47 48 49 51 53 54 54 53 51 49 47 46 47 47 45 43 42 40
37 36 36 37 40 42 43 42 42 43 43 43 43 45 47 48 48 48 47 46 46 46 46 45 44 45 45 45 47 48 49 49 50 49 49 49 48 48 47 46 44 41
36 36 37 39 41 43 43 44 45 45 45 45 43 42 43 45 46 46 45 43 43 43 44 43 43 43 44 43 44 44 44 44 44 46 48 49 49 50 51 53 53 52
40 38 41 44 46 47 47 47 48 49 49 47 45 43 43 43 42 42 42 42 42 43 43 42 42 43 44 44 44 44 42 41 40 40 41 42 44 47 50 56 60 60
45 43 45 48 51 50 49 49 50 50 49 48 48 47 47 46 44 43 42 42 43 43 42 42 43 44 44 45 45 45 44 43 42 42 42 41 41 41 45 52 57 59
51 50 51 52 53 51 51 51 50 50 49 48 48 48 48 48 47 45 44 42 42 43 43 43 43 44 44 45 46 46 46 45 45 46 46 46 46 45 45 47 50 52
62 61 58 56 54 54 53 52 52 51 51 50 49 48 46 45 45 43 42 41 40 40 42 42 43 44 45 45 47 49 50 51 52 53 51 50 51 50 48 47 49 50
73 70 66 63 62 62 60 58 58 56 55 54 53 50 47 45 44 43 41 40 39 39 40 40 41 42 43 44 48 53 58 62 65 66 65 61 58 58 57 56 56 55
79 75 73 72 73 73 71 68 67 64 62 60 58 55 52 51 50 49 45 42 40 39 39 40 40 42 44 47 51 56 61 63 65 67 68 68 67 68 67 66 66 65
82 79 77 76 75 76 75 74 72 70 68 67 66 65 63 61 59 58 55 52 48 45 44 45 47 50 53 57 61 63 64 63 62 62 63 64 67 69 70 68 68 69
83 83 81 77 74 75 75 76 75 74 73 73 72 72 71 69 67 65 63 61 59 58 57 57 57 59 62 65 68 71 71 73 74 72 70 69 69 70 71 70 70 71
82 82 81 78 77 78 79 79 79 79 79 77 76 75 74 73 73 72 72 70 68 69 69 68 66 66 68 71 74 76 78 79 81 82 81 79 77 76 76 77 78 78
84 83 82 82 83 82 82 82 82 83 83 81 79 79 80 80 80 79 79 78 77 77 76 74 71 70 72 74 76 79 79 80 81 83 84 84 83 82 81 82 85 86
84 83 82 82 82 81 81 81 81 82 84 85 85 86 86 85 84 83 83 82 82 81 78 75 76 77 77 77 76 76 77 79 81 82 84 85 87 87 86 85 86 89
80 80 79 78 77 77 78 79 79 79 81 84 85 85 85 86 86 87 88 87 86 84 80 78 79 80 80 80 79 77 76 77 79 80 82 84 86 88 89 88 87 87
80 82 82 82 81 81 81 81 81 81 80 80 79 80 84 86 87 88 88 87 86 85 84 84 82 81 80 81 81 81 82 82 82 83 84 84 83 85 89 92 92 89

ECMWFNIL_prec_cthk_114.txt.gz
RH
52 52 52 53 52 51 52 52 52 53 52 51 50 49 48 48 49 50 49 48 46 46 45 44 44 45 46 48 48 47 47 46 45 43 42 41 42 42 41 41 42 44
53 52 53 54 53 52 53 52 51 52 51 52 53 52 52 53 52 53 52 50 48 47 47 46 45 45 46 48 48 46 46 46 47 48 47 44 44 44 43 42 41 42
51 52 53 54 54 55 56 54 51 50 52 53 54 54 53 54 55 55 56 54 52 48 46 45 46 45 45 44 44 43 42 42 44 47 48 47 45 46 46 44 41 41
47 50 52 53 55 57 58 57 53 51 52 54 54 54 54 54 55 57 57 56 54 50 48 47 46 45 43 43 42 41 40 39 40 42 43 44 43 43 44 43 42 42
44 47 51 53 54 55 57 57 56 54 53 54 54 54 56 56 56 57 58 57 55 52 50 49 48 45 44 44 42 42 41 41 40 40 40 39 39 39 40 41 42 42
43 45 48 51 53 55 56 57 57 57 56 55 54 54 56 57 57 57 59 59 58 55 52 51 49 47 46 46 45 43 43 43 42 41 40 40 41 41 41 41 41 40
41 44 47 49 52 54 56 57 58 58 57 55 53 54 55 54 55 56 58 60 60 59 57 54 52 49 47 47 46 45 44 45 44 43 43 43 44 45 46 46 45 43
39 42 45 47 49 52 54 54 54 55 54 51 51 53 53 53 53 54 55 57 58 58 59 58 55 52 49 48 47 46 46 46 45 44 44 43 44 45 46 47 46 44
38 39 41 44 46 48 49 49 49 49 49 47 48 50 50 51 52 53 53 54 54 55 57 58 57 54 53 52 51 50 50 49 48 46 45 43 42 42 43 43 43 43
38 37 39 41 44 45 46 46 46 46 46 46 47 48 50 51 51 52 52 52 53 53 54 55 55 54 53 53 54 55 55 54 52 51 49 46 44 43 44 45 45 44
38 37 37 39 42 43 44 45 46 45 46 47 48 50 51 51 51 52 52 51 51 50 50 51 51 51 51 51 51 53 54 54 54 54 52 51 48 46 46 46 46 44
41 39 37 37 39 42 43 43 43 44 44 45 47 49 49 50 50 51 51 51 50 49 49 49 49 49 49 48 47 48 49 51 52 53 52 51 50 48 48 47 46 46
40 40 38 37 38 39 41 42 42 43 43 43 44 44 45 45 47 49 50 51 50 49 49 48 47 46 46 46 45 46 46 47 47 48 49 48 48 48 48 48 49 49
39 39 39 38 37 37 38 40 41 43 43 43 43 42 42 43 44 45 47 49 50 49 48 47 46 45 45 46 46 46 45 45 45 44 44 44 44 44 44 45 46 47
41 40 38 37 36 35 36 38 40 43 44 44 44 44 44 45 44 43 44 46 47 47 46 46 45 45 45 46 46 47 46 45 45 44 44 44 43 43 42 42 42 43
45 43 41 38 36 35 37 40 42 45 46 47 47 48 48 48 47 46 45 45 45 45 45 45 45 45 46 46 46 46 46 47 47 46 45 45 45 45 45 45 44 44
50 46 45 42 40 40 42 45 47 49 49 50 51 52 51 50 50 49 49 49 48 48 47 45 45 44 45 46 46 46 46 47 48 48 48 49 50 51 51 51 51 51
57 52 52 50 48 46 46 49 52 52 51 51 51 51 52 52 51 50 50 51 49 49 47 46 44 43 44 45 45 46 47 48 48 51 56 60 62 63 63 62 62 62
66 60 59 57 54 52 51 53 54 53 52 51 53 55 58 60 58 54 52 50 48 47 47 45 44 42 42 43 44 45 45 46 49 55 62 65 66 66 67 68 68 68
75 70 68 66 63 60 59 58 57 58 57 56 57 62 66 67 65 61 57 55 52 51 50 49 47 45 42 41 42 43 44 46 50 57 63 65 64 63 63 63 64 65
83 79 76 74 72 70 68 67 65 65 67 66 67 71 73 73 71 70 70 69 66 63 64 62 59 54 49 46 44 45 47 50 54 60 65 68 68 69 69 69 69 68
86 84 81 79 80 79 77 74 72 73 79 81 80 79 79 78 79 80 82 81 78 76 77 76 71 65 61 56 53 53 55 57 61 66 69 72 74 75 77 78 79 77
86 87 88 88 88 86 82 79 78 80 84 86 85 83 81 81 82 84 86 84 82 82 82 81 79 77 74 69 64 62 62 64 65 67 70 72 75 77 78 80 82 83
87 88 91 91 88 86 84 83 83 83 84 85 84 84 84 83 83 85 86 86 86 87 86 84 83 83 82 79 75 71 70 69 69 69 70 73 73 75 77 79 80 82
91 90 89 89 86 85 84 85 85 85 84 84 84 84 84 84 84 85 86 87 87 88 89 90 90 88 86 85 84 81 78 76 74 73 75 76 75 75 76 77 77 77
89 88 88 87 87 86 85 84 83 82 81 80 80 81 82 83 83 83 84 86 87 87 90 91 93 93 91 90 89 88 85 82 79 77 77 78 79 80 80 81 81 82

ECMWFNIL_prec_cthk_117.txt.gz
RH
49 50 50 49 49 48 46 45 46 48 47 46 45 45 43 42 42 43 44 44 42 41 41 42 42 43 44 45 46 48 49 48 48 46 43 42 41 42 42 42 42 41
47 49 50 50 50 49 49 48 49 50 50 49 47 47 47 47 46 47 48 47 45 43 43 43 43 43 43 44 46 48 48 48 48 48 46 45 44 43 43 42 42 40
47 50 51 52 52 51 51 51 51 51 51 50 50 50 50 50 51 51 51 51 49 47 46 45 45 44 44 44 45 46 46 45 45 46 46 47 47 46 45 44 44 42
47 51 52 53 53 53 52 52 51 50 50 51 51 51 51 52 52 53 53 53 52 51 49 47 46 45 45 45 44 44 43 42 42 41 41 43 44 44 44 43 43 43
45 50 52 52 53 53 53 53 53 51 50 51 51 51 51 52 53 52 52 53 54 54 52 49 48 48 47 46 45 44 44 43 42 41 40 40 41 41 41 40 40 41
43 46 49 51 51 52 53 54 54 54 52 51 51 52 52 52 53 53 53 54 55 55 54 51 50 50 50 49 47 46 45 45 45 44 42 41 42 42 42 41 41 42
42 44 46 48 49 51 53 54 54 55 55 53 52 52 51 52 53 54 55 56 57 58 57 56 53 52 52 52 50 48 48 48 47 46 46 45 44 45 46 46 47 46
40 41 43 45 47 49 51 52 54 55 56 55 54 53 52 52 52 53 54 55 56 58 60 60 59 56 55 53 51 50 50 50 48 47 48 47 46 46 46 47 48 47
37 39 40 42 45 47 49 51 53 55 55 56 55 53 52 52 52 52 54 54 55 56 58 59 59 59 58 56 54 52 52 52 52 51 50 50 49 47 45 44 45 45
37 36 37 39 42 44 47 48 51 53 53 53 53 51 49 50 51 51 53 54 55 55 55 56 57 58 58 57 56 55 55 56 57 57 56 54 53 50 48 47 47 48
40 37 36 36 37 40 43 44 46 49 50 50 49 48 48 48 49 50 51 53 53 53 54 54 54 55 56 55 55 55 55 56 57 58 59 58 57 55 53 51 50 50
45 41 37 35 35 36 39 42 43 44 46 47 46 46 47 48 49 50 51 52 53 52 52 51 51 51 52 52 52 52 52 52 53 55 56 57 57 56 55 53 53 52
49 46 41 37 36 36 37 40 42 43 44 45 45 46 47 48 50 51 51 51 52 52 52 51 50 49 50 50 49 49 49 49 49 49 50 51 52 52 52 52 51 51
52 51 46 41 38 37 37 39 41 43 44 44 44 44 45 47 48 49 49 48 49 50 51 51 50 49 50 49 48 47 47 46 46 45 45 46 46 47 47 47 47 47
53 52 49 44 40 39 38 38 39 41 43 43 43 43 44 45 46 46 46 47 47 47 48 49 50 50 49 48 47 46 45 45 45 45 45 45 44 44 44 44 44 45
54 53 50 45 42 40 40 39 40 40 41 42 43 44 46 46 47 46 45 46 47 47 47 46 46 47 46 45 45 44 44 44 44 45 46 46 46 45 45 45 45 45
57 54 52 47 43 42 42 41 40 40 40 42 44 46 47 47 48 48 47 48 48 47 47 46 44 43 43 42 42 42 42 43 44 44 45 45 46 46 46 47 47 47
68 62 57 52 48 46 44 42 42 42 43 44 46 48 48 49 50 51 50 51 50 49 48 48 47 46 46 45 44 43 42 42 42 43 44 44 45 46 47 49 51 54
82 78 72 64 58 55 53 48 44 42 44 47 49 50 51 53 58 59 54 51 51 51 51 51 51 50 49 48 47 45 43 41 41 42 44 46 46 46 50 54 58 61
85 85 84 77 68 65 67 64 52 46 48 50 52 54 54 58 68 69 61 56 57 57 55 54 52 50 49 47 46 45 43 41 40 40 42 44 45 47 51 57 61 64
86 86 89 87 76 69 75 80 71 61 57 54 56 61 59 59 68 72 65 63 65 66 64 61 59 57 54 51 50 49 48 46 43 41 41 42 43 45 50 56 62 65
88 86 90 91 84 75 77 85 83 76 67 60 64 70 64 60 66 72 69 68 71 74 73 71 69 68 66 65 64 62 61 58 53 50 48 47 47 49 54 58 64 67
89 88 89 91 89 84 84 88 86 81 75 71 71 73 70 67 70 73 73 73 74 77 79 79 79 79 78 78 77 75 75 72 67 62 59 57 57 59 61 63 65 67
93 93 92 91 90 89 90 92 89 84 83 81 78 78 77 76 77 78 79 79 79 80 81 81 81 81 81 81 81 81 81 80 77 74 71 68 67 66 66 66 66 66
97 98 94 91 90 91 92 93 91 88 87 86 84 83 82 80 80 81 82 83 83 84 83 83 82 83 83 84 85 85 86 86 84 83 81 79 76 74 73 72 71 70
96 96 93 92 92 93 93 93 92 89 88 88 87 85 82 80 80 80 82 84 85 86 87 87 86 87 87 87 87 87 87 87 86 86 86 85 82 81 80 78 76 74